GFSCGP_sfc_wetblb_078.txt.gz
Wetbulb
48.00 44.68 42.14 44.24 46.06 46.58 46.14 44.46 43.80 45.85 46.75 45.50 45.77 46.34 48.10 50.78 52.26 53.32 55.19 56.51 57.62 59.20 61.63 61.05 61.29 61.14 59.33 59.18 59.43 59.16 57.67 58.18 58.50 58.65 59.08 57.95 57.17 57.22 57.00 57.50 58.04 58.08 57.66 59.45
45.20 41.34 44.96 47.04 47.54 45.80 45.14 43.04 43.17 45.90 46.81 45.46 45.41 44.90 47.91 50.06 51.68 53.47 54.12 56.01 57.27 58.99 60.30 59.25 59.37 59.83 58.66 57.71 58.09 58.01 57.82 58.02 58.97 59.86 60.52 59.42 58.15 58.51 57.41 56.98 57.13 56.88 57.03 57.11
42.85 44.50 46.16 45.69 44.63 43.71 44.39 42.84 43.31 43.04 45.71 46.61 45.30 43.58 45.24 48.69 52.19 53.49 54.94 55.97 57.11 58.50 59.09 58.81 57.53 58.25 59.09 56.92 57.64 57.18 58.07 57.69 58.28 59.57 60.01 59.16 58.66 58.57 56.76 56.43 56.11 56.95 57.02 57.67
43.29 46.40 44.52 44.13 42.74 44.78 41.35 46.08 44.66 43.52 42.61 39.33 45.06 38.06 44.45 47.76 49.29 51.13 52.69 55.41 56.51 57.68 59.57 59.61 58.19 58.38 58.75 58.61 57.66 57.52 58.40 57.84 57.97 58.95 58.63 58.90 57.90 55.25 57.00 56.03 56.47 56.59 57.12 57.01
41.40 42.55 42.36 41.42 42.52 45.22 42.87 46.42 44.33 44.27 42.89 42.48 42.57 39.33 44.03 47.19 46.93 49.55 51.94 53.70 56.53 57.78 59.23 59.24 58.89 59.09 59.31 59.62 56.17 57.84 58.88 58.05 57.92 57.88 59.11 58.72 57.39 57.92 58.56 56.81 56.28 56.27 57.27 58.39
42.82 47.32 45.40 44.41 45.61 46.27 46.73 44.18 43.74 43.89 42.37 36.02 41.17 40.46 42.08 44.88 47.65 49.60 51.15 52.52 55.16 57.73 58.79 59.82 60.23 59.86 59.37 59.98 58.72 58.24 57.94 57.91 59.11 57.81 58.05 58.31 57.14 56.20 56.22 56.18 55.85 56.10 55.78 55.91
40.19 41.40 45.53 46.15 42.05 45.06 44.81 42.59 37.23 35.19 35.04 34.76 42.44 40.75 43.23 47.87 50.09 51.03 51.37 52.68 54.97 57.61 58.64 59.23 59.08 58.91 58.87 58.64 58.84 57.66 58.42 57.24 57.97 58.71 58.12 58.73 58.03 56.28 56.32 56.88 56.76 55.44 55.66 55.93
33.44 32.59 41.01 45.12 43.89 40.93 41.77 42.65 38.09 31.21 34.15 37.97 42.17 38.23 44.07 49.63 51.64 52.62 53.49 53.98 54.99 56.35 58.50 58.97 59.62 59.53 59.38 58.55 58.31 56.68 58.54 58.86 59.11 58.37 58.89 59.24 58.60 58.32 59.42 60.53 60.24 58.60 56.96 57.54
34.63 35.27 44.02 44.81 45.53 45.37 41.15 38.65 44.46 39.22 40.42 36.72 41.15 43.82 47.81 49.80 50.24 51.24 52.15 53.68 54.50 55.88 57.88 58.94 59.70 60.10 59.91 59.11 58.56 57.58 57.92 59.49 59.94 59.72 60.30 60.30 60.74 59.93 59.97 60.32 61.21 60.27 60.04 60.01
40.01 34.60 41.22 43.34 46.39 46.97 45.71 47.28 38.76 40.05 31.53 31.38 38.54 40.19 42.36 45.70 47.91 50.13 51.38 53.07 53.78 55.81 56.84 58.75 59.57 59.92 60.34 60.04 59.61 58.48 58.47 59.01 59.77 60.07 60.48 60.04 60.15 60.41 60.58 61.25 60.93 61.19 61.23 61.15
41.21 39.28 39.10 42.25 40.87 41.30 42.69 41.63 42.97 43.30 40.82 34.85 34.04 39.78 47.75 47.31 49.48 49.95 51.50 52.83 54.30 55.71 57.25 58.18 59.26 60.17 60.69 61.01 60.06 59.05 58.58 58.61 59.58 60.05 60.24 59.64 60.05 60.59 60.79 60.86 60.77 60.74 61.18 60.64
43.52 40.52 37.06 39.45 44.04 45.90 44.48 42.61 43.21 38.07 36.96 39.74 39.25 39.90 49.21 50.27 51.44 52.09 52.50 53.28 54.38 55.32 57.33 59.33 59.69 59.80 60.10 60.22 60.30 59.55 59.12 58.86 59.51 60.00 60.22 60.26 60.35 59.63 60.65 61.02 61.38 61.82 61.12 61.22
42.69 38.88 33.31 35.42 40.80 44.06 42.48 43.77 43.74 43.66 42.56 38.25 36.47 40.26 49.31 49.86 49.59 51.04 52.42 53.28 54.07 54.83 55.53 58.28 59.83 59.62 59.64 59.98 60.09 59.84 59.84 59.65 59.80 59.73 59.89 59.83 59.69 59.39 59.12 59.19 60.25 60.12 60.00 60.42
43.29 40.51 36.86 32.50 36.00 40.48 38.48 40.64 42.59 42.07 37.65 38.46 39.37 41.27 45.44 47.22 47.96 49.16 51.18 52.86 54.21 54.94 54.84 56.01 58.99 59.73 60.33 60.17 60.20 60.04 60.15 60.25 60.14 59.61 59.12 58.86 59.38 59.83 59.46 59.57 59.29 59.59 59.31 58.85
42.10 35.57 37.56 39.19 40.24 39.77 39.36 39.39 40.44 39.15 40.62 37.41 40.16 40.94 44.47 46.98 48.30 49.63 50.94 52.07 52.80 53.26 54.11 54.99 56.11 59.39 60.43 60.47 60.58 60.42 60.48 60.10 60.26 59.59 59.15 59.59 59.28 59.64 59.71 59.30 59.39 59.75 59.75 58.93
41.05 36.12 37.83 35.07 39.15 39.19 37.27 40.19 41.05 41.28 41.48 41.77 42.67 42.05 48.40 49.62 50.45 49.79 50.13 50.38 50.69 51.74 53.44 54.50 55.35 56.22 58.53 60.08 60.68 60.43 60.38 60.18 60.11 59.40 59.55 59.87 59.73 59.21 58.90 59.32 59.49 59.58 59.63 59.29
35.95 37.72 36.06 31.99 37.51 37.66 33.55 38.60 40.44 41.89 44.66 44.10 40.33 43.29 47.24 46.96 47.50 49.32 50.68 51.34 51.34 51.76 53.40 54.30 54.91 55.00 56.40 58.61 60.54 60.62 60.64 60.97 59.89 59.56 59.71 59.75 59.83 59.11 59.21 59.07 58.76 58.24 58.54 59.13
35.79 36.27 36.38 33.04 34.66 26.18 38.56 43.66 44.49 43.39 43.56 45.69 45.17 45.79 48.29 48.99 50.63 51.97 51.90 51.95 51.73 52.39 53.21 54.67 56.02 55.89 56.66 57.90 59.65 61.00 61.40 60.23 59.76 59.52 59.51 59.71 59.28 59.04 59.23 58.95 58.47 58.68 58.69 58.46
39.48 36.85 33.71 30.77 30.86 35.17 37.89 40.68 41.06 40.30 39.94 45.77 45.03 47.03 49.10 50.68 51.62 50.88 52.40 53.04 52.52 53.12 53.80 53.64 55.30 55.68 55.83 56.14 57.72 59.84 60.77 60.36 59.53 58.91 59.03 59.14 59.16 58.54 58.52 58.29 58.26 58.72 58.48 58.39
38.88 39.08 34.86 32.69 27.47 25.86 37.04 43.47 46.80 45.20 36.34 45.86 46.82 46.18 46.33 48.86 45.15 48.63 52.23 53.28 53.60 54.53 55.35 55.26 55.55 56.16 55.96 56.00 56.51 57.41 58.90 59.45 58.72 59.07 59.31 59.87 59.71 58.83 58.44 58.45 58.17 55.97 56.85 54.12
30.94 32.54 29.56 31.22 30.60 34.75 41.68 44.01 46.99 34.62 37.16 45.54 46.70 46.23 45.82 45.28 46.99 50.70 52.39 52.93 54.21 54.59 55.19 56.15 56.41 54.89 55.86 56.83 57.29 56.62 57.30 57.86 59.68 60.38 60.15 59.48 59.10 58.06 57.25 55.95 52.57 48.91 44.08 40.96
32.43 31.27 30.91 32.03 29.09 27.33 44.67 43.82 38.44 42.82 46.17 46.94 47.65 48.08 48.09 49.07 49.75 49.73 51.69 52.51 53.11 53.10 54.88 55.77 55.22 53.73 53.48 55.37 56.58 56.82 57.21 58.36 57.73 57.35 56.63 56.74 56.64 52.68 50.95 47.65 44.80 42.04 39.58 36.24
32.64 37.23 34.75 36.44 36.32 44.00 45.64 44.62 47.08 47.57 46.36 47.14 47.75 48.68 48.85 49.08 49.45 50.75 51.24 52.21 52.72 53.35 54.62 54.78 53.88 51.31 50.54 51.67 53.67 54.49 52.63 54.49 54.77 53.70 51.13 48.42 47.27 45.55 44.94 43.53 40.76 37.93 38.01 35.85
39.25 42.45 38.32 37.59 41.59 42.99 44.44 46.34 46.97 46.74 46.10 47.61 47.23 46.78 48.79 47.90 50.17 50.84 51.56 51.56 51.19 52.50 52.99 54.11 53.05 50.25 47.08 48.06 47.94 49.95 49.18 49.88 47.18 44.40 42.28 41.38 40.27 39.29 38.19 37.79 37.79 36.54 34.74 32.95
39.81 40.79 38.19 38.50 41.53 43.02 44.46 45.06 45.31 45.12 46.50 45.79 45.16 44.19 43.53 43.07 45.02 45.49 46.75 45.98 46.23 48.14 49.44 50.74 50.10 46.61 44.82 44.12 43.14 43.97 45.16 45.18 42.12 40.04 39.13 37.15 35.50 33.64 31.76 31.59 33.98 33.58 34.13 33.84
41.39 39.30 37.32 36.18 41.19 40.32 41.63 44.42 43.05 43.16 43.51 43.43 42.00 40.85 41.08 40.16 40.13 40.65 40.37 40.78 40.61 41.60 40.90 39.50 38.35 38.56 38.62 37.34 36.76 37.49 39.76 40.34 38.17 35.79 34.99 33.83 33.16 32.63 30.99 29.56 29.03 30.90 31.07 31.22

GFSCGP_sfc_wetblb_081.txt.gz
Wetbulb
45.94 42.00 41.62 44.36 46.24 45.81 45.99 46.18 46.34 48.88 50.06 48.10 47.94 47.61 49.72 52.45 52.29 52.54 53.68 54.78 57.23 59.22 61.87 63.61 63.77 63.79 63.37 62.65 61.55 60.78 60.41 59.51 59.20 58.82 58.10 57.20 56.10 56.36 55.64 55.46 55.45 55.97 57.22 57.75
42.09 40.16 45.50 46.80 46.98 46.41 45.81 44.80 45.57 48.19 49.57 47.36 47.53 47.22 49.68 50.71 50.99 51.96 53.36 54.15 56.40 58.06 60.48 62.59 62.99 63.19 62.51 61.52 61.05 60.13 60.20 59.35 59.06 59.10 58.98 57.83 57.24 56.52 55.99 55.49 54.32 55.49 57.11 57.02
40.04 44.05 47.56 45.63 45.13 44.44 45.36 44.61 45.24 45.44 48.65 48.19 47.14 45.85 48.10 50.85 51.65 52.22 53.76 54.98 55.64 57.35 59.07 61.80 61.70 62.42 62.36 61.29 60.52 59.69 59.27 59.13 59.70 59.72 59.25 57.73 56.86 56.46 55.47 55.09 53.83 55.60 57.32 59.06
43.40 46.82 46.37 44.90 43.97 45.28 41.92 47.66 46.76 46.06 44.80 40.96 48.47 40.08 47.47 49.38 49.42 50.45 53.28 54.34 55.39 56.34 59.21 61.73 61.70 61.57 61.88 61.60 61.23 59.20 58.87 58.76 59.27 59.90 58.61 56.67 54.85 53.50 55.13 54.74 55.60 56.22 58.32 58.74
41.53 43.49 43.78 43.19 44.25 45.98 43.74 47.89 46.91 46.47 44.46 43.92 44.35 41.77 45.25 49.66 48.08 49.85 52.36 53.91 55.28 57.20 58.61 60.89 61.80 61.67 62.14 62.21 61.10 59.44 59.01 58.42 59.40 59.55 58.89 58.55 56.50 55.70 56.26 56.22 55.35 55.31 56.26 57.11
41.66 47.89 46.33 45.37 46.37 46.42 47.41 45.71 45.68 45.75 44.17 37.64 42.98 42.82 43.53 46.80 48.77 50.79 52.83 53.68 54.82 56.91 58.53 61.04 62.55 62.31 62.05 62.59 60.92 60.43 59.67 58.88 58.96 59.77 59.19 59.29 57.62 56.75 55.69 54.88 54.76 55.40 55.09 56.20
38.14 40.28 46.32 47.62 43.01 45.93 45.34 43.28 37.28 36.05 36.40 35.38 45.08 42.45 44.53 48.77 50.47 51.56 52.04 53.55 54.68 56.46 58.35 59.97 61.25 61.24 61.40 61.23 60.19 59.88 59.92 58.20 59.26 59.06 59.07 59.65 59.97 58.61 56.35 55.25 54.85 54.75 54.50 54.74
32.80 31.12 41.39 46.46 43.67 41.71 43.20 42.85 37.73 31.53 34.47 38.26 45.53 39.28 44.61 50.38 52.53 52.90 53.22 54.05 55.47 56.34 58.39 59.23 61.29 61.67 61.35 61.29 60.75 59.92 59.64 59.48 58.70 58.59 58.85 60.24 60.55 59.97 59.49 57.40 56.00 55.95 55.15 54.87
34.90 35.15 42.68 44.58 45.36 44.50 41.45 39.08 44.87 38.91 41.60 38.34 41.87 45.52 49.19 50.15 50.09 52.04 52.74 53.90 54.40 55.67 57.08 59.00 60.87 62.00 61.70 61.41 61.13 60.16 60.28 60.62 60.30 59.26 58.95 59.77 61.01 60.47 59.88 59.93 59.84 58.18 57.68 56.94
39.45 33.79 41.12 43.38 46.87 46.12 43.46 45.66 37.03 38.83 32.03 31.58 39.06 41.41 42.87 47.13 47.84 50.93 52.19 53.70 54.76 55.89 57.40 59.24 60.48 61.73 62.20 62.28 61.91 61.34 60.35 60.84 61.24 60.91 60.29 60.26 60.44 60.89 61.51 61.45 60.96 60.84 61.34 61.17
40.56 37.44 38.53 41.61 41.48 41.10 41.43 40.08 41.39 42.86 40.49 35.33 34.42 39.50 49.54 48.66 48.92 50.20 52.85 53.81 54.79 56.12 57.43 58.98 60.70 61.77 62.53 62.79 62.24 61.47 60.15 60.18 61.16 61.61 61.37 61.63 61.60 61.39 61.55 62.48 62.46 62.19 62.36 61.51
43.38 39.55 35.43 39.44 44.37 46.35 45.30 42.44 42.56 36.87 36.63 40.53 39.30 39.10 50.32 50.86 50.83 51.64 53.58 53.62 55.01 55.80 56.90 59.45 60.27 61.48 61.75 62.10 61.96 61.64 60.69 59.87 61.83 62.08 62.22 62.43 62.99 62.48 61.84 61.96 62.78 63.18 62.19 61.79
41.02 39.33 32.57 34.71 40.92 44.18 42.21 44.05 44.82 44.80 43.43 37.81 35.73 40.44 50.56 50.84 49.74 50.53 50.80 53.34 54.75 55.40 56.33 58.06 60.50 60.52 61.08 61.71 62.05 61.82 61.55 60.77 60.95 61.43 61.67 62.50 62.52 62.14 62.15 62.24 62.52 62.30 62.06 61.65
43.53 39.77 38.23 34.26 37.45 41.35 39.70 42.82 44.13 42.86 38.41 38.78 39.34 41.69 46.20 48.26 48.69 49.75 50.69 52.74 53.44 54.76 55.62 55.96 58.42 60.71 61.17 61.54 62.16 62.17 62.19 62.61 61.62 61.26 61.48 61.46 62.25 62.04 62.14 62.73 62.51 62.31 61.66 61.58
41.49 35.98 39.38 40.86 42.06 41.25 41.17 41.58 43.00 41.76 42.30 38.48 41.58 42.54 46.00 48.25 49.02 50.33 51.43 51.94 51.95 52.47 54.06 55.29 55.96 58.18 61.08 61.60 61.94 62.30 62.75 62.86 62.54 61.38 60.84 61.21 62.78 62.28 61.51 61.72 62.09 62.43 62.37 61.96
41.64 35.15 37.70 36.20 39.85 40.90 38.86 41.02 42.02 42.25 42.51 42.57 42.80 42.42 48.77 50.60 51.49 50.41 50.71 50.89 50.93 52.08 53.58 54.60 55.62 56.35 57.63 61.19 61.96 62.04 62.28 62.74 63.03 62.20 61.94 61.65 62.02 61.74 61.35 61.98 61.71 61.48 61.38 61.53
37.60 37.36 35.61 32.32 38.40 38.52 34.93 39.77 40.78 41.63 43.51 43.21 39.89 44.64 47.49 47.01 48.20 49.56 50.00 50.55 50.97 52.69 53.80 54.28 55.50 56.88 57.35 58.20 61.67 62.25 62.48 62.95 62.50 62.23 61.82 61.90 62.12 61.36 61.39 61.40 61.03 60.94 60.89 61.15
37.03 36.34 37.27 33.34 35.53 27.00 39.74 44.92 44.49 43.37 44.51 46.30 46.51 47.07 48.10 48.51 50.36 51.42 53.05 52.53 52.45 53.15 53.73 54.54 55.43 55.88 57.51 58.52 59.27 61.43 62.73 62.59 62.15 61.55 61.37 61.88 62.35 61.89 61.94 61.36 60.62 60.70 61.16 60.83
41.15 37.85 33.90 30.70 31.33 35.88 38.86 41.75 41.56 41.13 42.27 47.31 45.98 47.35 48.55 49.42 50.91 51.31 53.61 53.81 53.86 54.56 55.37 56.17 57.45 58.07 58.17 57.59 57.64 58.76 60.35 61.49 61.60 61.19 61.37 61.75 62.22 61.75 61.89 61.37 61.07 61.32 60.73 60.24
40.56 40.12 35.51 33.81 28.31 26.02 37.77 44.19 46.95 45.93 37.42 47.43 47.07 46.49 46.54 47.43 43.86 48.21 52.29 53.22 54.10 55.30 55.81 56.21 57.64 58.66 58.73 58.69 58.89 57.41 57.29 59.28 60.65 61.17 61.50 62.00 62.17 61.82 61.20 61.36 61.46 61.64 60.53 59.35
33.60 34.37 31.45 31.91 30.72 35.43 43.03 45.13 46.83 35.36 37.55 45.69 47.07 47.26 47.43 46.17 48.22 50.73 52.09 52.50 54.67 55.31 55.27 56.47 57.31 57.31 57.06 57.34 57.89 57.31 57.27 56.85 59.12 61.67 62.11 61.53 61.58 60.49 61.06 61.14 61.51 60.43 55.73 47.94
33.28 31.95 31.28 32.81 29.67 27.60 44.77 44.24 39.56 44.06 46.65 47.78 47.96 48.16 47.35 49.07 50.34 51.08 51.43 52.48 54.01 54.57 54.77 55.89 56.09 55.56 54.04 54.31 55.21 56.43 57.27 57.84 58.33 59.47 60.55 60.54 60.91 60.04 58.63 59.97 54.83 49.93 45.23 39.09
32.63 37.54 35.67 36.33 36.72 45.15 47.80 44.45 47.58 48.40 47.07 47.90 47.88 47.86 48.08 47.96 48.91 51.03 51.78 53.03 53.56 53.98 54.58 55.04 55.39 54.30 50.56 49.18 48.56 50.22 51.08 54.22 55.44 55.20 51.73 49.15 47.02 46.35 46.67 46.74 43.95 41.35 40.07 37.15
40.96 42.49 39.16 38.45 42.97 43.88 44.19 46.40 47.70 47.82 47.45 47.82 48.14 47.59 47.45 45.78 47.19 47.62 50.16 49.94 49.70 51.08 50.56 50.68 48.38 45.08 42.83 42.60 42.26 42.49 44.83 46.58 45.20 43.55 42.25 41.21 39.99 38.70 38.72 38.64 39.07 38.84 37.11 34.82
41.03 41.82 39.96 39.65 41.95 44.05 45.82 46.06 45.65 46.30 47.28 46.60 47.01 46.58 45.48 44.85 44.54 44.45 46.14 44.86 45.41 46.37 45.32 44.30 40.62 38.07 36.92 37.71 37.60 38.58 41.30 42.18 40.46 38.33 36.53 35.24 33.72 32.65 31.55 31.17 32.73 33.05 33.39 33.60
42.30 40.23 38.26 37.22 42.00 42.73 43.80 44.69 45.01 44.60 43.88 44.16 44.05 43.39 44.11 43.55 42.41 42.73 42.59 40.86 39.97 40.32 38.49 38.89 35.48 33.70 32.77 33.10 33.64 34.50 37.63 37.67 35.86 33.65 33.11 32.34 31.59 31.15 30.46 29.34 28.26 30.91 30.86 31.11

GFSCGP_sfc_wetblb_084.txt.gz
Wetbulb
44.87 39.02 37.12 41.05 46.13 45.89 45.25 43.30 42.71 45.78 49.59 48.75 47.39 46.92 48.73 51.60 52.21 52.50 52.99 53.81 54.34 56.87 60.23 62.47 63.09 63.20 62.90 62.88 61.65 61.03 60.67 60.73 60.53 59.40 57.41 56.55 55.63 55.75 55.14 55.86 56.05 56.18 56.13 56.84
42.34 37.38 42.54 43.81 44.48 45.15 44.53 41.72 42.29 46.59 49.06 48.37 46.85 46.13 49.06 50.70 51.00 52.01 52.11 52.63 54.06 55.95 58.27 61.56 62.39 62.48 62.23 61.53 60.92 60.51 60.14 59.91 59.37 59.09 58.34 57.18 56.27 55.83 55.02 55.24 55.14 55.39 55.30 55.94
39.33 42.26 43.75 41.94 42.58 41.20 42.66 42.00 42.90 43.17 47.05 48.74 46.92 44.41 46.77 50.07 51.77 52.52 52.77 52.95 54.21 55.18 56.96 60.85 61.56 61.80 61.83 60.62 60.14 60.04 59.38 59.27 59.14 59.13 58.25 57.00 56.32 55.20 53.63 53.34 53.77 54.84 55.52 55.78
40.80 44.40 41.30 40.11 40.31 43.08 39.03 45.80 45.25 44.51 43.41 40.08 47.43 37.78 45.61 48.66 49.89 51.61 52.32 52.65 53.57 54.95 57.49 60.77 61.39 61.31 61.33 60.78 60.79 59.70 58.89 58.81 59.08 59.52 57.19 55.86 53.72 51.92 52.92 52.37 53.27 53.67 55.45 55.92
39.45 40.58 41.45 39.34 42.02 44.98 41.32 46.37 44.96 44.58 42.87 42.80 42.77 39.95 43.45 48.39 47.22 49.57 51.13 52.15 54.66 55.67 56.58 59.39 61.44 61.57 62.15 61.55 60.05 59.58 58.27 58.79 59.27 59.23 57.22 55.67 54.21 53.25 53.65 52.41 51.62 52.70 55.30 56.83
41.21 44.87 41.90 43.52 45.36 46.35 46.39 44.29 43.45 43.84 42.61 36.14 41.54 40.56 41.24 44.92 48.00 49.88 51.84 53.35 54.82 55.32 56.58 58.44 62.24 62.04 61.50 61.46 59.96 58.43 57.72 57.89 59.06 58.91 57.28 56.10 54.84 53.77 53.13 52.21 51.11 52.47 54.47 55.74
38.26 39.21 42.77 43.75 41.62 45.21 43.89 40.32 31.92 30.71 33.14 33.28 42.64 40.65 42.77 48.18 50.49 51.50 52.09 53.08 54.87 56.56 57.01 57.92 60.69 60.49 60.67 60.29 59.53 58.19 57.55 56.83 58.20 58.86 58.10 57.16 55.69 54.90 53.94 53.25 52.59 52.50 53.17 53.74
31.83 31.29 39.97 43.61 41.15 40.42 41.24 40.45 33.66 28.74 31.42 35.18 42.97 38.17 43.58 50.44 51.85 52.65 53.27 54.92 56.65 55.39 57.60 58.11 60.47 60.68 60.57 60.43 59.26 58.49 57.98 57.42 57.68 58.47 58.25 58.95 57.20 56.07 55.45 55.05 54.39 53.58 53.63 53.67
32.66 34.24 43.27 43.69 43.91 43.68 40.04 37.29 43.03 36.44 37.18 34.09 40.63 44.36 48.55 50.15 50.26 51.28 51.77 53.46 53.87 55.25 56.41 57.37 59.91 61.01 60.77 60.41 59.56 58.35 58.53 58.61 57.76 57.76 58.54 58.76 58.56 57.28 56.51 55.78 55.49 54.74 54.69 54.76
37.94 31.42 40.83 43.50 44.25 44.28 42.25 44.77 35.11 36.25 29.49 30.08 37.67 40.35 41.65 46.25 47.76 50.23 51.51 53.57 55.14 56.40 56.17 56.81 58.13 60.95 61.22 61.04 60.77 59.19 59.42 59.17 58.52 58.10 58.53 58.59 59.04 58.68 57.89 57.69 56.05 55.07 55.22 55.22
39.95 36.94 35.41 39.66 38.78 38.18 39.44 37.75 38.88 39.34 37.42 33.12 32.78 37.52 47.70 47.96 50.04 50.74 52.54 53.60 54.65 56.48 57.57 58.21 58.66 61.44 61.64 61.73 61.19 59.89 59.47 59.21 59.47 58.59 58.23 58.06 58.91 59.66 59.19 58.61 58.04 56.50 55.64 55.68
43.01 39.19 32.27 34.96 42.75 44.99 44.08 40.92 39.44 34.83 35.35 37.71 36.07 36.94 49.93 50.99 50.84 51.58 51.81 52.49 54.71 56.18 57.32 59.03 59.67 60.29 61.21 61.39 61.24 60.31 59.57 59.00 60.08 60.07 59.12 58.42 58.76 58.82 59.04 58.85 59.14 58.46 56.75 56.53
39.25 36.91 30.40 33.35 38.61 42.84 40.12 41.94 42.07 40.66 40.18 35.94 33.66 37.43 50.00 50.84 50.30 50.93 50.61 51.70 52.83 54.26 55.55 57.83 59.31 59.62 60.57 61.23 61.28 60.79 60.35 59.38 59.43 60.82 60.03 59.40 59.10 58.95 58.85 59.06 59.78 59.59 58.66 58.14
41.68 37.31 35.27 30.79 34.27 39.08 37.17 39.96 42.60 41.09 35.74 36.16 36.79 39.40 44.62 47.22 48.24 50.18 51.62 52.76 52.14 53.16 53.88 54.61 57.28 59.47 60.10 61.08 61.39 61.37 61.11 60.78 59.69 59.91 60.37 59.66 59.64 59.85 59.47 59.48 59.31 60.11 60.36 59.60
40.05 33.88 36.68 37.87 39.39 39.50 39.81 38.77 39.64 39.34 40.45 36.60 39.61 40.64 44.19 47.24 48.87 50.21 51.40 51.62 51.46 51.79 52.78 53.83 54.45 55.57 59.85 60.17 61.08 61.69 61.72 61.51 60.73 59.15 58.95 59.42 60.09 60.37 60.67 60.30 59.75 59.75 59.93 60.12
40.37 33.44 36.32 34.18 39.66 39.45 37.36 39.61 40.26 40.85 41.26 42.09 42.23 41.72 48.21 50.08 49.98 50.14 50.22 50.47 50.38 51.58 52.95 53.98 54.64 55.01 55.52 56.80 60.29 60.99 61.51 61.70 61.47 60.01 59.03 59.59 60.08 60.31 59.94 59.62 59.62 59.52 59.47 59.44
37.19 35.29 33.84 30.12 37.06 37.56 33.74 38.65 40.39 40.98 42.53 42.14 38.36 43.73 48.06 47.38 47.82 48.65 49.52 51.16 50.95 51.96 52.74 53.70 54.37 54.96 55.52 55.71 57.23 60.60 61.36 62.03 61.81 60.79 60.85 60.38 59.87 59.55 59.97 59.71 59.06 59.04 59.07 59.29
35.95 35.22 34.76 30.97 33.53 26.21 38.43 44.40 44.09 42.27 43.26 44.33 44.89 45.79 47.22 47.83 49.31 51.09 52.01 51.08 51.33 52.29 53.12 53.89 55.05 55.82 56.91 57.35 57.45 57.76 58.75 61.42 61.22 60.93 61.00 61.27 60.68 59.69 59.71 59.65 58.81 58.32 58.54 58.25
40.11 36.48 32.71 29.78 29.69 34.24 37.43 41.00 40.42 39.63 39.67 46.36 45.51 45.82 46.80 47.95 48.81 49.28 51.25 51.61 51.67 52.71 53.52 53.71 55.38 56.38 56.68 56.55 56.94 57.20 57.44 56.56 60.60 60.71 60.79 61.14 60.95 60.23 59.88 58.93 58.60 58.80 58.36 57.93
39.43 39.86 34.07 32.88 26.56 24.68 36.15 41.76 46.28 45.16 35.14 45.73 46.07 45.00 45.53 46.63 41.53 45.26 50.08 50.91 51.27 53.23 54.57 54.24 55.90 56.09 54.48 54.27 55.13 55.67 56.88 57.28 57.02 58.40 60.81 61.36 61.14 60.33 59.72 59.68 59.09 58.82 59.01 58.26
32.91 34.20 30.67 30.79 29.26 34.06 41.28 44.82 46.40 34.48 36.41 45.94 46.70 46.01 45.98 44.11 46.07 49.29 51.38 51.34 52.68 53.71 54.19 55.13 55.65 52.74 50.82 49.81 50.67 53.62 53.77 52.41 55.36 57.76 58.05 58.96 60.88 60.22 60.15 59.58 59.45 59.00 58.29 52.01
32.53 30.86 30.21 31.93 28.96 26.80 44.65 43.33 38.61 43.33 46.30 46.12 46.53 46.09 45.65 46.39 47.48 49.00 50.18 50.97 51.64 51.84 52.41 52.83 52.50 49.04 45.56 44.52 44.18 45.56 45.24 47.81 50.42 52.77 50.68 49.54 50.07 52.78 55.81 56.42 49.67 47.85 44.79 39.67
32.32 36.28 33.68 34.56 34.33 43.31 46.60 45.68 47.23 47.42 46.09 45.88 45.63 45.98 45.99 45.56 46.05 46.91 47.69 48.22 48.33 48.24 47.32 47.15 45.85 44.51 42.09 40.63 39.72 38.89 40.73 44.63 44.54 42.85 41.61 41.03 41.94 41.89 42.59 46.41 44.98 42.07 40.25 36.99
39.66 42.37 36.64 37.66 40.43 42.24 44.20 45.34 46.22 46.65 45.28 45.86 46.15 45.75 45.35 43.78 44.58 44.12 45.79 44.22 44.55 44.44 42.06 42.21 40.21 37.84 35.93 36.63 36.17 35.80 37.86 41.53 39.15 37.14 36.02 34.89 33.91 33.63 34.15 35.55 36.19 36.31 35.58 34.13
39.41 40.08 38.82 39.02 40.86 42.18 41.98 43.24 43.88 44.44 44.46 43.76 44.99 44.16 42.98 42.79 42.19 42.32 42.23 39.86 39.64 39.20 37.65 37.57 35.32 33.97 32.68 33.36 33.15 34.46 36.18 38.02 36.69 34.76 33.60 32.52 31.81 30.81 29.34 29.09 30.05 31.57 31.86 33.83
40.45 37.38 37.23 35.96 38.83 39.28 38.70 41.45 43.07 42.30 41.83 41.98 41.59 41.18 41.90 40.39 39.77 40.26 39.20 36.16 35.27 33.64 32.97 31.48 30.63 30.09 29.73 30.06 30.17 31.71 34.93 35.57 34.55 32.79 31.85 31.30 30.86 30.14 29.28 27.68 27.37 30.62 30.31 30.43

GFSCGP_sfc_wetblb_087.txt.gz
Wetbulb
40.78 33.42 30.89 35.94 39.89 42.87 42.75 41.08 40.01 41.78 46.44 45.42 44.88 44.88 45.82 46.18 45.96 47.27 47.69 48.34 49.82 52.40 55.35 57.94 59.12 59.14 58.73 58.93 59.75 59.29 58.49 58.05 59.39 57.91 56.28 55.80 54.94 55.28 55.72 56.24 57.54 59.86 59.60 59.32
37.28 33.39 37.90 40.92 42.07 41.48 40.67 39.01 38.00 43.10 46.27 45.15 43.70 43.86 44.47 46.08 46.05 46.89 48.93 47.90 49.13 49.23 54.94 57.47 58.23 58.57 58.25 58.34 59.06 58.41 58.29 57.98 58.79 58.11 57.28 56.76 55.63 55.39 55.33 55.57 56.20 57.85 58.37 58.53
36.46 40.30 44.13 41.97 40.07 38.06 37.08 36.64 36.89 39.61 43.83 45.43 43.84 41.90 45.05 47.20 47.72 48.54 48.54 48.81 50.23 49.33 54.14 57.24 57.66 57.51 57.15 56.87 57.73 57.72 57.42 57.49 58.62 58.69 57.53 56.38 55.29 54.38 53.72 53.80 54.15 55.92 57.82 58.48
39.59 43.59 42.15 40.58 38.38 39.02 34.22 41.48 42.35 41.60 38.91 34.02 43.00 33.58 42.59 45.42 46.23 47.92 49.16 47.73 46.88 48.30 55.36 57.93 57.51 57.01 56.68 56.58 58.05 57.70 57.37 57.56 58.32 58.74 56.58 54.76 53.32 52.38 53.02 53.29 54.02 54.26 55.96 56.65
37.43 40.22 39.63 38.76 39.28 40.55 37.34 43.47 42.39 40.94 38.86 38.75 38.83 36.03 40.43 45.71 44.56 46.09 48.27 49.72 47.64 48.33 56.90 57.39 57.68 58.00 57.53 57.15 57.08 57.30 57.58 58.01 58.41 58.15 56.85 55.03 53.48 53.92 52.96 52.92 52.98 53.76 54.04 54.24
39.50 43.09 41.26 41.27 42.79 42.30 43.37 41.20 41.74 40.85 38.83 32.68 37.14 36.07 37.06 41.71 44.59 46.92 48.77 49.16 49.36 49.05 56.59 58.21 58.79 58.64 57.53 57.19 56.14 56.30 56.51 57.60 58.51 57.94 56.77 55.27 53.80 52.71 51.37 51.16 51.63 52.40 53.54 53.85
35.96 37.45 41.45 43.26 38.07 41.79 42.24 38.55 32.46 30.44 30.54 28.39 39.40 36.05 38.56 44.79 47.65 48.51 48.75 48.88 49.48 50.47 53.50 57.34 57.33 57.63 57.16 56.23 55.58 55.75 56.16 56.97 58.26 57.91 56.63 55.78 54.57 53.33 52.22 50.99 51.40 51.71 52.87 52.64
28.26 28.64 37.67 42.58 38.97 37.90 39.45 38.57 32.97 26.09 27.28 31.41 40.30 34.14 39.07 47.25 49.32 50.02 49.58 48.95 49.47 49.91 55.57 57.53 57.75 57.79 57.14 56.15 55.37 55.62 55.74 56.30 57.60 57.79 56.79 56.48 55.46 53.91 53.44 52.21 51.66 52.26 52.91 53.32
30.08 32.27 41.75 42.71 42.89 41.42 38.11 35.09 40.52 34.17 35.48 32.40 35.53 40.65 45.74 47.27 48.10 48.47 47.71 48.57 48.30 49.97 55.41 57.20 57.85 57.85 57.40 56.32 55.43 55.14 55.38 55.98 56.98 57.96 57.30 56.61 55.94 54.22 53.80 52.67 52.51 52.56 53.00 53.94
35.00 29.52 39.10 41.44 43.10 43.29 39.81 42.65 34.50 34.82 27.32 27.55 34.46 37.08 38.25 44.15 45.15 47.56 47.75 48.33 49.85 49.79 51.38 56.97 57.83 57.73 58.14 57.43 56.55 55.69 55.98 55.90 56.47 57.67 58.09 57.76 56.49 55.35 54.62 53.95 53.36 52.61 52.71 53.91
37.80 34.16 33.94 38.74 37.00 36.37 37.21 36.07 38.25 37.58 36.16 31.65 30.31 35.50 45.17 45.01 47.03 47.70 47.52 48.52 50.11 52.11 52.32 51.90 57.97 58.18 58.35 57.89 56.64 56.19 56.30 56.47 56.10 56.37 58.02 58.00 58.05 56.53 55.42 54.72 54.34 53.78 53.37 53.53
38.67 36.41 30.32 33.17 40.56 42.51 40.39 37.51 38.90 34.50 31.80 36.20 35.50 35.19 47.64 47.29 48.56 47.75 47.11 48.97 50.45 50.31 52.40 53.18 57.51 57.78 57.61 57.60 56.83 56.18 56.58 56.94 56.66 56.71 56.82 57.37 58.03 58.12 56.91 56.39 55.47 55.36 53.88 53.81
36.51 35.11 29.26 31.76 36.40 40.68 37.26 39.58 40.33 39.50 38.07 34.63 31.52 35.70 47.73 48.06 48.06 49.26 47.71 48.69 49.35 49.92 50.31 50.31 54.87 57.21 57.53 57.72 57.53 56.61 56.78 56.84 57.27 56.98 56.53 56.51 56.81 57.65 57.90 57.34 57.42 56.90 55.33 54.07
40.59 35.00 32.93 29.21 33.50 35.51 35.76 38.24 39.94 38.77 34.15 33.78 36.48 38.33 42.65 44.22 46.28 48.09 48.76 48.49 48.22 50.29 51.51 51.96 51.19 53.45 56.83 58.27 58.18 57.89 57.15 57.36 57.45 57.50 56.56 55.92 56.04 56.48 57.12 58.52 58.24 58.52 57.61 55.65
38.01 31.60 34.73 35.90 37.62 37.30 36.12 36.82 37.97 37.24 37.87 35.36 37.85 38.48 42.43 44.48 46.66 48.23 49.81 49.73 50.18 50.67 51.42 51.93 52.01 50.91 51.69 54.01 56.26 58.41 58.38 57.84 57.51 56.89 57.67 56.62 56.78 57.11 57.13 56.84 57.53 58.27 58.32 57.30
38.02 31.90 33.90 31.54 36.68 37.86 36.11 38.21 38.12 37.52 39.41 39.87 39.94 39.29 46.58 47.57 48.64 47.94 48.93 48.87 48.83 49.84 50.84 52.54 53.00 54.20 53.52 53.87 53.91 56.20 58.18 58.43 58.25 57.03 56.66 57.94 58.02 57.82 57.41 57.42 57.46 57.55 57.84 58.53
34.89 33.39 31.66 28.52 35.00 34.29 31.13 37.16 38.44 39.00 40.74 40.34 36.30 41.19 46.45 46.15 46.61 46.76 46.20 48.46 48.67 49.48 50.20 51.35 52.08 53.49 53.42 53.48 54.61 54.37 55.32 57.72 58.75 57.70 57.46 57.27 57.81 58.06 58.27 58.50 58.14 57.55 57.09 57.40
33.58 32.66 33.28 26.73 29.78 23.54 37.35 43.26 43.15 40.76 42.15 43.59 43.43 43.55 44.94 46.75 46.82 46.63 47.48 46.95 48.50 50.00 50.43 50.61 52.51 52.18 51.79 51.34 51.91 54.11 55.60 55.99 56.62 58.61 58.40 58.04 57.46 57.48 58.08 58.21 57.93 57.81 57.77 57.38
36.91 33.14 26.93 25.45 26.83 31.86 35.34 39.32 39.34 38.11 39.04 44.20 42.89 43.99 45.18 46.50 46.25 44.82 48.15 48.36 47.96 49.47 50.37 51.55 51.15 49.73 48.61 47.98 48.83 53.13 51.18 51.36 52.50 54.78 54.98 56.25 58.48 57.74 57.29 57.08 57.61 57.85 57.22 57.09
36.38 35.36 30.27 26.92 25.14 20.82 33.81 41.55 44.95 44.59 34.23 44.27 44.53 43.58 44.02 44.77 38.14 41.70 48.23 48.88 49.48 49.36 50.25 48.99 47.11 45.48 44.08 44.37 46.51 47.44 46.75 47.78 48.69 51.43 51.30 51.01 49.60 56.48 58.21 57.46 57.27 57.74 57.39 56.97
29.15 29.25 27.44 26.97 26.21 30.93 40.04 43.30 45.48 32.96 34.05 43.01 43.72 43.19 42.79 41.04 43.06 45.41 47.87 46.96 46.32 45.47 44.58 46.88 44.03 40.98 40.51 41.31 42.91 43.17 43.27 42.30 45.80 47.45 45.55 44.64 44.33 46.41 48.60 53.80 57.22 56.42 56.59 56.16
29.42 27.59 27.02 28.14 24.76 23.27 43.01 43.13 37.37 41.13 44.10 43.53 42.70 42.77 42.91 43.72 43.89 44.62 43.98 43.79 42.08 40.75 40.59 40.88 39.82 38.70 38.12 38.34 38.20 38.69 38.12 40.50 42.97 41.87 40.24 39.27 38.17 38.68 41.43 42.44 45.33 46.21 47.60 43.57
29.33 33.11 29.62 30.95 30.25 40.52 43.25 42.49 44.27 44.99 42.29 42.70 41.81 42.51 43.02 41.91 41.58 42.61 40.57 39.97 39.11 37.33 36.93 37.40 36.90 36.20 35.30 35.25 35.33 34.55 36.16 38.97 39.43 37.93 36.18 35.03 33.97 32.70 33.91 35.28 36.04 38.57 40.06 39.63
36.41 40.61 34.26 34.22 39.07 39.65 40.60 42.90 43.14 42.90 41.34 42.31 42.08 41.50 41.27 40.05 40.09 39.70 37.84 36.73 35.06 33.98 33.31 34.06 33.97 32.51 31.38 32.25 32.43 32.63 35.17 37.74 36.78 34.90 33.44 32.90 30.95 30.21 30.21 31.28 31.68 30.48 32.41 34.69
38.17 39.11 37.18 37.23 38.29 38.88 39.99 40.55 42.42 41.82 41.81 41.22 41.51 39.84 37.70 38.39 38.01 36.88 34.36 33.34 32.44 31.02 31.48 31.26 30.01 29.37 28.68 29.83 30.13 31.19 33.00 35.66 34.55 33.23 32.76 31.11 29.58 29.40 28.74 28.85 29.13 29.42 30.08 31.58
36.75 34.13 33.78 31.03 35.91 37.63 36.62 37.95 40.23 38.55 38.07 37.63 35.95 34.84 34.43 33.71 33.93 35.77 31.92 31.62 30.00 28.46 28.28 27.55 27.02 26.96 26.72 27.63 28.17 29.52 32.05 32.89 32.63 31.06 30.36 30.19 29.38 28.82 28.38 27.65 27.47 30.75 30.57 31.14

GFSCGP_sfc_wetblb_090.txt.gz
Wetbulb
39.17 32.23 29.89 34.01 36.90 39.45 39.12 37.96 36.55 38.85 43.84 41.96 41.65 41.32 43.47 46.17 47.40 46.36 46.19 45.65 46.98 50.64 53.87 56.49 58.58 58.62 60.13 60.25 60.07 59.31 57.88 58.22 58.15 56.70 56.29 55.69 54.99 55.51 56.03 56.13 58.11 61.53 62.40 61.53
35.65 30.97 35.75 37.96 38.90 38.41 38.02 35.61 35.83 40.05 43.95 43.05 41.57 40.78 44.17 46.47 46.82 46.37 46.46 46.40 48.42 48.87 51.42 56.09 57.33 57.06 59.02 59.01 59.15 58.29 57.95 58.28 57.83 56.62 57.05 56.65 55.62 55.40 55.38 56.00 57.44 60.68 60.50 61.53
32.65 37.89 41.09 38.47 36.60 35.93 35.84 34.50 34.78 36.03 41.76 42.78 39.76 37.81 41.35 46.15 46.90 46.83 47.18 49.11 49.45 48.97 50.92 55.29 56.13 56.28 57.71 57.95 58.03 57.73 57.91 57.47 57.60 57.19 57.10 56.14 55.00 54.47 53.80 54.02 55.67 58.42 59.71 59.68
37.80 42.77 41.34 39.55 38.29 38.40 32.95 39.16 38.93 38.67 37.29 31.60 41.97 31.33 39.22 43.21 44.79 47.48 46.29 45.57 47.51 48.09 52.08 55.97 56.20 55.17 56.98 57.53 58.06 57.65 57.49 56.90 57.53 57.31 56.25 54.62 53.42 52.70 53.58 53.73 54.41 56.90 58.54 58.58
36.67 39.52 38.54 37.34 38.99 40.66 36.37 40.65 39.20 39.18 37.54 36.35 37.39 34.28 37.02 43.26 42.61 45.74 48.29 47.70 47.23 45.99 52.15 55.43 56.10 56.15 56.69 57.38 57.27 57.15 56.83 56.47 57.19 57.13 56.36 54.71 53.69 54.08 53.81 53.34 53.49 54.22 56.20 57.37
37.92 41.97 40.41 39.27 41.34 42.20 42.88 39.66 39.81 39.49 38.23 30.15 35.39 35.14 34.92 39.44 43.26 46.35 48.42 47.78 48.39 47.53 52.54 56.30 57.21 57.01 55.66 56.79 56.45 56.34 55.98 55.68 56.97 56.93 56.24 54.88 53.83 52.85 52.24 52.24 53.00 53.14 53.59 54.06
34.62 35.69 39.43 42.34 37.57 40.37 40.53 37.42 30.77 28.73 29.58 26.58 38.45 35.95 36.91 44.03 46.52 47.53 48.12 48.29 48.81 48.91 54.11 55.75 55.48 54.91 55.10 55.26 55.62 56.00 55.74 55.40 56.65 56.66 56.03 55.34 54.56 52.62 52.45 51.81 52.70 52.58 52.76 52.58
26.11 25.51 35.76 40.76 37.70 35.74 36.17 37.47 32.73 24.32 25.98 29.01 37.97 32.24 37.04 45.97 48.28 49.53 50.19 49.00 49.03 48.80 55.08 55.85 55.84 55.35 55.01 55.08 55.18 55.72 55.42 55.48 56.63 56.80 55.77 55.69 55.01 52.48 51.86 52.39 52.95 53.11 53.39 53.71
27.66 30.22 39.25 40.66 41.43 40.09 36.16 34.11 39.44 33.81 35.06 30.89 32.95 37.92 44.29 47.30 47.65 48.96 48.66 47.37 44.99 50.02 55.04 55.72 56.32 56.01 55.42 54.75 54.98 55.20 55.34 55.77 56.59 56.58 56.21 55.67 55.18 53.24 52.58 52.43 53.12 53.48 53.97 53.92
33.08 27.44 36.63 40.05 41.53 41.42 38.75 41.52 34.02 34.71 26.56 26.39 32.36 34.72 37.79 43.08 44.84 46.43 46.51 47.15 46.35 51.58 55.23 56.16 56.68 56.58 56.37 55.65 55.49 55.45 55.51 55.22 56.72 57.08 56.72 56.27 55.84 54.67 54.26 53.23 50.54 51.59 52.66 54.05
34.85 31.57 31.91 36.51 35.86 35.73 37.17 36.26 36.13 37.09 34.84 29.09 28.75 35.23 44.55 44.20 46.23 46.10 47.56 48.15 48.15 50.30 53.40 55.99 56.89 57.24 56.72 56.03 55.15 55.04 54.85 54.94 55.33 56.84 56.77 56.53 56.20 55.38 54.41 52.62 51.49 51.09 51.64 52.31
35.79 33.54 26.92 30.76 38.17 42.60 40.36 37.93 37.25 33.69 30.82 34.71 34.76 34.06 47.36 46.57 46.92 47.63 47.85 49.08 48.90 47.69 48.86 54.08 56.51 56.87 56.13 55.39 54.90 54.76 54.93 55.02 55.43 56.33 57.09 57.08 56.83 56.07 54.61 53.26 52.64 52.52 51.47 52.09
35.33 32.65 27.58 29.49 35.94 39.97 36.33 38.20 38.50 38.62 37.30 33.16 30.63 33.69 46.74 47.04 46.72 48.35 48.03 48.25 49.78 49.99 50.14 52.03 54.59 55.41 55.94 55.50 55.46 55.38 55.29 55.24 55.72 56.04 56.35 56.52 57.46 56.57 55.46 54.67 53.76 53.61 52.67 52.18
39.28 32.89 31.35 27.98 31.47 36.16 33.76 35.16 37.94 37.43 33.34 32.13 34.91 37.05 42.50 43.80 44.48 47.64 48.33 48.81 48.78 50.37 51.31 50.78 50.60 53.75 55.54 56.26 55.98 55.59 55.45 56.09 56.26 55.96 55.38 55.61 55.73 56.69 56.86 56.37 55.59 54.42 53.96 52.94
35.87 28.87 33.80 34.66 35.53 36.90 36.61 35.59 36.51 35.94 36.79 34.85 36.79 37.76 41.74 44.27 45.48 48.06 49.20 49.17 49.32 49.86 51.10 52.06 51.56 51.88 52.76 53.74 55.54 57.20 56.42 56.11 56.30 55.93 55.57 55.16 55.75 56.14 56.75 57.26 56.92 56.63 55.28 54.19
36.63 28.38 31.50 30.24 35.37 35.22 33.17 37.27 37.44 37.18 38.32 38.87 38.94 38.64 44.78 46.51 48.72 47.09 48.16 48.61 48.32 49.76 51.16 52.01 52.12 51.86 51.31 51.87 52.66 53.81 56.58 56.95 56.83 56.21 55.66 56.27 55.93 56.06 55.84 55.98 56.80 56.73 56.47 56.31
33.37 31.68 29.32 26.55 33.45 31.74 29.07 35.78 37.50 37.39 39.78 37.76 34.33 39.80 45.51 45.32 45.98 46.53 46.55 47.09 47.73 49.11 50.70 50.46 49.80 49.13 48.97 49.22 51.52 51.68 53.03 54.80 56.94 56.61 56.70 57.05 56.88 56.11 56.02 56.34 56.26 56.17 56.68 56.80
31.78 30.56 30.07 25.73 28.72 20.34 34.47 40.12 41.30 39.34 41.52 41.46 42.50 44.01 45.23 44.38 45.58 46.38 47.45 48.02 48.22 49.13 47.99 46.66 46.00 45.41 45.60 46.77 48.43 48.79 49.56 50.13 51.94 52.99 54.55 55.01 56.40 57.19 57.32 56.82 56.23 56.13 56.22 56.06
35.72 30.92 24.90 23.62 24.77 29.89 33.42 37.80 38.40 37.33 38.01 43.30 42.36 43.90 43.95 45.41 45.36 43.50 45.13 45.42 46.14 45.62 44.60 43.19 42.92 42.44 42.18 42.27 45.42 46.71 45.73 46.47 47.27 47.55 47.66 48.73 49.62 51.47 54.69 56.73 57.00 57.23 56.83 56.57
34.70 33.22 27.54 24.91 23.15 19.18 32.06 40.21 43.71 43.46 33.48 43.74 43.26 42.68 43.07 43.98 37.55 40.16 42.54 42.58 41.55 42.04 42.44 40.31 40.20 39.50 38.59 38.93 42.21 42.66 42.09 42.85 43.32 44.00 43.95 44.25 44.40 46.81 47.14 48.76 53.05 57.73 57.90 57.26
28.84 27.43 25.86 25.17 23.25 28.77 38.44 41.53 44.24 31.77 33.55 42.30 42.48 42.22 42.05 39.90 41.49 41.69 41.41 39.71 39.70 38.66 38.54 39.41 38.27 36.63 36.34 37.15 39.49 38.96 39.05 38.54 41.15 41.50 40.66 39.83 39.24 41.20 41.53 43.48 44.50 45.30 49.14 56.51
29.17 27.80 26.31 26.03 25.43 22.49 40.92 42.14 35.98 39.16 41.62 41.64 41.73 41.45 40.14 41.06 40.32 39.51 38.21 36.26 35.57 34.44 35.34 36.58 35.95 34.68 34.34 34.79 34.99 35.44 35.03 37.68 39.61 38.27 36.55 35.19 34.60 35.55 36.55 37.93 38.57 39.21 40.99 40.91
30.33 32.64 28.80 29.76 28.80 39.58 41.08 39.76 41.87 42.22 40.45 40.60 40.26 41.11 39.99 38.96 37.20 36.44 34.81 33.63 32.19 32.15 32.46 34.07 33.57 32.98 32.10 32.28 32.39 31.78 33.01 36.31 37.27 35.53 33.11 31.70 30.74 31.09 31.79 32.11 32.86 35.78 37.53 36.33
34.78 37.80 34.42 35.04 37.95 37.76 40.52 40.54 41.16 41.40 39.89 39.21 38.38 38.10 38.84 37.11 36.11 34.25 33.22 31.73 30.44 30.27 30.26 31.10 30.77 29.22 28.71 30.14 30.50 30.86 32.57 35.37 34.85 33.26 31.32 30.08 29.56 29.01 29.71 30.24 30.23 29.79 32.10 32.31
36.11 37.97 33.71 36.31 37.96 38.07 38.48 39.21 39.76 38.90 37.77 36.61 35.10 33.28 32.58 33.62 33.04 31.46 29.68 29.22 28.49 28.20 28.88 28.38 27.45 27.09 26.86 28.41 28.92 30.44 31.40 33.14 32.71 31.54 31.19 29.51 29.26 28.62 28.08 28.73 29.23 29.29 29.91 30.04
33.30 31.46 31.40 29.11 34.14 35.84 34.94 36.69 38.05 36.08 34.59 33.45 32.36 30.27 29.42 29.44 28.42 28.02 26.21 26.72 26.06 25.87 26.21 25.54 25.60 25.94 26.44 27.13 27.72 29.07 30.81 30.71 30.56 29.18 28.83 28.69 28.33 27.42 27.13 26.95 27.06 30.51 30.59 31.29

GFSCGP_sfc_wetblb_093.txt.gz
Wetbulb
37.44 32.54 29.49 31.83 35.87 37.89 37.70 35.55 33.86 35.70 41.95 41.08 39.26 38.54 41.84 43.48 44.36 44.24 44.91 45.59 45.67 45.88 48.33 53.22 58.17 58.45 59.45 59.11 59.28 59.40 58.59 58.96 58.87 57.59 55.66 55.60 55.76 55.72 55.72 55.52 56.16 60.68 62.42 61.86
33.98 29.28 34.22 36.00 36.31 36.12 35.84 33.80 33.44 37.92 42.10 40.38 38.05 37.99 41.66 43.91 43.49 45.22 45.94 45.98 46.63 47.28 49.26 53.33 57.14 57.30 58.89 59.42 59.81 59.26 58.82 58.66 57.87 57.77 56.39 55.75 55.25 55.76 55.82 56.10 55.92 57.27 61.58 61.96
31.59 35.85 39.35 36.09 33.67 33.18 32.09 31.79 32.96 34.54 38.63 39.56 37.76 36.87 39.77 44.76 45.30 46.20 47.03 47.71 47.99 47.90 48.99 53.89 55.84 56.49 58.53 59.04 59.09 58.72 58.57 58.10 57.73 55.81 55.02 54.54 54.40 54.50 54.06 54.38 55.76 57.37 60.41 61.39
34.63 39.99 40.26 38.02 36.86 37.28 32.13 37.81 37.36 36.06 34.83 28.79 38.44 28.56 37.76 41.55 42.97 45.18 46.76 46.50 48.04 46.99 50.32 54.61 55.45 55.99 57.70 58.20 58.78 58.06 58.64 57.81 57.19 55.60 54.16 53.98 53.28 51.89 53.53 53.98 54.87 57.35 59.58 60.54
35.96 38.65 37.71 36.69 37.60 39.70 35.75 39.95 37.67 36.20 34.51 33.55 34.54 31.18 35.00 40.88 40.40 43.16 45.95 47.76 47.93 48.30 49.61 53.89 55.20 56.10 57.68 57.88 57.73 58.08 57.55 56.98 56.27 55.15 54.77 53.56 52.76 52.63 52.58 53.55 54.17 56.06 57.57 58.71
36.95 41.26 39.94 38.58 40.55 41.04 42.19 38.41 37.88 37.45 35.43 28.03 32.37 32.57 32.60 36.98 40.23 43.72 47.03 48.78 49.84 47.21 46.47 54.08 56.09 56.24 56.90 57.26 57.48 57.34 56.30 56.18 56.12 54.95 54.27 53.84 53.61 53.20 52.05 52.74 53.04 53.89 54.89 55.92
34.26 35.66 38.80 42.25 36.75 39.29 39.31 35.20 24.22 27.09 27.02 25.29 35.57 32.44 34.64 41.18 43.55 45.63 47.12 48.61 49.80 47.81 45.96 52.67 54.24 54.49 55.55 56.18 56.36 56.41 55.80 55.31 56.14 54.97 54.21 54.58 54.15 53.12 51.05 52.84 53.35 53.03 53.12 54.10
27.00 24.30 34.94 39.94 37.16 34.33 35.89 35.84 28.97 22.73 24.33 27.88 35.44 29.15 35.62 44.79 47.20 47.34 48.92 48.27 49.32 48.63 48.13 53.18 54.84 54.48 55.31 55.77 55.94 56.02 55.33 55.17 55.72 55.41 54.19 55.19 54.92 52.55 52.52 52.47 54.07 53.86 53.91 54.42
26.69 28.50 37.34 39.35 39.55 38.88 35.19 33.01 39.03 33.31 34.22 29.80 31.79 35.75 42.30 46.40 46.57 47.69 48.07 47.44 45.62 47.51 47.68 53.83 54.97 54.43 55.31 55.25 55.29 55.41 55.51 55.60 55.41 55.22 54.85 55.28 55.08 53.83 51.76 52.18 54.09 53.30 53.78 54.30
32.53 27.08 35.96 38.71 40.56 39.45 37.83 40.72 33.16 34.29 26.69 25.93 30.31 31.67 35.94 41.67 43.50 45.88 46.39 45.20 45.41 47.85 50.90 54.43 54.95 54.70 55.46 55.54 55.57 55.43 55.53 55.37 55.50 55.45 55.46 54.62 53.85 53.47 52.41 51.49 52.16 51.82 52.15 52.90
34.31 30.73 30.56 36.81 35.02 33.89 35.65 35.17 35.66 36.01 34.22 28.83 27.41 32.66 44.84 43.37 44.37 45.15 46.34 47.37 47.06 46.64 52.14 54.06 55.15 55.07 55.11 55.38 55.15 55.03 55.03 55.37 55.57 55.70 55.40 54.74 54.03 53.07 52.58 51.80 51.18 51.30 51.88 52.39
35.79 33.48 26.69 29.64 36.37 40.51 38.54 36.50 37.14 31.26 31.36 33.42 33.49 31.06 46.85 46.30 45.96 45.42 46.47 48.16 48.41 48.88 50.41 54.35 55.52 55.48 54.62 54.46 54.44 54.44 54.64 54.82 55.81 55.89 55.67 55.18 55.07 54.32 53.17 52.41 51.16 50.58 51.21 51.79
35.68 32.09 25.79 27.60 33.75 37.56 36.01 37.43 36.99 36.57 36.02 31.43 29.58 30.90 45.40 46.44 45.88 45.79 46.01 47.85 48.50 49.80 52.68 54.09 54.88 54.77 54.13 53.69 53.65 54.04 54.30 54.17 54.78 56.39 55.93 54.96 54.71 54.36 53.88 53.21 51.78 50.89 50.63 50.64
38.39 31.75 29.35 24.23 29.04 34.16 32.68 35.34 37.17 36.02 32.21 32.69 33.47 35.83 41.44 43.77 43.94 44.94 46.10 47.93 49.12 50.75 51.01 51.23 52.05 53.76 55.17 55.49 55.55 55.23 55.17 55.45 55.33 55.11 55.91 55.11 54.89 54.68 54.44 54.01 53.21 52.02 51.47 50.66
34.70 27.87 30.95 32.68 34.85 34.64 34.92 35.10 36.39 34.82 35.98 32.69 35.01 36.65 40.74 43.89 44.90 45.91 47.23 48.29 49.31 50.31 50.07 50.08 50.27 51.04 51.95 52.37 54.30 55.55 55.92 55.98 56.10 55.23 54.72 55.25 55.63 55.47 55.13 54.24 53.99 53.48 52.90 52.25
34.78 27.26 29.02 27.92 32.78 33.60 31.42 32.78 33.33 36.38 37.30 36.92 37.83 37.19 43.88 47.01 47.31 46.58 46.53 47.87 47.42 48.90 47.71 47.46 47.64 47.64 48.23 50.02 49.45 50.71 52.27 54.07 56.29 55.74 55.33 55.68 55.23 55.67 55.03 55.63 54.86 54.66 53.70 53.52
32.28 29.92 27.79 24.81 30.17 29.67 25.57 32.31 34.11 37.65 38.59 38.16 35.13 39.88 44.41 45.11 45.79 44.92 46.97 46.49 47.52 45.48 44.99 44.28 44.09 43.90 44.62 46.49 47.21 46.64 48.30 50.80 53.17 55.18 55.96 56.25 56.14 55.39 55.68 55.99 55.86 56.44 55.73 55.33
31.11 29.65 28.38 24.42 26.61 17.41 30.74 37.13 40.42 38.69 39.09 40.34 40.80 42.80 43.43 43.28 43.08 43.90 46.60 45.48 43.71 42.65 41.85 41.54 41.39 40.98 40.85 44.12 45.99 46.06 46.43 47.13 47.24 47.22 47.50 48.02 49.12 51.45 55.19 56.29 55.84 55.80 56.18 56.62
34.13 29.75 23.99 21.89 22.24 26.52 30.66 36.03 35.92 34.36 35.97 42.86 42.81 42.99 43.28 43.02 42.55 40.33 41.64 41.96 41.09 40.35 40.10 39.45 39.25 38.70 38.80 40.52 43.55 43.55 43.13 43.73 43.60 43.14 43.21 43.40 43.77 46.35 47.41 49.16 51.84 56.35 56.23 56.04
33.03 31.72 26.68 23.72 20.99 16.04 29.77 38.62 42.18 41.74 32.59 42.21 43.82 43.64 43.51 43.85 36.65 36.60 39.80 39.45 38.03 38.19 38.75 37.45 37.39 35.91 35.36 36.10 39.58 40.43 39.98 40.58 40.00 39.75 39.28 39.26 39.28 41.19 40.96 42.29 44.52 46.73 48.95 54.77
26.78 26.48 24.86 24.53 23.92 26.41 35.40 39.34 42.75 29.73 30.81 41.18 42.79 43.24 42.69 38.64 39.72 38.47 38.27 36.34 36.42 36.13 35.86 37.15 35.49 33.20 32.92 33.74 36.42 36.63 37.30 37.63 38.70 37.88 36.41 35.32 35.02 36.77 36.02 37.09 38.87 40.72 43.23 43.86
26.18 24.26 23.33 25.41 24.50 20.55 38.63 39.45 33.96 38.20 39.64 40.54 40.23 40.61 38.80 38.44 37.80 36.42 34.68 33.23 33.01 32.51 33.65 34.60 33.94 32.26 32.00 32.74 33.84 33.74 33.53 36.93 37.37 35.06 32.27 31.52 31.90 32.55 33.15 33.13 33.73 35.82 37.30 36.29
25.86 31.07 29.29 27.88 26.82 38.27 39.59 38.47 40.16 39.56 36.52 36.32 37.82 39.12 38.51 36.17 34.34 33.74 31.70 30.85 30.85 31.20 31.10 32.28 31.22 30.89 30.43 30.87 31.12 30.90 32.06 35.74 35.56 32.97 30.45 30.27 30.16 30.79 31.30 30.72 30.70 31.31 32.87 32.82
35.41 35.98 32.56 33.66 37.41 38.00 38.81 38.92 38.46 38.49 36.23 35.00 34.38 34.29 36.16 33.70 32.66 31.03 30.15 28.81 28.38 29.19 28.75 29.64 29.28 28.19 27.81 29.29 29.83 30.64 31.50 34.43 33.52 31.17 30.03 29.68 28.96 29.10 29.81 30.15 29.89 28.95 29.10 29.08
32.64 33.93 30.97 33.49 35.40 36.73 36.53 38.06 37.14 34.99 35.27 33.45 31.95 30.68 30.23 30.74 28.88 28.09 26.73 26.13 26.13 25.85 27.20 27.43 27.01 26.69 26.60 28.09 28.59 30.00 30.64 32.00 31.25 30.45 29.70 28.77 28.30 28.16 28.07 28.34 28.90 29.15 29.63 29.30
32.83 29.41 27.56 27.59 31.71 34.34 33.66 35.64 36.66 33.64 31.37 30.45 29.71 27.64 26.97 27.17 25.68 25.47 24.59 24.88 23.99 23.69 24.48 24.77 25.23 25.71 25.85 26.43 27.22 28.55 29.91 29.99 29.65 28.32 28.32 28.00 27.38 27.41 27.45 26.23 24.96 28.57 29.10 30.30

GFSCGP_sfc_wetblb_096.txt.gz
Wetbulb
37.80 32.94 29.20 33.00 34.92 35.39 35.38 34.15 32.90 34.50 40.52 39.68 37.97 38.04 39.20 42.25 42.42 41.21 42.95 43.00 43.93 45.11 46.59 46.24 49.83 54.59 57.71 58.37 58.39 58.46 59.10 59.10 59.36 58.30 57.60 56.84 56.82 56.70 55.51 55.71 59.66 61.97 62.80 62.33
34.29 30.13 35.83 36.36 35.35 34.56 33.63 31.75 30.82 35.29 39.67 38.97 36.43 37.48 40.38 41.01 42.32 43.90 44.31 45.30 44.11 43.88 45.64 46.58 49.83 56.39 57.83 57.75 58.54 58.37 59.17 59.17 59.56 59.07 58.25 56.24 56.75 55.76 53.85 54.11 56.44 57.28 60.13 62.13
32.37 35.34 37.84 34.74 32.39 31.53 30.31 29.34 29.83 31.58 36.04 36.83 35.72 34.10 37.45 42.21 43.77 44.36 45.14 46.03 45.64 45.84 45.87 47.18 52.92 56.03 57.60 57.30 58.11 58.56 59.00 59.10 59.20 58.46 56.61 55.34 54.95 54.47 53.49 54.18 53.28 54.39 56.94 60.41
33.91 37.36 38.51 35.55 33.50 33.38 29.28 35.66 35.29 34.26 31.72 26.20 36.00 25.83 35.16 38.55 40.47 42.39 44.46 44.84 45.81 45.98 46.30 47.63 52.88 55.43 57.21 57.69 58.83 59.04 58.99 58.75 58.42 57.19 55.58 54.00 53.72 51.79 52.16 52.13 53.75 56.44 55.94 59.56
33.99 37.84 36.73 35.21 36.61 38.44 34.65 39.13 36.82 35.45 30.89 31.83 32.92 28.53 30.63 37.82 36.66 40.00 43.50 45.41 45.04 46.05 46.20 49.30 53.72 55.72 57.34 58.06 59.08 59.19 58.64 58.39 57.77 56.04 54.73 53.33 50.61 53.47 54.06 51.95 54.42 56.34 57.16 57.90
36.87 40.91 39.15 37.55 40.06 39.92 40.95 37.02 36.27 35.83 33.51 25.40 30.84 29.86 28.86 32.65 36.91 40.18 43.84 45.94 46.87 46.91 46.23 50.33 54.94 55.64 56.44 58.88 58.60 58.30 57.97 57.67 56.77 55.92 53.78 52.74 51.27 52.38 52.04 53.04 53.70 55.20 56.80 58.12
34.12 35.60 38.07 40.82 35.85 38.44 38.03 32.51 21.40 24.08 26.02 23.24 32.96 30.35 32.19 38.78 41.92 43.35 44.41 45.30 45.83 46.39 45.90 46.91 53.00 54.49 55.92 57.35 57.36 57.45 56.95 56.41 56.20 55.44 53.56 52.54 52.43 52.21 52.93 52.85 53.81 53.79 54.37 55.37
26.43 23.97 35.37 39.53 36.19 33.30 34.90 32.60 24.38 21.89 23.65 26.79 33.92 28.18 32.76 43.00 46.34 47.75 47.87 46.26 45.47 44.71 45.44 45.47 51.90 54.63 55.56 56.62 57.07 56.92 56.06 55.96 55.82 55.40 53.66 52.98 52.31 52.09 53.26 51.70 54.26 54.45 54.86 55.18
26.77 26.10 35.90 38.73 38.83 37.40 34.25 31.83 36.84 32.18 30.63 28.34 30.12 33.63 38.73 44.89 44.96 45.81 45.88 47.23 47.44 47.68 46.32 46.11 51.43 54.49 55.07 56.22 56.40 56.51 55.63 56.12 55.83 55.28 54.07 52.84 52.81 51.85 51.89 51.39 52.14 54.65 54.87 55.30
31.98 26.88 35.24 37.86 39.20 38.61 36.31 39.80 31.88 33.16 24.93 22.15 28.03 29.53 32.31 40.72 42.63 44.03 44.09 45.05 47.18 48.63 48.41 49.56 52.12 54.25 55.22 55.99 56.64 56.69 56.28 55.68 55.82 55.95 54.69 53.59 53.01 52.64 51.51 51.81 51.54 51.93 54.36 54.63
33.76 30.69 30.32 36.69 34.18 32.73 33.84 33.29 34.76 35.82 33.31 28.44 25.28 28.15 44.67 43.44 44.01 43.21 44.53 45.50 47.24 49.02 49.06 52.95 53.87 54.69 55.29 55.99 55.69 55.36 55.26 55.46 55.38 55.52 55.52 53.34 52.22 52.38 51.52 50.98 50.81 51.23 51.48 52.05
35.50 31.70 26.92 29.81 35.97 39.12 37.55 35.15 35.56 31.21 29.20 32.89 32.32 29.30 44.89 45.72 46.46 45.83 44.82 46.24 48.82 50.37 53.28 53.74 53.78 54.22 53.87 54.57 54.63 54.30 55.01 55.36 55.48 55.76 55.36 54.97 53.02 51.93 50.96 50.51 50.25 50.57 51.14 51.41
35.93 31.57 25.99 28.97 33.27 36.53 35.32 37.33 37.20 36.34 34.77 28.58 25.84 28.40 45.26 45.69 45.38 46.19 45.63 46.94 48.77 50.72 51.61 53.50 53.65 53.19 53.07 53.55 54.05 54.29 54.34 55.26 55.91 55.84 54.99 54.91 54.65 52.56 51.41 50.99 50.32 49.85 50.33 50.67
38.77 31.86 28.35 23.97 27.72 32.23 30.58 34.51 36.66 36.53 30.29 31.07 32.52 33.33 39.07 43.20 43.59 45.24 45.99 47.64 48.54 48.02 48.90 50.01 50.48 52.49 54.19 53.58 53.72 53.88 54.24 55.00 55.66 55.78 55.52 54.67 54.63 54.51 52.39 51.74 50.72 49.96 49.90 49.77
34.65 27.43 30.44 31.21 32.73 33.74 32.69 32.97 34.16 33.61 34.45 31.22 32.11 34.25 38.28 42.45 44.54 45.50 46.94 48.62 47.37 44.97 45.19 45.66 46.57 47.96 49.34 50.83 52.45 56.04 56.06 55.82 55.58 55.66 55.46 55.09 54.99 55.30 53.80 52.37 51.75 51.24 50.37 50.22
34.57 27.34 28.86 27.60 31.48 32.45 30.16 31.32 31.15 31.78 32.47 33.41 35.93 35.82 43.07 45.12 46.90 46.10 47.07 47.46 44.46 42.88 42.57 42.54 42.52 43.91 45.60 46.22 47.21 48.96 49.92 51.25 55.86 55.26 54.86 55.12 55.64 55.76 55.44 54.71 52.95 52.17 51.46 50.97
31.23 29.30 27.04 24.41 28.51 28.12 23.02 28.18 34.15 35.23 37.08 36.40 33.27 38.08 42.36 43.74 44.86 45.36 46.45 44.80 42.87 41.53 40.72 40.17 40.14 40.12 42.09 44.35 45.05 45.00 46.27 48.02 48.56 48.93 49.61 50.80 53.55 55.44 55.42 55.66 54.95 53.73 52.73 52.36
30.10 29.28 28.39 24.32 26.36 15.55 27.13 34.03 38.05 35.81 38.80 39.71 39.27 40.04 42.73 41.40 40.83 41.13 42.60 41.60 39.80 39.69 39.06 38.26 37.75 38.17 38.44 41.24 43.09 43.60 44.03 43.94 43.83 43.52 43.37 43.66 45.47 47.10 48.63 51.51 54.11 55.58 55.98 54.77
33.60 29.41 24.76 21.83 22.41 25.43 28.63 34.24 34.63 33.91 34.62 42.23 42.02 42.01 41.70 41.65 41.30 38.16 39.72 39.33 38.73 38.30 38.02 36.96 36.60 36.19 36.40 36.80 41.31 41.52 41.20 40.71 39.89 39.11 38.79 39.02 40.87 41.54 41.99 42.83 43.78 46.13 46.80 53.02
32.21 31.16 26.96 23.94 20.16 14.08 26.75 36.65 39.57 39.62 30.26 39.88 43.37 42.55 42.83 41.63 36.16 35.06 36.95 36.97 36.69 37.02 36.89 35.02 34.59 34.24 33.90 34.77 38.51 38.72 38.50 38.17 36.54 35.85 35.30 36.09 36.76 37.12 36.74 37.96 38.77 41.10 43.59 44.14
26.98 26.97 24.76 23.93 23.96 26.29 33.72 37.15 39.98 27.83 30.27 38.99 41.53 43.09 41.99 35.59 35.65 34.99 34.60 33.75 34.39 34.45 34.62 35.71 33.79 31.74 31.94 33.51 36.00 35.05 36.01 35.82 35.17 33.45 33.04 33.20 33.45 34.17 34.09 35.44 36.64 37.49 38.29 37.57
26.02 25.08 22.82 26.05 23.37 19.87 37.57 36.91 31.07 35.82 35.93 37.38 38.36 38.62 37.10 35.96 33.95 33.64 32.60 31.72 31.86 31.29 32.01 32.60 31.94 30.68 31.00 31.71 32.92 32.30 32.07 35.90 34.80 32.80 31.46 31.06 31.83 32.37 32.48 32.45 32.96 33.63 34.94 33.70
24.56 31.70 29.74 28.41 27.17 37.26 38.51 37.31 37.88 36.54 33.69 33.76 35.61 35.77 34.90 33.24 32.05 31.10 29.62 29.35 29.49 29.39 29.55 30.74 30.21 29.78 29.66 30.30 30.60 29.63 31.05 34.51 33.30 31.52 30.04 29.93 30.31 30.55 30.72 29.79 29.76 30.34 30.75 30.35
33.38 34.66 32.13 31.40 35.58 36.37 36.87 36.43 36.74 35.83 33.91 32.97 33.81 33.10 32.70 30.04 29.53 27.76 27.23 26.52 25.99 26.95 26.99 28.43 28.36 27.19 27.01 28.81 29.30 29.91 30.71 33.47 32.30 30.29 29.08 29.10 28.56 27.85 28.59 29.82 29.47 28.30 28.05 27.45
30.58 31.58 28.51 32.19 32.74 34.75 34.47 35.42 34.91 33.96 33.46 30.25 29.22 29.11 29.25 28.50 26.67 26.64 24.75 24.19 24.07 24.07 25.36 25.89 25.70 25.43 25.68 27.01 27.55 29.12 29.77 31.24 30.04 29.50 28.72 28.37 28.33 27.04 25.77 25.95 26.96 27.75 28.86 29.21
31.57 27.72 24.90 25.97 30.74 32.19 31.27 33.90 33.90 30.63 29.21 28.58 27.62 25.05 24.81 25.22 24.35 24.48 23.20 23.03 22.71 22.28 22.94 23.10 23.30 23.55 23.62 24.24 24.34 26.26 28.89 29.38 29.07 28.05 27.84 27.74 27.49 27.26 25.68 23.71 22.46 26.14 27.65 28.72

GFSCGP_sfc_wetblb_099.txt.gz
Wetbulb
41.14 37.33 34.50 36.56 38.75 37.89 38.32 37.15 36.60 39.27 43.54 41.80 42.03 42.25 44.51 46.55 47.55 47.29 47.89 48.92 50.19 51.62 53.90 54.32 54.67 54.98 59.72 62.02 62.10 62.24 62.33 60.95 60.75 61.27 59.80 59.78 60.04 61.27 61.32 61.54 63.43 63.11 63.42 62.77
36.69 34.52 38.64 39.38 38.46 38.08 37.25 35.18 34.96 38.11 40.83 40.37 40.13 39.67 43.39 44.92 45.90 47.35 47.73 48.67 49.02 50.83 52.29 52.87 53.37 53.91 57.39 60.23 61.84 61.90 62.02 60.48 61.52 61.47 61.31 60.94 59.88 59.42 60.38 60.58 59.87 62.31 63.91 63.16
34.59 37.67 39.49 37.79 36.15 34.80 34.82 34.01 33.79 34.36 37.83 40.23 38.72 37.39 40.26 43.41 44.58 45.83 47.36 48.91 49.95 50.46 51.24 53.05 53.38 54.67 57.43 59.28 60.92 61.32 62.11 60.94 61.81 61.30 60.33 58.34 57.35 56.89 56.78 57.84 59.15 58.78 60.08 61.44
36.56 39.92 36.31 35.29 34.89 36.16 31.70 36.79 36.04 35.43 35.17 30.84 39.42 29.99 38.18 41.46 42.21 44.29 46.17 47.72 48.78 50.24 51.26 52.54 53.82 55.03 57.53 59.49 61.28 61.71 62.11 60.99 61.09 60.58 58.66 58.05 57.49 55.61 55.85 58.08 58.48 59.96 60.23 61.63
35.75 37.57 37.59 35.04 36.89 38.00 35.64 40.62 37.92 37.70 35.87 34.78 35.13 31.72 35.77 40.97 40.35 43.39 45.93 48.32 49.97 50.45 50.85 51.75 53.29 54.98 58.30 59.96 60.51 61.50 61.65 60.79 60.42 59.44 59.46 57.81 56.46 56.90 58.09 58.04 58.32 59.37 59.73 60.27
38.53 43.01 41.32 39.90 41.47 41.57 42.27 39.18 38.24 38.31 36.15 28.10 33.39 32.96 34.01 38.06 40.31 43.87 47.45 49.68 49.75 50.36 51.54 52.44 54.11 55.84 58.38 60.16 60.58 61.05 60.44 59.79 59.57 58.43 57.97 56.65 56.61 57.53 56.58 55.91 57.09 57.77 58.04 59.02
36.23 38.13 40.83 42.23 37.92 40.82 39.62 34.88 28.10 26.27 26.56 26.48 34.94 32.21 35.50 41.25 44.38 47.00 46.81 48.52 50.57 51.97 52.08 51.38 52.27 56.09 58.34 58.97 59.99 60.64 59.99 58.15 58.30 58.42 56.52 56.55 58.35 57.77 55.77 56.25 56.95 56.49 56.33 57.45
30.06 27.81 37.11 41.12 38.47 36.11 36.20 34.59 28.99 22.60 25.14 29.27 35.73 30.76 36.94 46.49 47.94 48.78 49.22 49.45 50.65 51.88 52.83 53.13 51.97 56.52 58.05 58.96 59.82 59.28 58.82 57.96 57.88 57.49 55.84 57.83 58.26 57.58 57.60 57.29 57.11 56.83 55.90 56.43
30.09 28.88 38.24 40.45 40.58 39.97 35.61 32.54 37.81 30.24 31.79 28.87 32.21 37.13 40.97 46.78 47.05 48.30 48.16 49.00 49.95 51.71 53.54 54.44 54.15 54.39 57.80 58.77 59.37 59.08 58.39 58.28 57.45 56.70 56.07 57.62 57.87 57.43 57.03 57.00 57.26 57.25 57.37 57.08
34.06 29.37 36.91 38.57 41.47 41.30 38.60 40.46 31.64 32.52 24.27 23.28 31.14 33.07 35.86 42.16 44.44 46.96 46.94 46.93 48.91 51.58 54.15 54.34 54.78 53.45 57.25 58.66 59.24 59.22 57.69 57.21 56.76 56.65 56.17 57.58 57.53 57.45 57.56 57.43 56.95 56.89 56.55 56.63
36.13 34.14 33.09 38.34 35.84 34.78 36.11 34.81 34.38 34.05 32.18 26.77 26.88 32.76 44.41 43.96 46.17 46.14 46.76 47.00 48.70 48.74 53.09 54.63 55.30 56.14 57.31 58.37 58.54 57.48 56.85 56.69 56.18 56.12 56.01 57.49 57.15 56.83 56.74 56.81 57.11 57.31 56.43 56.20
37.53 34.10 29.55 32.02 38.32 40.64 38.66 35.96 35.67 30.44 29.39 31.57 30.93 31.25 46.04 46.39 47.38 48.42 47.97 48.25 48.27 48.04 50.35 54.56 54.85 55.62 55.94 56.31 56.19 55.72 56.23 55.89 56.43 56.68 56.81 57.26 57.24 56.68 55.84 56.03 56.17 57.18 56.74 55.46
38.35 32.85 28.92 30.47 34.99 38.04 35.94 37.33 37.43 35.62 35.17 29.94 27.69 31.92 45.04 45.15 46.53 47.93 47.33 48.69 46.88 46.52 46.99 48.95 52.51 53.71 54.16 54.42 54.87 55.12 55.52 55.71 56.24 56.95 56.44 56.33 56.44 55.74 55.75 55.43 55.47 55.94 56.65 56.87
40.43 33.58 30.31 26.86 29.71 34.08 31.87 34.49 36.68 35.16 30.53 31.28 31.65 33.94 39.14 41.29 43.08 45.68 47.50 47.94 45.13 44.68 44.39 44.15 45.66 46.97 49.57 53.70 54.53 55.18 55.28 56.04 56.46 56.50 56.05 55.73 56.32 56.09 55.91 55.97 55.34 54.85 55.55 55.91
36.89 29.40 32.25 32.87 33.63 34.48 33.17 32.96 33.80 31.92 33.43 30.34 33.36 33.88 37.74 40.42 43.18 46.49 47.91 45.75 43.46 42.68 42.05 41.68 41.57 43.74 45.09 46.63 48.40 50.49 54.75 56.94 57.13 56.27 56.16 55.63 56.46 56.24 55.61 55.93 55.79 55.32 54.67 55.11
36.77 29.70 31.89 29.27 32.76 33.39 30.45 32.59 32.23 32.84 34.05 34.09 34.37 33.76 41.91 44.69 45.25 46.56 46.70 43.56 41.79 40.37 39.98 39.90 39.85 39.88 42.54 43.78 44.78 45.90 46.66 52.50 56.35 56.63 56.06 56.33 55.80 55.79 55.32 55.51 56.44 55.33 54.89 55.01
33.72 31.67 28.79 24.38 30.42 30.18 25.42 29.88 32.04 35.82 38.55 37.80 34.22 39.32 43.02 42.67 40.89 42.86 41.55 40.83 39.58 39.26 38.13 37.85 38.26 37.76 38.70 41.89 43.48 42.98 42.97 44.19 44.47 45.17 45.76 47.26 49.60 50.73 52.34 55.62 55.24 54.79 55.52 55.43
32.47 31.56 30.47 26.00 27.92 17.53 29.76 35.87 36.54 35.04 37.43 40.70 41.57 42.17 41.74 39.56 37.77 37.42 38.45 38.03 37.12 37.12 36.72 36.06 35.90 36.64 37.37 40.88 41.83 41.80 41.10 40.99 40.26 39.91 40.31 41.91 43.70 43.99 44.97 46.26 46.61 47.25 50.39 54.51
35.81 32.11 27.84 24.32 23.84 27.54 30.97 35.53 34.15 33.72 32.88 40.29 41.26 41.76 40.03 40.92 39.96 34.14 34.83 34.72 35.54 35.94 35.23 34.37 34.96 35.25 36.38 38.26 40.26 40.52 39.49 37.94 36.34 36.23 36.71 37.58 38.99 39.44 40.45 40.71 41.34 42.77 45.81 44.81
33.87 33.84 30.14 26.63 20.86 18.07 29.09 35.88 39.91 39.35 30.27 38.47 40.24 41.87 39.52 40.81 33.57 32.47 33.44 33.33 33.63 34.35 34.70 33.52 33.52 33.60 33.92 35.68 38.13 37.95 36.68 35.82 34.14 34.92 35.11 35.76 37.08 36.66 37.40 38.24 38.87 40.61 40.85 38.37
28.89 29.25 26.57 26.52 24.17 28.07 34.79 37.70 39.80 26.47 29.06 37.65 37.85 38.83 38.46 34.38 33.21 32.06 32.42 32.21 32.65 32.42 32.73 34.04 33.13 31.36 31.48 33.60 35.58 34.34 35.84 33.52 34.14 34.65 34.32 34.40 34.81 34.88 35.33 36.17 36.89 37.90 36.82 35.19
27.92 26.87 26.23 27.22 24.00 21.25 37.58 37.44 32.23 34.34 35.27 36.04 35.39 34.78 32.78 32.91 32.22 31.36 30.92 30.18 30.02 29.91 30.78 32.05 31.37 30.16 31.06 31.68 32.96 32.33 32.70 33.98 33.97 33.55 32.88 32.30 32.67 32.97 33.24 33.88 34.41 34.89 34.98 33.15
28.82 31.68 29.10 30.10 30.23 36.50 37.11 35.40 35.93 35.66 33.21 33.76 34.76 35.03 33.85 30.81 29.79 29.51 27.94 27.39 27.31 27.74 28.74 30.30 29.85 29.44 29.62 30.59 30.76 29.76 31.46 33.71 32.65 32.03 30.80 30.43 30.44 31.16 31.38 30.96 31.13 31.27 31.85 31.32
33.15 33.34 30.67 30.69 32.42 31.67 34.73 34.70 35.00 33.80 30.62 30.34 31.91 32.10 31.68 29.42 28.69 27.20 26.22 25.69 25.33 25.96 26.09 27.92 27.85 27.07 26.77 28.10 28.72 29.69 31.00 32.68 31.77 30.42 29.73 29.53 28.63 28.71 29.85 30.11 29.91 29.89 29.74 29.57
30.28 31.30 27.48 30.53 31.24 33.65 31.95 33.12 32.50 30.88 31.65 29.25 28.04 27.80 28.30 27.78 26.34 25.56 24.27 24.11 24.23 24.60 25.52 26.00 25.44 24.71 24.44 26.07 26.45 27.96 30.28 32.02 30.47 29.99 29.65 29.01 28.18 27.16 26.67 27.12 28.39 28.77 29.05 29.74
30.28 26.83 25.78 25.43 29.71 29.88 29.66 31.96 31.30 28.62 27.01 26.70 26.23 24.77 25.05 25.49 24.56 24.33 22.84 23.04 22.54 22.26 23.25 23.39 23.72 23.84 23.92 24.54 24.83 26.26 27.94 29.64 30.16 29.27 28.88 28.89 28.14 27.35 26.51 25.71 24.59 26.84 27.77 28.12

GFSCGP_sfc_wetblb_102.txt.gz
Wetbulb
41.29 36.73 37.03 41.18 43.08 41.88 41.49 40.83 40.80 44.12 46.37 44.92 44.77 45.56 47.75 50.46 50.67 50.93 51.55 52.42 53.14 54.39 56.61 57.79 59.04 60.24 60.52 62.96 65.50 66.47 66.57 67.53 64.08 64.34 64.30 63.69 62.22 62.74 64.75 64.35 64.99 65.84 65.87 65.30
37.42 35.38 40.69 42.51 42.76 40.64 40.17 39.17 39.90 42.86 44.30 43.57 43.51 43.48 46.69 48.27 49.17 50.23 51.15 52.19 53.23 54.47 55.49 56.48 57.86 59.21 60.29 61.32 64.16 65.53 66.11 66.96 65.75 66.18 66.09 65.24 63.81 62.87 63.83 63.75 65.21 66.16 65.74 64.92
35.50 38.67 40.76 40.28 39.23 38.11 39.51 38.46 39.27 38.99 42.14 43.34 42.36 41.51 44.25 47.28 49.00 49.53 50.46 51.16 51.99 52.66 53.54 55.33 56.53 57.97 59.72 60.80 63.10 64.42 65.72 66.79 66.04 66.71 66.19 64.89 64.25 62.74 62.55 62.70 61.55 63.96 65.59 64.40
37.83 42.13 40.11 38.79 37.90 39.45 36.18 42.13 40.57 39.32 37.70 35.38 42.57 35.61 42.16 44.66 45.43 47.23 48.90 50.87 51.46 52.44 53.60 54.33 55.38 56.90 58.80 60.59 63.24 64.27 65.21 66.26 65.97 66.54 65.05 63.07 61.74 60.57 62.49 62.42 61.21 61.38 64.30 63.60
37.28 38.84 38.40 37.97 39.10 40.80 38.59 41.63 40.17 39.84 39.06 39.39 39.95 36.84 41.55 43.64 43.13 46.20 51.15 52.64 54.13 55.62 55.88 55.90 56.14 56.53 58.04 60.15 62.64 64.27 64.78 65.63 65.58 66.05 65.06 63.50 63.35 63.65 63.62 62.42 60.92 61.69 63.11 63.98
40.74 44.37 42.18 40.94 42.82 41.63 44.23 41.81 41.30 41.24 39.38 33.07 38.65 37.94 40.02 43.34 43.87 47.34 50.87 52.62 54.07 55.44 56.52 57.31 57.67 57.87 57.95 59.45 62.49 64.19 64.05 64.63 65.07 64.66 64.60 64.05 63.69 62.87 61.79 61.53 61.48 61.46 60.87 62.00
39.49 40.38 43.03 44.28 40.21 43.62 42.62 39.29 32.44 30.35 29.59 31.86 38.69 37.23 41.44 45.11 48.65 49.27 50.35 52.46 54.60 56.26 57.15 57.93 57.80 57.48 57.83 59.14 62.81 63.48 63.73 63.63 63.44 62.21 63.39 63.91 63.02 63.29 62.15 61.69 61.44 61.11 59.08 59.79
31.64 29.61 39.79 43.00 41.16 38.69 39.79 38.98 34.50 26.71 29.44 34.00 39.45 35.01 41.95 48.95 50.82 51.55 52.57 53.50 54.79 55.37 56.99 58.33 59.22 59.07 57.97 60.84 62.82 63.11 63.07 62.75 61.01 60.51 62.23 63.25 62.69 63.51 62.58 61.62 61.63 61.46 60.47 60.43
32.53 32.02 41.97 43.18 43.61 43.26 38.68 35.73 40.94 33.76 35.79 33.56 37.53 40.41 45.21 48.16 49.12 50.71 51.83 52.65 53.22 53.93 53.91 56.58 60.00 60.04 58.55 61.45 62.58 62.97 62.06 61.57 60.06 59.23 60.01 60.25 63.61 63.00 62.01 61.89 61.99 60.64 60.07 59.03
38.05 31.26 39.92 41.27 44.09 43.24 41.06 43.22 33.63 36.30 27.85 26.83 34.66 36.76 40.28 44.38 46.53 49.60 50.67 51.39 52.32 52.71 50.80 51.54 59.41 59.69 58.73 61.80 62.96 61.93 61.13 60.14 58.90 59.26 59.25 61.10 62.92 62.69 62.25 61.60 60.54 60.69 60.43 59.67
40.81 38.11 35.66 40.33 38.51 37.74 38.62 37.04 37.70 38.38 35.56 30.24 31.62 36.48 45.98 45.06 46.41 47.42 49.41 51.44 51.15 50.42 47.96 48.20 53.97 59.72 59.59 61.14 62.09 59.86 59.67 59.01 58.24 58.07 59.03 61.39 62.33 62.26 61.71 61.09 60.89 60.08 60.32 59.10
40.52 38.66 33.28 35.37 40.96 43.61 41.17 38.62 38.34 34.40 30.01 34.24 34.47 35.76 47.54 46.42 47.10 49.05 49.77 50.62 50.42 49.42 45.20 45.07 48.22 54.54 57.87 59.55 59.12 58.13 58.50 57.89 57.71 57.75 58.52 60.61 61.76 61.51 60.88 60.76 60.77 60.18 58.91 59.28
41.31 36.79 30.76 32.11 37.58 41.46 38.02 39.63 39.56 37.61 37.02 32.37 33.16 37.03 46.64 46.75 46.57 48.74 48.63 48.04 47.97 46.61 42.91 43.82 44.65 47.50 52.17 56.04 56.82 57.69 57.59 56.69 56.92 57.08 57.88 59.01 59.43 60.44 60.04 60.32 60.55 59.95 59.02 58.56
42.81 37.01 34.67 31.07 34.42 38.54 35.11 37.39 38.90 37.44 33.77 33.62 35.33 37.99 42.42 43.86 44.59 47.42 48.42 47.01 46.65 45.24 41.27 41.47 41.48 44.21 45.93 48.51 54.40 55.87 56.03 56.85 56.93 57.45 58.19 57.80 58.12 59.54 59.71 59.73 59.51 59.41 59.14 58.00
39.14 32.28 34.85 35.52 36.70 36.76 36.20 35.39 35.68 34.08 35.41 32.42 36.13 37.15 41.17 44.47 46.10 47.38 46.74 44.10 43.16 43.31 39.59 38.76 39.52 40.92 43.30 44.73 46.13 47.92 54.87 56.25 57.15 57.09 57.22 57.26 57.78 58.00 57.78 57.60 58.05 58.77 58.68 58.28
37.91 31.41 34.01 31.53 35.70 35.43 32.66 34.48 34.42 34.77 36.69 37.80 38.94 38.95 45.08 42.67 43.50 41.41 40.72 40.35 39.46 38.70 38.05 37.19 37.71 38.35 41.11 42.58 43.03 43.60 45.15 46.34 48.82 49.52 50.96 56.35 57.22 56.64 56.52 57.69 57.05 56.97 57.50 58.03
35.47 33.61 31.58 27.33 32.42 31.99 28.77 33.24 34.77 36.33 38.82 39.59 35.04 41.02 42.76 34.40 32.98 32.69 35.09 36.42 35.50 36.33 35.55 34.87 35.15 36.73 39.01 40.83 41.97 41.01 41.13 42.41 42.92 43.33 44.20 45.39 47.89 49.66 50.89 55.04 55.77 56.77 57.37 57.78
34.81 33.66 34.01 28.69 30.42 21.16 32.36 39.73 38.78 36.51 39.41 40.80 41.15 39.20 36.83 34.49 33.45 32.73 33.81 33.50 33.47 33.89 34.27 33.36 33.50 34.62 37.21 40.08 40.15 39.92 39.92 40.48 38.80 38.48 39.83 40.46 42.32 42.93 44.30 45.37 46.04 47.68 49.47 47.81
39.31 35.67 30.49 27.88 27.48 30.54 34.84 36.69 36.19 35.31 35.46 38.28 37.90 39.99 40.16 38.64 38.18 32.73 33.29 32.75 32.56 33.62 34.51 33.86 33.89 33.06 35.49 37.82 39.38 38.86 38.43 37.58 36.84 36.26 37.09 38.13 39.16 39.75 40.29 40.47 41.82 43.33 42.51 39.70
37.52 38.04 34.11 30.55 24.09 21.44 32.56 38.48 41.89 40.94 32.42 37.79 37.75 37.10 39.62 38.26 36.70 31.60 32.93 32.02 32.20 33.36 33.80 33.08 34.14 33.59 33.28 35.57 38.36 37.23 35.80 36.16 35.86 35.39 35.42 36.96 37.75 38.38 38.38 39.44 39.64 39.14 37.88 35.85
32.30 33.22 29.90 29.80 27.44 31.08 36.96 40.21 42.16 30.30 29.78 36.40 36.03 33.83 32.56 29.45 31.62 31.84 31.84 30.87 31.66 32.49 32.24 33.58 32.93 32.30 32.67 34.73 35.75 34.87 35.22 34.37 36.17 35.66 35.65 35.80 37.39 36.80 37.60 38.41 38.63 37.34 35.62 33.95
30.94 30.85 30.62 30.83 26.36 23.56 36.21 39.54 33.56 34.47 34.74 35.20 34.67 34.92 33.40 32.79 32.37 31.09 30.36 29.98 29.95 30.40 31.32 32.53 32.11 30.94 31.95 32.94 33.82 32.93 33.19 34.48 34.78 34.96 34.04 34.56 35.02 35.73 36.38 36.82 36.57 37.07 35.60 33.56
30.29 31.76 30.27 29.31 28.18 33.29 34.27 32.61 33.35 33.61 31.64 33.20 34.34 34.31 33.45 32.17 30.86 29.79 28.49 28.53 28.32 28.65 29.71 31.63 30.74 30.42 30.48 31.18 31.41 30.92 32.34 34.31 33.91 32.90 33.22 33.10 33.48 34.01 33.99 34.70 35.22 34.94 36.03 35.40
33.80 36.38 32.18 32.70 30.96 31.31 33.41 33.38 32.85 32.21 31.59 31.88 32.00 32.43 33.55 31.57 30.07 28.40 27.73 27.18 26.91 27.52 28.48 30.25 31.45 30.60 29.40 29.94 29.92 30.38 32.21 33.64 33.34 32.35 31.38 30.27 29.46 31.02 32.69 32.39 32.02 32.05 32.93 32.50
34.35 34.89 29.60 31.96 32.77 32.07 31.63 32.40 32.64 31.41 32.42 32.03 31.50 30.89 30.99 31.16 29.15 28.49 26.73 26.29 25.85 26.19 27.79 28.81 29.22 29.57 29.25 30.05 29.82 30.57 31.29 33.06 32.26 31.98 31.42 30.96 29.81 29.18 27.70 27.22 28.74 28.87 29.67 30.50
33.41 28.64 29.03 27.95 30.74 31.21 30.24 31.85 32.07 29.73 28.46 28.91 29.52 29.19 29.44 30.00 28.42 28.03 26.37 26.42 26.38 25.98 26.39 26.63 27.24 27.71 28.18 28.50 28.36 29.26 31.00 31.52 31.78 30.46 30.33 30.41 30.54 30.72 30.55 28.13 25.28 26.50 27.27 27.83

GFSCGP_sfc_wetblb_108.txt.gz
Wetbulb
44.17 36.82 33.66 36.31 39.53 41.61 42.06 41.34 41.24 44.41 47.41 46.37 45.81 46.08 48.42 51.00 51.23 50.71 51.73 52.45 52.78 53.95 55.96 57.03 58.82 58.77 58.41 58.65 61.08 65.82 68.73 69.15 68.77 68.02 67.34 66.90 66.03 65.90 65.45 65.66 65.91 65.68 65.94 66.29
39.81 35.42 38.69 39.71 39.93 39.63 39.44 39.80 40.79 45.03 47.98 46.63 46.21 46.34 49.08 50.50 50.73 51.66 51.85 52.06 52.40 53.54 54.59 56.33 57.88 58.73 58.89 58.71 61.52 64.34 68.30 69.13 68.38 68.12 67.57 67.42 66.72 65.45 64.93 64.59 64.70 65.77 65.81 65.92
36.65 38.93 41.28 38.38 37.75 37.49 38.90 38.73 40.77 41.12 45.10 45.80 44.28 42.75 45.26 48.56 49.63 50.39 51.34 52.43 53.24 53.68 53.97 55.36 56.53 57.64 60.65 60.17 62.03 61.91 64.88 68.54 68.21 67.54 66.87 66.56 65.67 64.01 63.24 63.91 63.81 64.36 64.85 64.78
38.39 42.16 40.14 37.48 36.42 38.36 35.54 42.42 42.93 41.57 39.63 34.40 43.30 33.88 42.06 45.51 46.40 48.08 49.31 50.53 51.55 53.63 55.00 55.29 55.72 56.71 58.74 60.77 62.68 61.28 63.01 66.42 68.04 66.90 65.33 64.62 63.55 61.74 62.30 63.25 63.16 63.58 64.18 64.24
35.39 38.28 38.80 36.53 37.30 39.65 38.26 43.48 41.92 40.84 37.97 37.23 38.14 36.02 40.92 45.50 44.57 46.40 49.31 53.29 54.57 55.88 56.65 56.69 57.57 58.47 58.88 59.24 59.75 62.63 61.76 64.45 67.05 66.89 65.49 64.85 64.59 63.76 62.84 63.37 62.65 62.66 63.94 63.95
37.66 43.22 42.10 39.19 41.69 41.10 42.75 40.47 39.91 38.81 37.00 30.08 36.37 36.63 37.40 41.00 44.28 47.04 51.86 52.95 54.40 55.68 56.63 57.30 58.44 59.97 60.04 60.14 60.09 60.44 62.23 62.63 65.08 66.85 65.62 65.35 64.72 63.81 62.70 62.76 61.65 61.83 62.07 62.98
35.69 37.19 40.49 42.17 38.65 41.75 40.44 36.39 28.41 27.08 27.35 27.17 38.16 35.77 38.68 45.76 49.02 50.44 50.65 52.37 53.94 55.07 55.02 54.94 55.71 56.71 58.85 59.84 61.32 60.05 59.93 60.97 63.48 66.11 65.62 65.62 65.73 64.60 63.16 62.65 62.03 60.70 60.89 61.18
29.54 29.25 38.41 42.99 40.37 37.21 37.18 36.11 29.98 23.76 25.16 29.68 37.86 33.80 38.74 47.76 51.19 52.06 52.87 53.26 53.72 53.31 53.52 53.02 53.07 53.98 55.00 57.08 58.82 56.55 59.29 59.99 62.55 65.07 65.77 65.50 66.45 64.68 64.57 63.76 62.28 60.87 60.73 60.81
31.25 32.00 41.06 43.27 42.95 41.90 37.03 33.17 40.07 32.82 36.20 32.41 35.14 40.88 44.92 48.34 49.43 50.69 51.04 51.97 51.74 51.29 51.56 50.09 49.87 50.54 49.78 52.87 54.41 56.09 57.79 59.80 61.70 63.72 65.34 64.96 65.55 64.43 64.57 63.26 62.78 62.14 61.41 60.87
36.77 32.21 38.63 41.96 43.05 42.85 40.19 41.82 32.96 33.75 28.12 27.13 32.95 35.64 37.55 41.86 44.86 47.94 48.99 49.46 49.84 49.61 48.78 47.76 46.92 45.71 46.38 50.12 51.91 53.32 60.78 59.62 62.36 64.28 64.71 64.97 64.83 65.09 64.43 63.20 62.17 61.76 61.41 60.48
36.81 34.87 35.60 39.72 37.46 36.38 36.81 35.90 37.36 37.55 35.18 29.35 29.19 34.57 42.70 41.86 43.82 46.60 47.55 48.08 47.63 47.03 46.76 45.91 44.04 42.97 42.90 46.18 47.76 50.36 61.90 62.55 63.52 63.93 63.57 63.89 63.53 63.49 63.50 62.60 61.81 61.70 60.01 59.41
40.61 37.11 32.41 34.95 42.02 43.32 40.27 37.94 37.82 33.07 31.86 35.49 33.23 32.53 43.60 45.94 46.95 47.12 45.70 45.62 45.38 44.59 44.92 44.57 42.21 40.50 39.82 42.70 44.70 46.86 55.52 59.95 61.16 62.09 61.28 61.78 62.18 62.55 62.06 61.53 61.65 60.16 58.95 59.32
40.63 34.76 29.73 31.26 36.24 40.60 37.66 39.83 41.18 39.65 37.65 34.40 32.29 33.04 45.33 44.54 42.92 42.48 41.45 41.59 41.72 41.10 40.84 41.88 41.58 39.65 38.53 40.08 41.25 42.92 47.51 58.11 58.78 59.36 59.62 60.08 60.99 61.33 60.94 60.68 60.88 59.56 58.98 58.68
43.97 37.29 33.46 29.65 32.99 38.54 35.76 38.71 40.24 38.76 33.64 34.24 33.69 36.20 38.45 38.57 37.43 37.64 37.55 37.92 38.15 38.09 37.84 37.98 38.56 39.14 38.14 38.94 39.78 40.79 42.26 47.12 57.56 58.13 58.38 58.98 59.63 60.43 60.27 60.59 59.18 58.56 58.67 58.02
38.79 34.00 34.49 36.10 39.10 39.57 37.68 37.61 38.83 36.77 36.79 33.23 35.62 34.83 35.50 35.99 34.64 34.25 34.91 35.05 34.76 34.98 35.10 35.17 35.38 36.52 37.87 37.58 38.01 39.05 40.01 42.39 45.77 51.47 56.29 57.79 59.00 59.60 59.74 59.45 58.24 58.30 57.95 57.87
39.03 32.00 35.21 31.62 37.37 37.55 33.92 36.27 36.83 37.99 38.58 37.76 38.57 35.46 37.29 35.95 35.14 33.41 33.26 32.78 32.49 33.13 33.66 33.63 34.01 34.59 35.51 36.95 36.41 37.96 38.40 39.21 41.28 41.83 42.63 46.64 53.38 56.75 57.53 57.86 57.69 57.81 57.12 57.28
35.11 34.46 32.38 27.46 34.87 34.37 29.34 34.84 36.38 36.16 36.84 36.09 32.69 35.62 36.50 31.97 31.00 30.30 31.11 31.60 31.93 33.00 33.37 32.98 33.01 33.34 34.01 36.81 37.34 36.73 37.22 38.25 38.02 38.51 39.69 41.12 43.65 45.89 48.90 54.09 54.65 54.09 53.76 56.53
34.30 33.94 34.42 27.95 31.34 23.66 34.03 41.01 38.99 35.37 35.63 37.46 36.43 36.44 33.91 31.45 32.20 32.04 32.94 31.67 31.23 32.60 32.81 32.74 32.24 32.30 33.15 34.90 37.17 37.21 37.13 36.75 36.05 36.53 37.17 38.68 39.85 40.47 41.14 43.17 42.76 41.91 41.97 42.05
40.13 36.90 32.34 28.88 27.90 31.62 34.96 36.15 34.58 34.80 31.24 35.81 35.46 36.49 37.10 35.00 35.53 31.29 32.92 32.78 32.24 33.15 34.57 34.05 33.70 32.78 33.94 33.93 35.95 36.14 35.12 35.21 34.32 34.02 35.27 36.74 37.63 37.67 36.74 36.43 36.94 36.81 35.76 34.68
39.89 40.59 35.43 33.00 26.37 23.90 29.58 33.69 39.38 39.73 27.17 34.96 35.62 34.90 35.40 36.26 32.02 28.80 32.03 32.24 31.88 33.43 36.21 35.11 34.18 33.49 33.17 34.02 34.70 34.24 32.72 32.63 32.45 32.69 33.46 35.31 36.56 36.07 34.87 33.52 33.34 35.19 34.70 33.67
33.21 33.91 31.24 31.29 28.96 28.95 31.09 35.50 39.42 28.94 26.39 34.75 35.00 34.79 32.51 29.49 30.07 31.86 32.41 31.88 32.60 33.72 34.66 36.47 34.61 32.74 32.68 33.62 34.07 32.60 33.00 31.70 32.18 33.76 33.15 33.39 34.23 34.84 35.71 34.44 33.83 34.92 33.64 33.09
29.78 29.58 28.63 30.74 27.55 23.26 32.58 34.96 28.74 31.37 34.92 35.25 34.50 34.56 33.31 33.01 32.20 32.04 31.95 32.32 32.37 32.36 33.86 35.34 34.47 32.87 32.74 33.10 32.44 32.14 32.46 33.45 33.30 32.91 31.78 31.51 32.38 32.64 32.51 32.89 34.64 35.11 34.09 32.66
28.45 32.26 28.96 27.81 26.76 32.32 33.25 32.00 34.40 35.14 33.17 33.29 33.64 34.65 35.09 33.36 32.60 32.76 31.78 31.50 31.69 31.96 32.24 33.91 32.87 32.20 31.91 31.64 31.27 30.09 31.85 34.62 33.25 32.12 30.04 29.58 28.81 29.40 30.94 29.68 29.76 31.47 33.11 32.65
35.67 37.85 32.16 30.68 31.11 31.23 32.99 33.62 33.98 34.69 33.73 34.16 34.49 34.21 34.52 32.92 33.05 32.18 31.61 31.11 31.06 31.31 31.04 32.01 31.55 30.27 29.45 30.28 30.31 30.40 31.68 33.84 33.93 32.55 31.52 29.98 27.48 26.15 26.91 28.19 27.91 27.12 28.26 28.66
34.67 35.80 31.67 29.80 31.86 32.01 31.62 32.41 33.11 33.01 34.29 34.23 35.12 33.48 32.64 33.18 32.10 31.77 30.19 29.97 29.94 29.82 30.42 30.36 29.76 28.72 27.55 27.95 28.15 29.57 30.49 31.46 32.22 31.59 31.68 31.48 28.63 26.38 25.07 25.26 25.98 26.25 27.11 27.81
35.36 31.50 29.81 27.69 32.90 31.57 30.39 32.10 33.65 32.28 31.57 32.41 32.00 32.07 32.10 31.79 30.54 30.97 28.68 29.10 28.94 28.05 28.53 27.78 27.38 26.96 26.08 25.81 25.85 27.76 29.28 30.18 29.61 29.51 30.19 30.43 30.95 29.77 26.75 24.50 23.16 26.69 26.73 27.43

GFSCGP_sfc_wetblb_111.txt.gz
Wetbulb
39.05 34.97 30.94 32.81 33.40 34.69 35.39 35.99 35.90 39.58 43.86 43.08 42.08 43.00 45.39 46.64 47.93 46.76 47.14 46.51 48.44 48.45 50.84 52.94 52.77 53.24 52.69 51.23 55.13 66.24 66.24 67.19 67.28 66.78 65.69 65.39 64.13 64.36 64.53 64.38 64.48 64.54 64.32 64.78
32.67 31.37 38.26 38.80 36.43 34.39 34.18 32.49 32.54 37.56 42.46 43.65 42.96 41.44 45.12 47.18 46.92 47.51 47.04 46.35 46.65 48.23 50.36 52.04 51.59 50.77 52.31 53.04 53.80 66.06 66.37 67.08 67.19 67.23 66.68 65.31 63.34 62.05 62.20 62.46 63.74 64.24 63.86 64.09
29.81 32.74 40.67 38.93 35.24 32.96 32.86 31.86 33.13 34.34 39.05 43.89 41.00 39.88 42.98 47.95 48.12 47.81 47.66 47.41 48.11 48.08 48.74 50.49 51.55 49.89 51.93 52.64 52.72 65.31 66.85 67.22 67.00 66.76 64.83 63.72 63.19 62.49 61.08 60.41 60.72 62.31 63.47 63.74
32.88 36.63 36.45 37.05 35.23 34.72 29.40 36.09 36.73 36.39 36.00 33.08 40.73 29.15 38.69 44.24 45.37 45.99 47.18 46.00 45.99 49.63 51.50 52.60 53.16 53.58 53.03 53.10 55.92 58.27 67.17 66.97 66.76 66.01 65.37 63.88 62.53 61.31 61.31 60.81 60.77 61.53 62.34 62.77
32.47 33.41 33.82 34.26 36.49 36.85 32.66 37.24 36.66 38.60 35.51 34.07 35.56 31.01 34.02 40.31 41.23 43.78 46.09 49.23 49.27 51.44 52.39 52.85 53.42 54.57 55.38 56.70 56.78 58.06 57.50 66.56 66.45 65.81 65.07 63.73 61.92 61.80 60.30 60.45 60.18 61.03 61.43 61.69
34.68 38.98 37.06 37.37 39.75 38.86 38.84 37.56 38.03 37.36 35.13 26.13 33.32 30.59 31.08 35.68 40.96 47.11 49.22 50.71 51.46 50.79 50.87 51.15 51.71 52.31 52.25 52.43 53.55 55.43 57.33 58.20 65.55 64.91 64.14 63.45 62.44 61.33 60.37 60.41 60.37 60.63 61.35 61.38
32.15 33.41 37.16 41.14 35.03 38.86 37.11 34.37 24.85 24.49 22.70 22.77 35.09 32.08 33.43 42.49 48.28 49.05 48.34 48.80 49.19 49.00 48.07 47.47 47.43 47.46 47.46 47.30 49.83 52.21 53.82 55.04 57.52 64.19 63.21 62.94 62.48 62.11 60.30 60.23 60.29 60.19 59.46 61.14
23.14 21.19 34.54 40.35 36.36 34.65 34.72 32.93 24.76 20.89 22.44 25.40 35.38 29.74 33.71 44.43 49.32 49.93 49.22 48.00 47.48 46.52 46.24 45.35 45.26 44.40 43.92 45.12 47.01 48.38 49.16 51.41 54.02 63.68 63.63 63.12 63.31 62.74 61.87 61.31 61.01 60.37 60.25 59.44
26.10 27.44 39.31 40.59 40.92 38.51 33.40 30.37 36.62 30.89 33.51 28.58 30.69 37.17 42.88 46.32 47.91 48.09 46.69 45.28 44.07 44.58 44.38 43.08 42.98 42.28 42.51 42.97 44.53 45.95 47.97 50.09 55.73 59.87 63.98 62.89 63.44 62.83 62.25 62.30 61.33 60.60 59.99 59.47
34.27 26.57 36.82 39.27 42.39 42.17 36.20 39.46 30.38 32.65 25.41 24.87 31.66 33.50 35.84 37.65 42.99 43.78 42.12 41.05 42.36 42.93 42.27 41.47 40.83 40.65 41.43 42.47 43.88 45.16 47.98 50.28 59.73 58.57 63.84 63.06 62.72 62.98 62.43 62.47 60.81 59.65 59.46 59.86
37.97 31.19 33.99 38.93 36.59 34.01 35.39 33.98 35.52 36.04 33.61 27.14 27.40 31.90 40.02 37.32 41.51 39.86 40.04 39.35 38.87 38.81 38.96 39.60 39.55 39.53 39.78 41.75 42.27 43.16 44.92 47.86 58.14 59.40 62.28 62.46 62.39 62.02 61.43 61.74 61.28 60.53 59.36 58.32
37.83 32.81 31.02 33.42 39.77 42.15 38.91 37.16 36.66 31.04 29.82 32.34 32.31 28.67 40.97 38.40 38.71 39.04 38.06 38.26 38.03 38.15 37.81 37.84 38.42 38.19 38.60 39.82 40.37 40.82 42.48 44.69 48.70 58.19 58.09 59.45 60.40 61.06 60.96 60.73 59.72 59.43 57.88 58.02
38.61 33.87 28.13 29.44 35.02 39.20 35.88 37.20 38.46 38.20 35.90 31.95 28.81 29.03 38.83 37.46 35.81 35.92 35.10 35.87 36.17 36.21 36.68 36.64 36.47 36.64 37.37 38.36 39.11 39.54 40.80 43.05 45.61 55.04 57.41 57.91 58.45 59.64 59.95 60.02 58.81 58.56 58.03 57.62
42.16 35.76 32.40 27.98 31.68 36.16 34.00 37.04 38.28 36.50 30.94 32.22 31.77 30.95 33.10 33.36 32.87 33.63 33.88 34.50 34.64 34.72 35.00 35.13 35.07 35.54 36.30 38.30 38.31 38.42 39.30 40.72 42.89 46.30 49.52 54.08 58.69 59.59 60.22 59.49 58.56 58.25 58.09 57.75
37.63 31.98 33.02 34.24 36.12 36.07 34.15 33.84 34.72 33.84 35.58 31.35 31.23 29.70 31.63 32.07 32.11 32.38 33.08 33.49 33.22 33.32 33.65 33.78 33.87 34.45 35.45 36.62 37.97 38.25 38.29 39.09 40.66 41.67 43.05 44.23 47.28 58.45 58.23 58.52 58.17 58.19 58.01 57.98
38.37 32.55 32.24 30.83 34.75 35.29 33.10 34.74 35.10 35.08 36.28 35.88 33.71 30.60 34.73 32.94 31.81 30.35 30.57 30.78 31.07 31.75 32.71 33.11 33.29 33.47 34.10 35.27 36.43 37.40 37.40 37.34 38.66 38.88 39.70 41.48 42.60 45.06 52.83 57.34 57.45 57.24 57.14 57.12
34.35 32.40 30.51 26.37 32.48 34.11 29.09 32.08 32.46 32.91 34.39 33.72 29.49 34.10 34.06 29.88 29.01 28.58 29.37 29.94 30.34 32.29 32.67 31.95 31.92 32.55 33.72 34.25 35.72 35.75 36.78 37.26 36.65 36.87 38.29 39.14 39.44 40.48 41.80 43.49 50.53 52.11 54.80 53.19
33.93 33.51 32.71 26.35 29.82 23.49 30.57 36.15 34.64 31.69 32.61 34.21 34.17 33.14 31.30 29.49 29.71 29.79 30.62 29.94 30.30 32.02 33.74 32.32 31.93 32.09 33.32 34.92 35.13 36.13 35.36 35.59 35.16 35.07 35.97 37.08 37.80 38.13 38.37 38.61 36.79 37.69 38.92 39.89
38.69 34.88 29.82 25.73 27.10 30.76 30.75 30.96 30.28 31.60 28.89 33.44 32.18 33.38 32.52 32.68 33.89 28.67 30.61 31.51 31.27 32.44 34.47 32.97 32.86 32.53 32.83 33.53 34.98 34.53 33.31 33.27 33.08 32.48 33.90 35.21 36.17 36.40 37.02 35.56 34.61 34.84 34.18 33.78
38.30 36.85 32.45 28.78 24.71 21.55 27.00 30.76 34.78 36.29 23.47 33.62 33.54 31.48 31.14 35.19 26.33 25.60 30.84 31.72 31.86 33.77 34.39 32.06 31.77 31.91 31.78 32.46 34.68 33.53 32.07 31.36 30.81 31.62 32.45 33.83 34.21 33.74 33.86 34.35 33.45 33.72 33.44 31.98
28.83 29.35 26.57 27.68 25.77 26.04 28.99 32.07 35.71 25.23 24.22 34.67 34.48 32.34 30.52 27.25 28.00 30.37 31.65 30.68 32.17 32.76 33.35 33.85 30.83 28.86 29.98 31.21 32.38 32.42 32.12 30.60 31.09 31.71 30.97 30.56 31.93 32.13 32.16 33.75 33.48 32.94 33.08 32.44
27.53 27.33 24.05 26.06 23.80 19.38 31.86 31.99 26.60 31.89 34.21 34.69 34.56 33.59 31.87 31.55 31.58 31.35 30.78 30.15 29.94 29.38 30.88 31.85 29.91 28.43 28.76 29.52 29.88 29.66 30.93 33.31 32.50 30.73 29.46 28.51 28.83 30.55 30.58 30.63 31.90 32.20 32.22 31.81
26.06 30.61 25.82 26.44 24.98 31.83 33.06 32.37 33.92 34.14 32.49 32.30 32.91 33.94 33.44 32.52 31.60 31.04 29.16 28.19 28.49 28.51 28.75 30.16 28.55 27.44 27.52 27.95 28.33 27.63 29.46 33.49 33.52 30.73 28.46 27.45 27.23 27.73 28.82 27.66 27.89 29.26 29.88 30.43
34.07 36.15 28.69 28.76 30.34 30.85 31.97 32.79 33.06 33.70 33.41 33.53 32.25 31.42 33.33 30.90 30.73 28.18 27.85 27.05 26.94 27.04 26.65 27.47 26.62 25.11 24.96 26.71 27.40 27.96 29.52 31.37 31.49 31.39 28.62 27.02 25.70 25.47 26.23 26.82 26.89 26.65 26.69 26.22
32.40 32.75 30.51 28.71 30.25 30.46 31.36 32.09 32.93 32.53 32.66 32.29 31.70 30.16 29.79 29.59 28.08 27.16 25.91 26.03 25.81 25.60 25.94 25.48 24.49 23.44 23.11 24.80 25.03 26.88 28.39 29.46 29.38 30.03 30.24 28.55 26.10 24.53 24.21 25.37 25.29 25.74 27.38 27.36
31.56 29.58 28.28 25.19 32.68 30.22 29.45 32.06 33.28 30.74 29.87 29.69 29.12 28.35 28.74 28.45 26.93 26.15 24.77 25.22 24.98 24.29 24.35 23.24 22.81 22.33 21.97 22.06 22.25 23.76 27.13 28.49 27.26 27.44 27.96 28.53 29.14 25.69 24.16 22.96 23.07 27.42 27.69 28.85

GFSCGP_sfc_wetblb_114.txt.gz
Wetbulb
34.28 29.22 27.03 33.09 32.59 32.70 31.60 29.42 28.83 33.40 39.09 38.25 38.48 39.52 42.64 44.45 46.05 46.54 46.89 46.35 45.44 46.99 49.69 51.37 51.71 52.73 49.86 49.49 52.36 64.02 65.54 66.79 67.64 66.50 64.96 64.27 64.25 63.66 63.75 64.37 64.38 63.67 63.91 65.02
31.76 26.83 32.76 34.82 37.06 34.67 31.86 28.85 28.34 33.36 37.59 37.12 37.48 38.95 41.82 44.49 45.03 45.03 46.86 45.47 45.97 45.38 46.70 48.99 49.24 49.77 50.17 50.43 52.19 62.66 65.13 66.59 67.18 66.97 66.54 65.26 64.43 62.74 63.51 63.26 63.57 64.01 63.29 63.50
30.13 33.11 36.57 33.63 32.35 32.94 32.30 29.22 29.05 29.19 33.90 36.14 37.42 36.02 39.78 44.47 46.49 48.10 48.27 47.47 47.19 48.13 46.97 51.15 52.78 53.10 53.87 54.41 54.93 60.10 64.40 66.59 67.18 67.23 65.47 62.75 61.62 61.34 60.22 61.74 62.77 62.90 63.41 63.46
32.73 36.98 35.83 33.19 30.98 33.58 29.86 35.59 33.49 31.86 30.31 25.13 39.42 27.71 36.14 39.53 41.54 46.08 45.64 45.07 47.38 50.42 51.34 51.50 51.10 50.49 50.19 50.94 54.34 56.02 59.35 65.34 66.81 66.89 64.91 63.57 62.99 61.49 62.54 62.50 62.69 62.44 63.03 63.01
30.65 33.86 33.92 31.57 31.68 35.68 32.18 36.69 34.11 32.45 29.57 32.89 33.87 31.51 32.65 37.26 38.12 42.38 46.21 48.92 48.25 47.78 47.35 46.82 47.11 47.35 46.81 47.90 49.36 52.16 54.13 57.05 64.52 65.29 65.50 64.26 63.84 63.86 60.56 61.22 60.78 62.07 62.25 62.48
33.84 38.60 36.38 34.59 36.28 36.52 38.69 35.76 36.26 34.50 32.52 25.37 31.68 31.23 29.01 35.27 40.25 44.99 46.83 46.38 45.44 44.42 43.94 43.82 44.28 44.79 44.46 45.09 46.23 48.17 49.39 51.67 55.33 59.43 64.16 63.90 63.20 61.99 60.55 60.61 60.54 60.86 61.21 60.58
31.90 32.61 35.39 37.44 31.50 36.24 35.98 31.03 19.77 22.12 23.17 22.47 33.65 31.70 33.30 42.78 45.03 43.97 42.64 42.31 42.53 41.97 41.00 40.48 39.97 40.44 41.63 42.29 43.63 46.28 46.49 47.79 50.99 52.90 58.82 63.68 63.92 61.94 61.07 61.06 61.08 60.50 60.14 60.23
23.49 21.68 30.94 36.94 33.24 31.09 33.04 31.21 22.92 18.32 20.84 24.40 34.79 27.06 33.48 45.05 44.64 43.89 42.53 40.93 40.61 39.72 39.47 39.21 39.29 39.15 39.43 41.49 42.22 43.64 45.28 46.97 50.22 50.86 53.58 62.90 63.52 62.37 61.98 61.20 61.25 60.64 60.62 60.55
24.42 25.27 35.81 38.95 40.53 38.84 32.69 28.58 34.38 28.73 30.93 25.53 27.54 35.22 40.05 40.85 40.20 39.63 39.25 38.87 37.33 37.64 37.98 37.82 38.52 38.41 38.77 39.86 41.06 42.84 44.11 45.66 48.71 52.86 57.88 59.45 62.81 62.35 61.47 61.09 60.96 60.70 60.67 60.88
34.49 25.23 35.20 36.92 40.21 40.83 36.63 37.28 26.68 28.19 19.45 16.97 27.65 30.42 30.83 35.18 34.99 36.96 36.66 36.46 36.77 36.58 36.53 36.84 37.49 38.29 39.02 39.60 40.71 42.46 43.13 43.70 46.54 49.56 57.21 59.60 62.24 62.55 61.92 61.02 60.27 60.20 60.15 59.84
37.61 32.89 30.87 34.87 35.61 32.58 33.05 32.81 33.51 32.29 30.03 21.71 26.28 25.63 33.78 32.15 34.67 32.69 35.81 35.48 35.89 36.01 35.99 36.60 37.28 38.15 39.27 39.44 40.42 40.76 41.63 42.15 43.93 46.99 54.44 60.20 62.09 62.33 61.38 61.15 60.84 60.22 59.60 59.50
38.05 32.60 27.14 33.51 39.06 41.39 37.58 35.19 35.01 24.82 26.99 32.39 29.94 25.25 34.32 32.15 34.31 34.32 34.27 34.81 35.30 35.75 35.82 35.95 36.59 37.22 37.54 38.61 39.16 39.25 40.32 40.80 42.47 45.11 49.47 58.38 59.37 59.64 60.82 60.76 60.48 60.18 59.52 59.77
38.75 33.61 28.12 30.18 34.06 38.69 35.33 37.35 38.11 36.49 33.67 31.29 26.95 26.22 34.76 35.41 33.66 33.84 32.92 33.77 34.06 34.51 34.66 34.82 34.95 35.34 36.28 37.12 37.94 38.68 39.30 39.71 41.13 43.09 45.48 49.12 50.92 58.89 59.03 59.14 59.55 59.46 59.08 59.02
41.39 34.06 29.85 25.12 30.01 34.28 33.60 35.74 37.39 36.15 30.36 27.88 27.80 27.71 30.58 31.16 30.53 31.39 31.95 32.41 32.85 32.79 33.37 33.59 33.46 34.21 35.29 36.37 37.01 37.25 38.45 39.04 39.63 41.05 42.13 42.94 45.73 48.81 58.93 57.62 58.30 58.47 58.59 57.99
36.57 30.03 32.53 34.50 35.23 34.98 32.48 35.17 35.27 34.29 32.88 27.60 28.07 26.54 27.84 28.92 29.24 30.30 31.04 31.53 31.29 31.62 31.97 32.03 32.18 33.05 34.25 34.82 35.46 36.66 37.04 38.33 38.71 38.74 39.57 40.60 42.24 43.76 46.80 56.90 57.08 58.13 58.10 57.97
37.68 30.95 32.10 30.36 33.76 33.34 30.43 31.96 33.03 34.30 33.13 30.90 29.21 26.58 30.60 30.34 30.07 28.99 29.60 30.33 30.64 31.62 31.40 31.19 31.57 32.18 33.30 33.86 34.46 35.45 35.72 35.75 37.70 36.96 37.33 39.02 40.50 40.84 40.88 43.32 53.58 57.46 57.51 57.31
32.41 31.25 30.45 26.40 32.29 31.63 24.58 29.35 30.25 30.72 31.69 32.51 28.49 30.08 30.40 26.66 26.65 26.95 28.15 29.73 30.55 32.47 30.68 30.59 30.81 31.25 32.46 33.66 34.45 33.67 34.12 35.14 34.60 35.72 35.80 37.04 37.81 38.74 38.84 39.12 39.18 41.10 43.83 49.84
33.73 32.15 31.46 27.13 29.48 18.84 28.65 34.25 32.58 29.63 31.70 31.94 31.90 29.88 28.46 27.30 28.23 28.82 28.75 28.59 29.39 32.17 30.23 30.09 30.24 30.79 31.60 33.36 34.69 34.58 33.86 33.12 32.58 32.41 34.20 34.84 35.89 36.34 37.48 37.60 35.75 35.08 35.60 36.43
37.77 34.16 28.55 26.91 25.97 27.50 27.84 29.10 28.21 28.94 27.12 33.57 30.34 32.68 30.48 30.29 31.63 27.16 30.44 31.16 31.01 32.34 30.25 29.11 29.39 30.51 30.69 31.38 33.30 33.16 32.15 31.45 30.88 30.26 30.63 32.62 33.80 34.01 34.85 33.76 34.15 34.51 33.58 32.89
36.25 35.01 30.99 28.68 22.53 18.39 25.07 29.24 33.08 33.50 22.96 33.61 31.66 29.76 28.83 32.08 22.98 24.27 30.01 31.31 29.73 31.11 30.08 28.45 28.30 28.34 29.05 29.65 31.93 32.45 31.45 30.16 29.19 29.31 29.36 30.64 32.05 31.91 32.42 32.78 33.24 33.28 33.22 32.59
28.10 28.92 24.97 26.85 23.90 24.84 27.78 31.27 34.98 23.68 23.47 33.57 32.11 30.03 28.26 25.17 26.70 29.45 30.91 28.26 28.63 29.46 29.58 29.18 27.32 25.83 26.45 28.77 30.10 29.31 30.80 31.14 30.52 30.01 29.40 29.01 29.60 30.28 30.53 32.11 32.15 32.33 32.15 32.32
27.52 25.55 22.67 25.29 21.13 18.20 30.60 30.24 27.15 30.31 33.07 32.76 33.04 31.84 29.63 30.06 30.68 28.84 26.55 26.61 26.96 26.30 26.88 27.14 25.72 24.97 26.06 27.56 27.87 27.45 28.12 32.48 31.77 29.71 27.94 27.30 27.77 28.78 29.14 28.92 30.24 30.26 31.10 29.68
25.28 27.54 24.80 26.10 23.79 30.67 32.08 31.73 33.40 32.94 31.02 30.12 29.92 32.74 32.08 29.31 27.11 26.62 25.53 25.31 25.35 24.59 24.67 25.46 24.00 23.91 24.47 25.38 25.79 25.83 28.07 30.58 31.56 27.86 25.72 25.16 26.29 26.36 27.04 26.92 27.35 27.20 27.90 27.95
32.77 34.63 26.09 26.31 29.94 30.24 31.46 32.25 32.30 31.36 31.39 29.41 29.05 29.55 29.72 26.67 26.12 25.20 24.81 24.35 24.03 23.43 22.80 23.56 22.84 21.57 21.41 22.61 23.72 24.52 27.18 29.27 29.70 29.23 26.05 24.90 24.29 24.64 25.82 26.31 26.87 26.48 25.86 25.64
30.18 31.58 28.39 27.84 29.55 30.31 31.40 31.92 31.24 29.81 30.01 28.73 28.51 28.09 27.29 26.17 24.61 24.26 23.42 23.25 22.91 22.19 22.21 22.02 20.87 20.49 19.92 20.87 21.39 22.26 24.25 27.36 26.80 27.48 28.24 27.07 24.59 23.48 23.26 25.16 26.25 26.50 28.10 28.30
29.90 28.38 27.99 25.31 31.35 29.93 29.78 31.76 31.34 27.95 26.38 27.05 26.36 25.37 26.35 25.39 23.41 22.90 21.21 21.27 21.73 20.55 20.58 19.50 19.55 19.33 18.76 19.52 19.90 20.74 22.62 25.81 26.31 25.72 25.99 26.68 26.85 23.53 22.69 21.93 22.13 27.47 27.90 29.01

GFSCGP_sfc_wetblb_117.txt.gz
Wetbulb
33.02 26.87 22.92 26.66 30.43 31.99 31.24 29.20 27.40 30.02 33.95 32.52 31.84 33.11 36.40 40.35 42.27 42.64 44.58 45.95 47.01 48.68 49.49 49.41 50.63 50.49 47.76 46.19 51.20 64.28 65.76 66.87 66.96 66.08 64.93 64.91 64.15 64.59 64.64 65.23 65.40 65.60 65.80 64.76
30.94 25.49 32.63 33.46 32.66 30.65 30.12 28.54 27.78 31.64 34.88 33.38 30.96 31.17 36.27 38.31 41.54 43.64 44.27 43.49 44.95 48.53 49.01 51.10 53.15 53.05 52.20 52.83 50.54 56.10 64.23 65.90 66.85 66.80 66.22 66.08 65.67 63.78 64.41 62.79 63.29 64.57 64.50 64.38
28.57 31.28 35.87 33.80 31.04 29.07 28.22 26.51 28.66 29.55 33.48 33.21 30.26 28.14 31.89 37.95 42.53 45.06 46.40 47.16 46.22 46.42 50.33 50.28 48.72 46.99 47.63 48.48 50.25 54.68 60.83 63.98 66.00 67.07 66.31 62.44 62.11 61.60 61.14 62.10 63.07 63.39 63.48 63.55
30.61 35.14 34.89 33.28 31.34 31.62 25.30 32.48 32.81 32.35 30.43 22.15 32.83 21.62 32.70 37.90 40.00 42.75 43.47 44.01 45.29 46.43 46.96 46.11 45.26 44.60 44.49 45.46 47.62 50.24 53.20 59.39 64.54 65.43 64.88 62.52 63.26 62.15 63.21 63.57 63.91 63.15 63.22 62.58
28.62 31.23 31.54 30.12 32.00 35.04 29.93 34.21 33.89 31.94 29.59 25.67 26.62 25.27 29.09 37.13 36.40 40.98 41.84 41.71 40.93 40.77 41.37 41.51 42.08 43.07 43.35 43.87 44.71 46.98 49.10 51.51 55.22 60.18 65.10 63.65 62.29 62.38 60.63 61.21 62.36 62.04 62.43 62.77
31.54 36.79 34.55 33.34 35.31 35.37 35.71 34.19 34.16 32.61 28.34 17.99 25.77 27.22 29.07 35.71 39.57 39.60 39.22 38.74 38.67 38.62 38.85 39.07 40.52 41.45 41.52 42.31 43.45 45.80 47.24 48.59 51.49 53.78 55.85 63.82 63.26 61.87 59.90 59.54 61.05 61.57 61.45 61.59
30.37 31.27 35.04 36.63 31.34 34.44 33.30 30.01 21.42 16.14 17.27 20.63 31.01 28.83 31.16 38.50 38.73 38.15 36.95 36.74 37.16 37.37 37.49 37.19 37.38 38.33 39.66 40.18 41.34 43.90 45.49 46.65 48.01 51.29 52.79 55.02 63.57 62.54 61.78 61.18 61.14 61.04 61.11 60.95
22.75 22.45 29.74 33.72 32.02 28.13 29.06 29.79 23.80 16.81 19.42 23.09 32.85 27.32 33.08 38.43 39.18 39.43 38.44 37.30 36.74 36.43 36.70 36.82 37.66 38.32 38.52 39.38 40.68 41.44 43.21 45.04 46.49 48.52 50.52 53.53 56.16 63.73 62.67 62.73 61.95 61.08 61.01 61.32
26.69 25.45 34.01 37.55 38.59 35.61 31.43 26.62 33.01 26.36 29.33 25.06 29.13 34.43 35.70 36.23 35.47 33.83 35.47 36.56 36.07 36.18 36.28 36.56 37.42 38.48 38.77 39.01 39.76 40.69 41.89 43.32 44.42 45.65 47.84 50.46 56.23 61.06 61.98 61.71 61.49 61.55 61.24 61.21
33.22 27.66 34.83 36.53 38.33 38.82 36.02 36.82 26.31 26.64 21.24 19.51 26.66 26.45 25.87 29.93 31.79 33.11 32.55 33.77 35.71 35.87 35.91 36.39 36.82 37.63 38.56 39.09 39.74 39.98 41.32 41.79 42.91 43.83 46.07 49.70 55.63 58.84 62.65 61.36 60.81 60.98 60.93 60.66
37.00 33.30 30.01 34.69 32.20 32.58 33.73 30.90 31.56 32.47 30.43 24.14 22.29 23.91 32.58 30.15 32.40 30.93 32.19 33.50 34.55 35.26 34.96 35.25 35.90 37.37 37.94 38.65 38.68 39.08 39.81 40.35 41.12 42.51 44.93 47.68 50.66 59.80 62.00 61.18 60.64 60.70 60.09 59.76
38.29 33.58 27.39 31.37 37.35 40.64 37.37 32.90 32.46 24.02 25.32 30.60 25.87 22.84 33.85 31.85 32.76 33.59 32.01 33.12 34.11 34.86 34.26 34.56 35.09 35.74 36.34 36.77 37.67 37.69 38.41 39.20 40.34 41.73 43.34 45.06 47.08 50.72 61.21 60.48 60.17 59.40 58.99 59.54
38.10 33.36 25.88 28.86 34.84 38.34 34.91 36.05 36.06 34.81 33.81 27.45 24.35 23.78 34.00 34.12 32.07 32.46 31.12 32.17 32.68 32.97 33.12 33.39 33.67 34.17 34.92 35.75 36.25 36.93 37.45 38.00 39.22 40.41 41.20 42.40 43.77 45.99 48.62 58.41 59.79 59.35 59.06 59.06
40.30 34.39 30.20 25.03 29.32 33.86 33.03 35.08 36.38 34.10 26.93 25.81 25.34 25.16 27.80 29.01 28.91 30.02 30.82 32.14 32.12 31.92 31.71 32.11 31.94 32.76 34.05 34.96 35.45 35.62 36.39 36.89 37.95 38.62 39.09 39.46 41.22 42.92 43.80 48.93 58.30 59.09 59.06 58.83
37.44 30.56 31.32 30.98 32.71 32.23 32.56 35.74 34.62 31.88 31.50 25.64 25.57 24.05 26.04 27.40 28.25 29.40 30.97 32.16 30.98 30.67 30.58 30.86 31.07 31.51 32.93 33.80 34.34 34.64 35.02 35.60 36.04 36.61 37.01 37.74 39.15 41.09 41.25 42.81 44.91 54.99 58.15 58.23
36.30 31.00 32.03 28.89 31.20 29.35 27.06 29.67 31.65 30.46 29.11 27.79 26.45 23.58 28.82 29.19 29.38 28.50 29.38 30.49 29.57 28.69 29.15 29.60 30.22 30.72 31.46 32.87 32.79 33.22 33.41 33.96 34.42 33.83 34.24 36.39 37.62 38.09 38.72 39.10 39.44 39.15 41.69 52.52
32.21 31.02 30.28 26.77 31.56 30.73 22.61 26.93 28.40 28.79 30.91 31.75 24.53 26.11 28.51 25.95 25.89 26.70 28.22 29.41 29.34 27.43 27.14 27.67 29.09 29.60 30.60 31.83 33.45 31.94 32.30 32.93 32.50 32.27 32.60 33.41 35.49 36.12 36.54 37.40 37.45 36.70 35.69 37.04
32.88 31.93 30.72 27.14 29.72 17.83 26.78 31.75 32.00 28.49 29.62 31.25 28.50 27.87 27.20 26.18 27.59 28.67 29.34 28.46 29.71 27.27 26.33 26.05 27.44 28.60 29.45 31.15 32.35 33.35 31.66 31.18 30.49 30.03 30.69 31.77 32.56 33.61 35.05 35.44 35.02 35.91 36.10 34.16
35.65 32.83 29.89 25.86 23.10 26.47 27.11 27.98 27.71 27.68 26.32 31.10 29.70 29.62 28.46 29.06 30.43 26.70 29.76 29.56 29.29 27.28 26.81 26.14 26.47 27.42 28.24 28.51 30.73 32.17 30.80 29.41 29.02 28.29 28.45 29.64 31.24 31.04 31.78 32.27 33.08 34.05 34.38 33.60
34.16 33.62 31.09 28.61 21.96 18.27 24.85 28.65 33.09 32.38 21.81 31.59 29.72 28.19 27.03 31.16 21.96 23.32 27.77 27.46 27.24 28.27 26.59 25.13 25.42 25.43 25.61 27.42 29.41 29.29 30.44 28.20 26.93 27.51 27.78 28.75 29.19 29.69 29.66 30.75 30.81 32.55 32.50 32.03
27.60 28.26 24.50 25.99 22.80 23.99 27.07 30.56 35.37 23.38 22.70 32.82 29.69 27.97 25.83 23.33 25.09 27.24 25.69 23.76 24.65 25.14 25.11 25.47 24.41 23.19 24.18 26.05 27.28 26.57 28.24 29.62 27.25 27.45 26.90 26.76 27.45 28.45 28.61 29.69 30.30 30.00 30.61 31.17
25.28 24.36 22.84 24.88 20.23 17.98 30.15 30.15 25.90 29.55 31.47 32.54 31.80 29.65 28.88 27.83 25.86 24.95 23.06 22.01 23.30 22.78 23.00 23.24 22.42 21.79 22.62 23.68 24.13 23.52 25.20 29.42 31.05 26.70 24.93 24.50 24.94 26.66 27.95 27.83 28.50 28.85 29.01 28.62
23.87 26.74 24.15 25.03 22.99 29.54 31.36 30.53 32.54 31.79 27.24 26.95 29.74 30.98 27.83 25.63 24.52 24.16 22.98 22.85 22.61 21.87 21.33 22.49 21.30 21.13 21.51 22.13 22.47 21.83 24.35 27.97 28.58 28.44 25.11 24.08 24.52 25.39 25.70 25.91 26.19 27.24 27.59 27.59
30.85 33.01 26.15 25.66 28.88 29.37 30.29 30.35 29.66 28.86 26.82 27.57 28.56 27.31 26.31 24.00 23.86 22.55 22.27 21.40 20.69 20.35 19.74 20.63 20.11 18.95 19.29 20.78 21.58 21.77 23.66 26.88 26.78 26.89 27.64 24.93 23.24 23.16 25.43 26.27 26.68 26.75 26.66 25.46
28.29 30.45 25.33 26.40 29.11 29.91 30.60 29.25 28.60 27.55 27.45 26.77 27.44 25.86 24.62 23.29 21.75 21.18 20.34 19.96 19.47 18.70 18.90 18.81 18.46 18.13 17.69 19.53 19.87 20.50 22.28 25.22 25.50 25.80 26.09 26.57 23.97 22.71 22.19 23.64 25.87 26.21 27.60 28.68
29.73 28.54 25.53 23.07 28.99 28.57 28.96 29.36 28.56 25.68 24.91 25.40 24.42 23.12 23.66 22.90 20.46 19.90 18.80 19.35 18.79 17.86 17.90 17.01 17.27 17.36 17.01 17.80 18.41 19.50 21.29 23.76 24.85 24.46 24.78 24.40 25.15 22.75 22.04 21.04 20.47 25.58 26.89 27.98

GFSCGP_sfc_wetblb_120.txt.gz
Wetbulb
31.68 26.42 23.05 26.01 28.21 30.19 28.45 26.97 25.49 29.21 33.88 32.31 31.24 30.69 32.87 36.36 36.91 36.16 39.85 40.42 42.35 43.86 48.30 48.47 51.98 51.48 47.11 48.04 47.09 62.21 66.23 66.85 66.43 66.03 64.57 64.68 63.90 64.81 64.93 64.80 64.92 64.55 64.72 64.23
29.48 24.66 30.86 32.28 31.03 28.69 27.47 24.92 24.68 29.49 33.30 32.29 31.32 31.11 33.35 35.38 35.57 36.42 38.56 39.67 42.55 43.76 46.11 49.48 48.26 48.06 47.21 47.25 48.49 50.83 60.48 65.48 66.27 66.56 65.93 65.38 65.16 65.47 65.40 65.48 64.98 65.14 64.98 64.23
26.29 29.13 34.27 32.47 30.37 28.32 28.04 25.95 26.06 25.50 29.81 31.72 31.29 28.81 30.60 35.08 36.27 37.01 38.57 42.23 43.63 44.00 45.34 45.59 45.20 44.69 43.85 43.95 44.74 47.79 51.05 61.55 65.98 66.77 66.34 62.98 63.07 61.68 62.58 62.86 63.84 64.66 65.32 64.56
29.10 33.47 32.20 31.24 30.48 30.55 24.57 31.43 30.61 28.83 26.34 21.47 30.99 21.44 29.13 32.58 34.50 39.15 39.15 38.23 37.90 37.92 39.45 40.35 41.23 42.62 41.42 42.02 44.16 46.19 49.05 52.76 60.25 65.42 65.33 64.02 63.75 62.93 63.79 64.18 64.26 64.43 65.04 65.01
28.05 29.79 29.97 28.79 30.07 33.13 28.64 33.89 31.49 30.04 27.36 27.70 27.00 21.52 24.79 32.57 35.68 36.21 36.69 37.44 37.23 37.20 36.94 37.15 38.03 39.78 41.35 41.43 42.60 44.84 49.01 51.36 53.57 56.01 64.06 63.23 63.24 63.18 60.97 62.01 62.81 64.07 62.76 63.18
30.80 34.15 31.89 31.19 33.80 33.74 34.51 31.28 30.93 30.31 28.52 21.28 26.16 22.94 21.89 32.04 35.92 35.80 36.68 36.18 36.58 36.85 37.26 38.43 39.19 39.64 40.00 41.55 41.99 43.88 46.35 48.42 50.82 53.25 54.66 58.60 62.44 60.15 60.02 60.58 61.66 62.37 62.15 62.06
28.80 29.89 33.05 34.93 29.46 32.79 30.97 26.38 17.73 15.92 15.58 19.61 29.54 22.64 26.52 32.85 35.85 36.06 35.52 35.75 36.42 36.62 36.94 37.27 37.81 38.62 39.70 40.06 41.03 42.89 44.22 45.65 47.24 49.36 50.85 53.02 55.22 59.19 60.88 61.13 62.01 61.40 61.42 61.45
22.53 22.32 29.09 33.84 31.14 27.93 27.55 26.75 20.40 16.02 18.75 22.48 31.17 23.27 28.25 34.59 35.68 35.61 36.48 36.45 36.33 36.18 36.75 36.98 37.63 38.05 38.54 39.48 40.34 40.95 41.92 42.92 44.41 46.05 47.40 49.86 52.36 55.81 59.42 62.37 61.42 61.73 61.52 61.77
27.41 25.13 33.58 35.99 36.12 33.51 28.20 25.40 30.93 25.68 26.89 23.37 28.37 29.57 32.96 33.45 32.35 32.59 33.19 34.24 35.25 34.92 35.72 36.02 37.22 37.56 38.02 38.43 39.09 39.89 40.46 41.50 42.55 43.70 45.70 48.04 50.02 52.90 56.33 60.47 61.63 61.30 60.96 59.73
34.15 26.37 34.45 36.83 37.44 36.01 32.86 36.51 26.88 25.88 19.54 18.40 25.93 24.35 23.17 27.41 28.96 30.68 30.46 31.37 33.46 35.15 34.82 35.47 36.13 36.78 37.76 38.23 38.64 38.97 39.72 40.05 40.97 42.19 43.61 45.64 47.33 49.40 51.61 57.42 62.40 60.68 60.74 60.35
36.69 33.40 30.32 34.59 32.08 29.22 31.71 29.72 31.42 31.59 28.80 22.55 20.69 21.90 30.94 28.28 30.23 28.54 30.18 31.59 31.83 32.94 33.46 34.67 35.31 36.40 37.00 37.53 37.59 37.66 37.70 38.32 39.28 40.59 42.06 43.41 44.67 46.66 49.22 57.96 60.87 61.21 59.83 60.06
36.63 34.16 27.50 30.23 37.24 38.08 37.36 31.92 31.49 23.04 22.44 27.92 21.70 19.96 32.97 30.97 31.12 31.24 30.90 31.82 32.23 32.39 32.00 32.98 33.64 34.67 35.06 35.63 36.06 36.34 36.65 36.89 38.13 39.67 40.60 41.54 42.72 44.13 45.68 47.91 53.05 60.11 59.75 59.63
36.93 32.82 26.39 25.63 33.28 36.38 33.97 35.14 35.52 33.31 31.26 26.77 20.97 20.72 32.29 31.39 30.45 31.16 30.51 31.11 31.58 32.30 32.22 32.26 32.34 32.56 33.60 34.04 34.54 35.06 35.55 36.03 36.62 37.62 38.50 39.45 39.90 41.33 42.34 44.34 47.12 54.86 59.41 59.67
40.27 33.60 26.98 21.66 26.05 32.71 29.76 33.73 35.45 32.68 24.15 23.51 23.15 22.21 25.55 27.37 27.45 29.13 30.13 30.35 30.19 30.19 30.30 30.46 30.44 31.29 32.34 33.21 33.25 33.69 34.06 35.04 35.81 36.06 36.00 36.78 38.21 39.05 40.40 41.95 42.54 44.18 47.96 58.33
36.63 30.25 31.46 30.45 30.13 30.34 29.38 31.02 32.81 29.65 29.31 23.34 23.20 21.74 24.01 25.89 27.13 28.47 30.56 29.48 27.56 27.30 28.38 29.01 29.01 29.57 30.98 32.10 32.25 32.48 33.04 33.40 34.31 34.60 34.78 35.01 37.04 38.11 38.36 39.80 40.65 41.33 40.88 42.98
36.86 29.89 32.26 27.60 33.15 28.71 25.27 27.32 29.61 29.60 28.04 26.02 24.60 21.78 27.67 28.66 28.75 27.41 28.47 28.10 25.94 25.18 25.61 26.79 28.05 28.52 29.02 30.61 32.27 30.97 30.74 31.42 32.41 32.24 32.31 34.24 35.25 35.95 36.42 36.87 37.96 38.74 39.00 39.27
32.07 30.89 28.89 24.19 30.00 28.92 21.80 25.65 26.39 27.37 27.75 28.58 22.34 24.95 27.42 25.23 25.12 25.56 26.39 27.81 25.10 24.56 24.84 24.78 25.35 26.38 27.76 29.18 31.27 31.11 29.35 30.70 30.08 30.07 30.77 31.47 33.01 33.88 34.64 34.97 35.56 35.92 36.02 36.94
31.58 32.15 30.09 26.80 28.79 17.16 26.16 32.17 31.12 26.99 28.25 28.61 26.42 26.15 26.36 25.57 26.40 27.09 27.45 26.51 24.75 24.44 23.95 24.18 24.66 25.17 27.04 28.68 30.16 32.04 29.45 28.29 28.50 28.14 28.64 29.62 30.55 30.96 32.55 33.21 33.14 33.54 34.71 34.30
35.17 32.11 29.83 24.18 22.31 25.39 27.08 27.21 27.66 27.38 25.06 29.06 28.53 27.56 27.30 28.73 28.79 23.76 26.00 26.01 25.39 24.79 24.55 24.34 25.12 24.91 25.25 25.79 28.79 29.89 30.62 26.23 25.78 25.84 26.06 27.43 29.25 29.22 29.74 29.99 31.01 32.14 32.09 32.21
33.39 32.87 31.58 26.57 22.16 17.71 23.67 27.90 31.74 32.26 21.94 29.11 28.24 26.04 25.42 29.33 20.39 20.37 23.44 23.94 22.96 23.62 23.44 22.90 23.19 22.89 22.93 23.13 26.18 27.37 28.32 28.64 23.88 23.99 24.78 26.04 27.39 28.02 28.28 29.34 29.41 30.87 31.59 31.17
26.65 27.56 24.65 25.36 22.25 23.18 26.54 30.47 33.76 23.06 21.71 29.47 27.29 25.05 25.13 22.78 22.16 23.05 22.59 20.04 21.23 22.60 22.33 23.01 22.48 21.00 21.32 22.45 24.01 24.29 25.94 26.36 28.29 26.20 24.90 24.74 26.32 26.88 27.32 28.64 29.53 29.68 30.07 30.25
23.95 23.55 22.67 25.24 20.79 18.16 29.63 30.56 25.61 28.84 31.03 30.56 27.75 27.63 23.98 23.68 23.74 23.06 20.14 19.73 20.92 19.93 20.59 21.34 20.52 20.24 20.79 21.50 22.44 22.55 23.07 27.04 28.14 27.29 25.07 24.16 24.88 26.71 27.10 27.06 27.61 27.68 28.29 28.44
23.33 25.72 23.89 24.12 22.10 28.80 29.39 29.35 30.19 28.41 26.36 28.02 28.03 26.39 25.59 23.85 22.67 22.41 20.85 20.20 19.50 19.05 18.77 20.15 19.16 19.30 20.14 20.48 21.20 20.71 22.80 26.06 26.73 26.51 26.17 24.21 24.46 24.39 26.35 25.83 26.30 26.76 26.81 25.97
30.37 31.69 26.08 25.89 27.35 27.75 27.84 28.15 27.83 27.35 26.62 28.23 27.06 25.45 24.49 22.46 22.19 20.78 20.10 19.14 18.05 17.36 17.28 18.24 18.19 17.28 17.74 19.45 20.64 20.97 22.77 25.88 25.84 25.03 25.53 25.74 23.24 23.15 23.54 24.99 25.94 25.02 25.87 25.15
27.84 29.23 25.05 26.37 29.02 29.01 27.44 27.04 27.12 26.95 27.53 26.19 25.69 24.67 23.08 22.10 20.59 20.13 19.10 18.18 17.56 16.62 16.72 17.34 16.94 16.79 16.59 17.78 18.37 19.32 21.38 24.44 24.25 24.43 24.28 24.13 24.53 22.58 22.15 22.59 23.79 23.99 25.17 26.26
29.26 28.08 25.02 18.21 28.35 27.23 26.91 26.98 27.67 25.66 24.83 24.92 22.83 21.61 21.93 20.84 19.25 18.95 17.65 17.93 16.44 15.49 15.85 15.24 15.81 15.71 15.40 15.94 16.56 17.65 20.04 23.37 22.51 22.55 22.71 22.64 22.64 21.51 21.19 19.72 19.47 23.86 25.20 25.59

GFSCGP_sfc_wetblb_123.txt.gz
Wetbulb
36.01 32.23 29.46 31.94 33.64 33.85 32.40 30.29 28.72 32.00 35.59 33.46 32.51 33.06 35.71 38.84 39.77 39.91 41.65 41.76 42.15 43.03 47.32 51.95 53.71 53.76 52.94 54.73 59.83 67.45 67.98 67.93 67.11 65.95 65.55 65.50 64.83 65.95 66.20 66.65 67.35 67.58 67.83 65.91
33.19 29.15 34.23 34.06 33.39 31.26 31.02 28.26 28.55 32.44 35.27 34.38 33.17 32.24 36.04 37.86 38.70 41.32 41.19 41.20 41.76 42.92 45.59 50.33 49.83 49.64 50.03 50.78 52.44 55.33 63.01 68.38 67.62 67.25 66.91 67.16 66.94 66.95 67.08 66.98 66.75 67.36 67.26 67.53
29.65 32.59 35.36 33.35 32.17 30.14 30.60 28.88 29.44 29.04 33.40 35.21 33.33 31.40 34.74 39.21 41.07 41.89 41.46 41.53 41.25 41.39 42.46 43.71 45.34 46.33 47.27 47.83 49.21 52.04 54.75 59.04 67.83 68.76 68.15 67.22 67.74 66.96 65.79 65.68 65.32 65.67 67.12 67.26
31.81 35.08 33.02 31.78 30.06 31.82 27.73 33.60 32.23 30.67 29.49 24.51 33.38 22.56 32.24 36.79 38.68 39.22 37.74 37.81 38.25 38.69 40.96 41.81 42.53 43.77 44.49 45.41 47.94 51.32 55.15 57.65 60.57 65.83 67.53 66.03 65.25 64.23 65.54 65.13 65.23 65.37 66.79 67.30
32.35 31.78 32.14 31.07 31.76 34.70 30.88 35.05 32.78 32.24 29.78 29.01 29.59 26.11 30.91 35.44 32.00 34.96 36.56 36.28 37.05 37.98 39.13 39.63 40.90 42.18 43.18 44.17 45.71 49.48 53.12 54.09 55.07 59.65 63.23 66.23 65.50 67.18 67.60 66.82 65.34 65.26 65.76 66.91
33.18 36.91 35.01 33.90 34.88 35.10 35.87 33.09 33.29 33.05 30.06 22.40 29.15 27.24 28.03 28.35 30.45 33.23 34.85 36.14 36.66 37.28 38.17 39.00 40.15 40.94 41.26 42.84 44.85 47.23 48.93 49.34 51.54 53.25 54.15 56.70 63.90 65.67 64.81 66.01 65.23 64.85 65.39 65.29
31.52 32.32 35.28 35.84 32.06 34.67 33.56 29.71 23.31 22.28 22.91 22.02 31.67 27.82 27.89 32.17 32.76 33.08 32.58 34.01 35.99 37.16 37.44 38.02 37.77 38.60 39.22 40.05 41.53 43.45 44.65 44.76 47.81 48.75 50.01 51.35 53.16 55.57 59.84 65.35 65.12 64.70 64.22 63.48
26.69 26.10 32.53 35.87 34.11 31.50 31.36 30.55 24.19 16.13 19.78 22.77 31.00 26.07 27.40 33.72 34.81 34.06 32.85 33.99 34.01 35.43 36.45 36.99 37.87 37.76 38.12 38.94 39.57 40.73 42.07 42.89 44.58 45.64 47.12 49.18 51.16 52.96 55.17 57.80 61.72 64.17 63.56 64.24
28.65 27.71 35.91 35.89 36.89 36.41 30.49 27.95 33.32 26.27 27.46 23.08 27.69 29.00 33.16 32.22 31.31 31.90 31.78 32.44 31.70 32.63 34.31 35.57 36.81 37.98 38.74 39.50 39.90 39.84 40.48 41.45 43.29 43.58 46.05 46.85 48.76 49.36 50.22 52.81 56.16 61.38 64.44 64.99
33.09 28.80 35.20 37.10 38.82 38.42 35.61 37.12 28.33 28.76 20.15 20.26 25.67 24.26 22.68 26.52 27.79 30.06 29.87 29.80 31.16 32.01 32.32 33.49 35.19 35.90 37.57 38.41 39.27 39.47 39.93 38.56 40.10 41.32 42.90 44.13 45.06 46.44 48.06 50.44 54.32 58.59 62.45 63.81
35.13 33.10 31.97 35.74 33.67 32.53 33.35 31.87 32.78 32.64 30.03 23.85 22.00 21.93 29.95 28.22 29.43 28.89 29.68 30.42 30.46 31.20 31.44 31.94 33.34 34.82 35.51 36.60 37.26 37.33 37.50 38.00 38.09 39.22 40.79 42.03 42.29 43.70 45.34 46.83 47.91 51.00 60.15 62.40
36.52 33.73 28.32 31.50 37.76 39.24 37.97 34.69 34.24 27.95 26.23 29.55 26.99 21.26 31.89 30.86 30.52 30.71 29.65 30.34 30.97 31.06 31.39 31.71 31.98 32.58 33.58 33.99 35.00 35.87 36.21 37.03 37.91 38.32 39.12 39.84 40.94 41.51 42.43 43.45 44.82 46.27 49.00 61.82
36.64 31.52 25.08 26.76 32.86 35.82 34.17 36.22 37.08 34.84 32.95 26.35 25.06 21.54 31.30 30.68 29.70 30.77 28.30 28.84 29.51 29.78 30.20 30.87 30.86 30.92 32.01 32.77 33.24 33.92 34.96 35.52 37.38 37.78 37.91 38.04 38.33 39.36 39.60 41.12 42.30 43.67 44.62 47.66
39.73 32.15 26.96 22.28 25.90 29.58 28.51 32.43 35.53 34.52 28.31 24.39 22.49 21.32 24.88 26.85 26.97 28.85 28.62 28.88 28.18 28.65 28.62 28.70 28.61 29.64 30.63 32.58 31.28 32.60 33.00 34.55 35.61 36.49 36.02 36.16 37.06 37.62 38.17 39.33 40.03 40.78 42.46 43.16
37.23 31.30 32.13 31.19 30.64 29.18 27.53 29.13 30.53 27.66 29.22 24.88 22.98 21.07 23.49 25.50 26.37 27.67 28.91 27.93 26.25 26.22 26.45 26.65 27.01 27.74 28.82 30.48 32.45 31.77 32.16 33.30 34.07 33.97 34.50 34.41 35.41 36.95 37.64 37.49 38.03 38.51 39.00 40.37
37.14 31.29 32.49 28.43 32.24 29.51 25.18 27.34 28.68 28.82 27.08 25.46 24.53 21.54 27.75 27.76 27.74 26.79 26.21 25.86 24.44 24.40 25.12 25.31 25.82 26.36 27.36 29.12 30.83 29.99 30.47 31.46 32.51 32.16 32.20 33.49 34.35 34.57 35.80 36.30 36.88 36.74 36.66 36.61
32.68 32.75 30.87 25.93 30.83 29.35 22.72 25.43 26.70 27.11 27.87 28.58 22.77 25.10 27.05 24.60 24.23 24.41 25.21 24.91 23.86 24.14 24.48 24.49 25.15 25.67 26.35 27.60 30.28 30.68 29.11 30.27 30.10 29.79 30.17 30.76 32.80 32.89 33.18 33.91 34.62 35.55 35.46 34.70
32.01 31.48 31.93 27.84 29.74 18.54 27.03 32.39 30.42 27.08 28.29 28.15 26.76 26.80 26.44 24.72 24.92 25.24 25.19 23.97 23.36 23.82 24.13 24.20 24.08 24.30 25.60 27.13 29.19 31.09 30.82 29.29 28.69 28.05 28.01 29.29 30.37 30.88 32.23 32.78 32.82 33.07 33.68 33.48
34.73 32.02 29.89 26.18 23.81 26.14 27.96 27.64 27.75 27.69 24.97 28.97 28.80 27.79 27.85 27.47 28.35 23.39 24.92 24.57 23.44 23.89 24.25 24.43 24.83 24.16 24.91 25.67 28.08 29.27 29.43 29.62 27.54 26.63 26.39 27.64 29.09 29.23 30.11 30.29 30.83 32.34 33.08 33.07
33.89 34.02 31.53 27.91 22.72 19.48 24.39 28.43 32.18 32.81 22.35 28.65 27.47 27.33 27.67 30.41 25.20 21.85 22.91 23.13 22.59 23.91 24.35 23.80 24.36 24.29 23.89 25.14 27.24 27.24 26.95 27.80 26.75 26.57 26.30 27.25 28.29 28.31 28.72 30.08 30.26 31.66 32.14 32.00
27.16 28.01 25.38 26.31 23.12 23.61 27.13 29.99 33.52 23.70 24.21 28.42 27.70 26.34 27.26 23.58 24.16 23.53 23.15 21.67 22.19 22.87 23.06 24.15 23.98 22.94 23.23 24.86 26.03 24.86 25.62 26.13 28.24 29.29 27.80 27.49 28.08 28.79 29.18 29.56 30.33 30.34 30.97 31.24
24.89 24.67 23.96 26.23 22.76 19.95 29.53 31.65 26.91 29.38 31.32 29.86 28.47 26.81 25.20 25.01 24.26 22.92 21.52 21.13 21.42 20.87 21.85 22.77 22.60 22.49 23.10 24.45 24.67 23.38 23.75 27.06 28.16 28.00 28.20 27.38 27.34 27.94 28.51 28.44 29.40 29.42 28.82 28.22
24.93 27.20 25.45 25.29 23.88 28.98 29.61 29.01 30.83 32.20 30.72 29.84 28.08 27.67 26.84 24.92 23.57 22.87 21.56 20.81 20.31 20.42 21.16 22.17 21.88 22.29 22.29 23.12 22.95 22.03 23.87 26.78 27.42 26.92 26.46 27.38 27.42 27.43 27.62 26.66 26.56 27.01 27.63 26.71
30.72 32.00 26.51 26.31 27.47 27.64 28.16 28.55 29.42 30.84 30.55 29.72 28.68 27.27 26.55 24.24 23.47 21.74 21.15 20.37 19.72 19.76 20.03 21.10 21.06 20.41 20.42 22.12 22.35 22.54 24.27 25.95 26.95 25.83 25.72 26.61 26.50 26.36 26.50 26.94 26.45 25.53 26.32 25.65
30.55 30.70 27.92 26.76 28.91 28.03 27.77 28.03 28.50 28.26 28.08 26.65 26.69 26.24 24.81 23.89 22.10 21.67 20.16 19.41 19.07 18.95 19.34 19.85 19.54 19.24 19.09 20.71 21.04 21.88 23.33 25.17 25.15 25.36 25.16 24.70 25.62 25.12 24.93 25.51 24.31 24.33 24.89 24.67
31.12 28.46 26.09 25.35 30.41 29.41 27.86 28.55 29.08 27.60 25.87 25.79 24.76 23.24 23.72 23.43 21.27 21.07 19.48 18.97 18.37 18.04 18.74 18.40 18.22 18.06 18.19 19.40 19.50 20.27 22.23 23.83 23.26 23.06 23.06 23.02 23.91 23.86 23.57 23.23 23.99 23.62 23.59 24.01

GFSCGP_sfc_wetblb_126.txt.gz
Wetbulb
41.31 38.52 37.04 38.47 38.60 37.75 36.22 34.75 34.43 37.70 40.50 37.98 37.39 38.00 40.38 43.03 43.38 43.68 45.12 45.98 47.01 47.73 49.82 50.11 50.68 53.56 57.00 58.04 59.16 59.03 62.92 69.13 69.91 68.76 67.90 67.85 67.40 68.29 68.56 69.10 69.48 69.73 67.98 67.78
38.88 36.71 38.65 38.25 37.52 35.93 35.72 34.22 34.68 38.04 39.20 38.40 37.73 37.54 40.99 42.55 44.26 45.82 45.31 45.81 46.48 46.87 47.80 49.83 52.42 53.53 54.57 55.51 56.72 58.16 63.26 66.64 69.90 69.50 68.50 68.55 68.33 68.24 68.67 69.31 69.31 69.69 69.63 68.64
36.43 37.97 38.80 37.53 37.14 35.40 36.23 34.32 34.80 34.54 37.80 39.20 37.53 36.17 38.36 42.38 44.93 41.67 43.60 43.81 43.58 41.82 43.13 46.43 48.61 50.92 52.18 52.77 53.78 55.53 60.35 67.11 69.28 69.41 69.62 68.69 68.79 68.87 67.98 68.41 68.27 68.84 69.39 69.68
37.94 39.65 37.34 37.05 35.45 36.42 32.65 38.24 36.39 35.02 34.21 30.66 38.25 28.31 36.71 39.97 40.82 39.70 38.42 38.82 38.76 39.05 40.08 41.79 43.97 46.24 47.17 48.37 50.62 54.34 58.87 60.86 65.40 67.09 68.07 68.59 67.84 66.99 68.41 68.60 69.32 68.97 69.05 69.03
37.06 37.01 36.92 35.36 36.23 37.57 34.92 37.99 36.36 35.92 34.83 34.18 34.46 31.88 36.24 37.99 33.88 34.47 36.05 35.61 36.33 37.90 38.58 39.09 40.58 42.77 43.79 44.98 46.33 49.40 53.40 57.45 60.58 64.33 62.48 66.47 67.46 69.05 69.52 68.23 67.83 67.55 67.61 68.73
39.01 41.92 38.95 38.83 38.91 38.77 39.42 36.72 37.13 36.97 35.16 28.38 33.41 33.12 32.42 29.79 30.63 32.30 34.51 34.88 35.96 34.78 36.91 38.24 39.74 41.26 41.89 43.73 44.07 46.17 48.01 50.12 54.04 57.72 57.39 59.84 65.00 67.90 67.25 67.32 66.81 66.30 66.40 66.69
37.55 37.42 39.71 40.03 37.26 39.00 37.10 34.51 30.13 27.10 27.51 27.76 35.21 32.67 26.93 31.99 33.06 33.14 32.63 33.60 34.42 35.18 33.78 35.89 36.89 38.56 39.81 41.48 42.53 44.70 44.87 45.63 48.39 51.61 52.52 54.18 56.15 58.74 60.34 61.29 63.62 65.77 65.51 66.06
33.57 31.38 37.45 40.73 38.47 36.07 36.18 35.00 29.27 21.06 25.34 28.63 34.57 29.02 28.47 34.51 34.99 34.89 34.07 34.20 34.00 34.09 33.06 33.36 35.31 36.73 38.05 39.42 41.47 41.85 42.30 43.42 45.30 47.52 49.36 50.57 52.65 53.99 55.13 55.22 57.67 58.64 62.01 65.77
31.03 32.43 40.17 40.23 41.41 39.81 35.40 31.84 37.36 30.82 32.65 28.39 33.75 30.55 33.81 34.54 32.67 32.91 32.02 31.95 31.50 32.05 31.93 32.73 33.77 34.81 36.08 38.17 38.69 40.35 41.14 40.85 42.57 44.99 47.35 47.84 48.82 51.53 53.52 54.79 57.88 57.74 59.79 61.23
35.85 29.62 38.40 39.62 41.47 41.61 38.36 40.18 31.00 32.85 23.78 22.84 30.29 26.76 26.56 29.01 29.49 31.18 29.75 29.88 30.81 31.60 31.17 31.44 31.91 33.89 34.31 36.66 38.85 39.60 40.64 40.73 41.26 41.84 44.66 45.70 46.61 47.87 48.69 50.42 50.44 49.94 53.13 55.63
37.84 34.40 34.91 39.09 36.16 34.37 36.49 35.27 35.25 35.16 33.54 26.87 26.01 25.69 31.44 29.11 30.08 29.13 29.60 29.69 30.02 30.72 30.93 30.24 31.19 32.07 33.75 33.94 35.57 37.61 38.77 39.58 39.85 40.68 41.31 42.21 43.23 44.94 44.94 45.21 44.91 45.73 47.85 51.79
38.39 35.38 30.81 33.83 40.38 42.14 40.09 36.65 36.53 30.29 28.34 32.87 32.08 26.52 32.68 31.32 31.78 31.49 30.43 30.07 30.70 30.95 30.96 30.81 30.94 31.23 32.24 32.08 33.63 34.79 36.54 38.04 39.47 39.57 39.93 39.87 40.46 40.85 41.21 41.79 42.26 43.43 44.69 46.31
39.14 33.73 30.35 32.00 37.07 38.44 34.83 36.52 38.46 37.60 36.98 31.88 28.97 25.69 32.48 31.97 31.20 31.33 29.61 29.61 30.05 30.47 30.78 30.34 30.19 30.28 30.19 31.91 31.93 33.60 35.04 36.37 38.25 39.08 38.50 37.98 38.56 38.87 38.87 39.54 39.98 40.83 41.69 42.70
40.48 35.21 30.54 27.71 26.91 31.44 28.78 32.29 36.86 35.04 33.59 30.64 26.62 24.72 27.00 28.52 28.36 29.55 28.73 29.10 29.43 29.52 29.66 29.65 30.51 30.34 30.61 32.17 31.71 32.18 33.18 34.90 37.09 37.66 38.10 37.54 37.40 37.70 38.63 39.13 38.95 38.68 38.92 38.66
39.11 31.91 32.32 32.50 33.17 31.79 30.03 29.65 31.39 30.03 31.19 28.83 25.57 24.04 25.38 26.80 27.59 27.91 28.73 28.47 27.45 27.48 28.06 28.15 27.93 28.94 29.70 30.23 32.32 32.29 32.94 34.05 35.48 35.60 36.45 37.84 38.73 37.78 37.64 37.95 38.97 39.17 38.13 37.52
38.69 32.49 34.13 31.14 33.68 31.81 27.89 29.70 31.29 29.93 28.69 27.22 26.53 23.91 28.82 28.83 28.91 27.90 26.91 26.59 25.87 25.98 26.78 26.83 27.06 27.37 28.05 29.26 30.88 32.57 32.67 33.03 34.22 34.00 34.44 36.58 38.29 39.70 38.02 37.52 37.58 37.71 37.96 37.30
35.76 33.64 32.67 30.01 31.79 31.35 25.70 27.43 29.59 29.44 30.98 30.50 26.88 26.93 28.97 26.90 26.14 25.45 25.87 25.93 25.19 25.45 25.98 25.95 25.82 26.27 27.23 28.73 30.64 30.95 33.19 34.09 33.49 32.50 32.76 33.84 36.07 36.81 38.01 38.73 37.91 37.40 35.58 36.47
34.86 33.63 33.11 31.39 31.85 23.13 28.39 33.56 31.64 29.24 29.69 30.86 28.91 28.60 29.28 27.31 26.97 26.74 26.71 25.76 25.32 25.50 25.77 26.07 26.17 25.99 27.80 29.60 30.71 31.66 32.17 32.95 31.60 30.51 30.23 31.50 33.09 33.93 35.58 35.84 35.73 36.26 36.18 35.52
38.35 34.86 32.29 29.50 28.50 27.98 28.98 30.93 30.33 29.58 26.46 30.71 30.30 30.00 29.24 28.93 30.46 26.92 26.55 26.38 25.55 26.63 27.10 27.45 28.32 27.33 27.84 28.92 30.55 30.06 29.75 29.97 29.69 28.68 28.89 30.22 31.15 31.28 31.94 32.00 32.36 34.17 34.63 33.96
36.64 37.92 32.51 31.31 25.77 23.10 28.62 31.10 33.64 34.29 26.33 30.73 31.45 31.27 31.36 30.88 28.35 26.26 25.87 26.21 25.78 27.53 28.56 28.45 29.20 29.36 28.11 28.97 30.57 29.96 28.81 28.73 29.04 29.65 29.92 30.26 30.54 30.83 30.46 31.53 32.11 32.94 33.77 33.69
32.06 32.93 30.29 30.47 27.84 27.17 30.16 32.08 35.12 26.06 26.12 31.34 31.36 32.16 32.56 29.28 27.95 25.93 25.78 25.18 25.96 27.22 27.89 29.76 29.38 28.15 28.69 29.98 30.13 28.24 29.27 29.01 29.84 30.56 31.15 30.57 31.17 30.68 30.64 31.41 32.30 32.02 32.58 32.68
29.73 29.44 30.04 30.21 27.15 24.07 31.75 32.75 29.85 31.44 33.84 33.55 32.74 32.30 30.00 28.82 27.38 26.08 24.55 25.00 25.97 26.18 27.68 28.83 28.59 27.85 28.87 29.08 29.19 27.85 27.39 31.21 31.80 30.72 30.67 30.83 30.83 30.02 30.01 29.42 30.73 31.57 31.94 31.94
29.70 32.38 31.71 28.48 27.71 31.61 32.88 33.26 36.05 36.52 33.83 33.06 32.44 32.60 31.52 29.12 27.25 26.50 26.09 26.10 26.29 27.38 27.86 28.29 28.03 27.70 27.87 28.13 28.30 27.03 28.42 31.27 31.49 30.93 30.05 30.48 30.42 31.28 31.97 29.54 29.06 28.86 29.89 29.61
32.69 34.96 31.83 29.79 28.85 30.44 31.95 33.29 34.77 35.46 34.11 33.78 33.01 31.83 31.53 29.00 28.41 26.96 27.00 26.54 26.53 26.84 26.40 27.32 26.92 26.00 25.75 27.32 27.01 27.32 28.68 30.41 30.27 29.57 29.42 30.36 29.97 29.94 30.60 30.18 28.01 25.86 25.85 25.63
35.67 35.42 30.85 28.14 29.75 31.19 31.50 33.18 33.42 32.79 32.95 31.58 31.58 31.03 29.87 29.16 27.80 27.13 25.88 25.22 25.68 25.61 25.89 25.79 25.08 24.67 24.70 25.87 25.79 26.71 27.94 29.04 28.45 28.62 28.55 28.33 29.14 29.03 29.15 29.31 27.06 25.45 24.84 23.94
36.90 33.71 32.38 32.83 33.14 33.15 32.05 33.20 33.26 31.15 29.78 30.05 28.97 28.23 28.96 28.72 27.36 26.92 25.50 25.28 25.05 24.34 24.80 24.35 23.91 23.86 23.94 24.65 24.34 25.10 26.94 27.11 26.89 26.13 26.79 26.50 27.64 27.58 27.50 27.48 27.79 24.44 23.54 22.89

GFSCGP_sfc_wetblb_129.txt.gz
Wetbulb
45.07 41.10 39.93 42.26 42.17 40.85 39.57 38.06 37.62 40.62 42.87 41.07 40.51 40.79 42.43 44.74 45.87 47.26 47.51 47.56 47.47 47.97 49.66 50.84 51.89 53.30 54.28 56.21 56.70 57.86 59.07 61.54 64.03 69.89 68.67 69.82 68.94 69.99 70.15 70.31 70.35 71.50 71.28 70.26
41.65 39.59 42.74 41.63 40.86 39.57 39.14 37.95 38.27 41.21 42.18 41.06 40.56 39.85 42.77 44.41 46.29 45.79 44.68 44.40 44.60 44.83 44.89 46.45 47.85 49.79 52.24 53.73 55.34 55.92 56.77 58.43 61.13 67.53 69.80 69.96 70.25 70.16 70.32 70.14 70.31 70.34 70.85 71.11
40.20 41.98 41.94 40.74 40.10 38.78 39.72 38.31 38.33 37.55 40.05 41.56 40.34 38.60 40.48 43.13 45.48 44.92 44.16 43.59 43.01 41.25 39.76 41.73 43.39 44.96 46.87 48.32 50.36 51.89 54.67 58.04 60.15 62.62 68.50 68.77 71.15 70.38 69.61 69.21 69.26 70.11 70.99 70.52
41.40 44.02 40.46 39.99 38.61 39.47 36.40 40.93 39.13 37.84 37.20 33.90 40.29 31.49 39.64 42.31 42.12 40.67 40.26 40.20 38.90 38.04 38.63 38.79 39.74 40.37 42.06 44.79 46.37 47.34 50.79 54.98 59.78 61.20 61.55 67.17 66.98 67.33 68.36 68.61 69.16 69.25 70.75 70.32
40.85 40.64 39.90 38.85 39.23 40.04 37.89 41.13 39.28 38.69 37.18 37.22 37.45 34.73 37.38 39.70 35.24 35.89 36.75 36.98 36.14 36.50 37.33 36.15 37.43 38.07 41.12 42.96 43.45 44.54 47.67 51.56 54.68 55.03 58.78 66.85 65.94 68.59 68.22 67.89 67.55 69.32 70.13 70.23
42.40 45.09 41.90 41.65 41.53 41.42 42.23 40.20 40.67 40.47 38.62 31.88 36.63 35.64 34.49 31.34 30.84 33.29 34.52 35.68 34.96 35.24 36.09 36.73 36.53 37.33 37.93 40.88 41.99 43.75 44.87 47.04 52.23 52.53 54.00 61.10 66.44 64.66 63.04 63.47 65.79 67.61 67.81 68.15
41.19 41.30 42.72 42.86 39.68 43.02 40.84 38.97 33.04 30.87 31.31 30.56 37.91 35.35 30.54 33.44 34.22 33.75 32.66 33.77 34.26 34.93 34.25 35.34 34.04 33.77 35.24 37.35 39.58 42.80 43.53 43.69 47.23 49.70 50.56 53.14 57.10 60.22 60.08 58.29 59.26 64.96 66.35 66.64
36.32 33.62 40.19 42.80 40.73 39.19 39.27 38.34 32.56 24.70 28.11 31.29 38.17 32.83 31.24 36.51 36.57 36.15 35.27 34.73 34.32 33.46 33.77 34.01 33.96 33.08 33.92 35.04 38.59 40.61 42.67 42.61 44.27 47.70 48.22 50.24 52.47 55.32 56.43 56.93 58.37 58.86 60.75 62.65
35.31 35.54 42.77 42.41 43.07 41.97 38.36 35.31 41.11 33.36 35.04 31.17 35.18 31.32 35.82 37.79 35.00 33.69 32.64 33.08 32.25 32.67 33.05 33.14 34.11 32.39 33.45 34.37 36.12 38.89 41.49 42.32 43.24 44.40 45.82 47.16 48.80 49.61 50.98 51.99 52.98 54.85 56.16 56.84
39.21 33.18 40.71 42.60 43.68 43.89 40.99 42.43 33.42 34.20 25.51 25.32 33.17 30.89 31.14 30.61 29.74 31.05 31.23 30.65 30.95 32.28 31.96 32.57 32.84 31.76 32.85 33.24 34.95 37.26 39.77 40.65 41.92 43.19 44.25 44.94 44.98 46.30 46.94 47.94 47.74 49.58 51.71 53.07
40.45 36.76 37.91 41.17 39.28 38.02 38.77 36.85 36.55 37.63 35.00 28.19 27.71 29.10 32.11 29.60 30.68 29.94 30.80 31.04 30.69 31.02 31.23 31.40 32.32 31.80 32.05 32.63 33.59 34.58 37.20 39.11 40.96 41.32 42.25 42.37 42.16 44.01 44.33 43.68 43.61 44.98 46.37 47.12
40.34 37.31 33.05 36.94 42.52 43.68 41.06 37.84 37.53 32.37 31.44 34.68 33.88 28.91 33.33 32.78 31.92 31.41 30.40 30.96 31.58 31.78 31.42 31.23 31.60 31.76 31.15 32.06 32.38 33.16 36.52 37.80 39.12 40.17 40.12 39.51 41.38 41.83 41.60 41.33 41.21 42.02 41.88 43.19
41.46 35.86 32.51 34.05 39.12 41.03 36.88 37.98 38.12 36.75 37.73 32.98 30.49 27.78 32.99 32.47 31.54 31.26 30.04 30.65 31.05 31.43 31.58 31.22 31.21 31.09 30.89 31.44 31.95 32.39 33.98 35.88 36.98 40.01 41.22 40.54 40.41 39.64 40.28 40.92 40.29 40.80 40.13 40.38
41.38 37.76 34.35 31.82 31.47 34.63 30.87 33.65 35.82 36.16 31.85 32.99 29.66 25.93 27.99 29.29 29.72 30.84 29.98 30.39 31.03 30.97 29.92 29.58 29.68 30.35 30.85 31.54 31.90 32.22 33.56 34.73 35.44 36.98 38.98 40.16 40.90 40.62 40.17 39.89 40.20 39.93 39.78 38.95
40.44 33.22 34.25 34.98 34.98 33.45 30.83 31.12 31.90 32.36 33.13 30.52 27.80 26.03 26.75 28.28 28.58 29.13 29.85 29.96 29.23 28.68 28.72 28.27 27.77 29.04 30.65 30.95 32.01 33.19 34.17 35.01 35.28 34.53 35.48 37.15 39.16 39.28 39.09 38.90 38.60 38.49 37.78 37.12
41.16 32.89 34.31 31.60 34.57 33.09 29.14 31.75 32.72 31.64 30.95 29.68 29.00 25.86 30.15 30.24 30.69 29.22 28.73 28.60 27.55 27.88 27.96 27.71 27.42 28.08 28.92 30.26 31.20 32.16 33.12 33.68 34.02 33.26 34.11 36.24 37.38 38.38 38.19 38.27 38.45 38.01 37.50 36.29
37.35 36.18 33.06 30.30 33.89 33.05 28.63 28.93 30.98 31.20 33.33 32.51 29.48 29.54 30.97 28.89 28.51 27.44 27.77 27.93 26.95 26.87 27.75 27.74 27.23 27.67 29.00 30.82 31.38 31.21 32.63 33.25 32.60 32.28 33.56 34.77 35.77 35.84 36.09 36.49 37.06 36.91 36.72 36.67
37.98 36.68 35.86 32.43 32.60 24.37 29.21 35.16 34.43 31.41 31.79 32.98 30.38 30.37 31.35 29.83 28.96 29.10 28.63 27.16 26.89 27.78 28.21 28.99 28.12 28.18 30.85 31.92 32.17 32.15 32.37 32.71 31.78 31.52 31.48 32.76 33.45 33.58 34.21 33.90 34.50 35.47 35.21 35.01
41.22 38.09 33.46 30.63 30.39 28.48 29.73 32.53 32.26 31.55 28.43 33.11 32.15 31.78 31.32 30.97 31.33 28.39 29.23 27.98 27.38 29.29 30.70 30.90 31.58 29.91 31.28 31.92 33.47 32.44 31.42 31.20 31.34 30.75 30.65 31.18 31.48 31.25 32.21 31.51 32.35 33.50 33.78 33.77
40.08 39.76 35.54 34.11 27.81 25.04 32.79 36.46 38.07 36.92 27.99 35.19 34.77 32.65 31.39 32.11 27.52 27.65 27.91 27.93 27.71 30.93 31.99 31.64 32.09 32.07 31.20 32.07 32.87 32.48 31.44 30.67 30.58 31.71 31.73 31.98 31.61 30.88 31.06 31.84 32.39 33.44 34.00 33.68
33.76 35.35 31.39 32.23 30.42 30.02 35.42 36.78 37.86 27.02 28.89 34.60 36.23 35.27 34.10 31.29 29.59 28.06 28.32 27.14 27.95 30.78 31.24 33.08 32.42 31.17 31.28 32.41 32.42 30.67 31.53 31.44 32.23 33.02 33.44 32.33 32.80 32.24 31.82 31.46 32.84 32.77 33.77 33.41
33.09 31.84 30.49 32.44 29.39 25.85 36.64 35.51 30.55 33.98 36.46 35.74 35.23 35.06 31.97 30.72 30.16 28.79 27.50 28.27 29.10 29.83 31.41 32.33 31.47 30.76 31.53 31.87 31.66 30.13 29.65 32.70 33.40 32.68 32.41 32.45 33.40 32.34 32.59 31.13 31.24 31.24 31.45 30.93
31.97 36.01 34.09 31.83 29.21 32.69 35.67 36.46 38.36 38.59 36.14 36.14 35.55 35.16 33.84 32.01 30.15 29.30 29.24 29.78 30.23 30.89 31.30 31.84 30.96 30.13 30.45 30.87 30.89 29.51 30.49 32.80 32.90 32.07 31.21 31.82 31.56 32.76 33.39 31.16 30.37 28.22 28.97 28.73
36.13 37.91 34.58 32.28 30.77 31.91 33.90 36.62 37.60 37.81 36.75 36.61 36.19 34.98 34.41 31.91 31.60 30.43 30.38 30.38 30.45 30.26 29.83 30.54 30.06 28.85 28.38 29.30 29.08 29.53 30.62 31.99 31.91 31.14 30.56 31.26 30.93 30.91 31.88 31.15 29.93 27.10 24.80 24.45
38.68 38.28 32.88 30.01 31.44 33.05 34.54 35.59 35.70 35.41 35.67 34.48 34.44 34.24 33.00 32.16 31.25 30.53 29.61 29.62 29.70 29.55 29.28 29.12 28.19 27.61 27.62 28.50 28.01 28.82 29.33 29.97 29.84 29.48 29.89 28.80 30.07 30.14 29.96 30.08 28.57 27.67 25.20 23.45
39.60 36.35 33.43 34.52 35.16 35.92 35.06 36.32 36.72 34.27 33.12 33.54 32.50 31.75 32.94 32.45 30.71 30.31 29.13 29.59 29.25 28.02 28.31 27.59 27.07 26.78 26.86 26.93 26.26 26.93 28.16 28.32 27.64 27.55 27.15 27.98 28.61 28.82 28.64 28.43 28.52 26.17 25.36 24.35

GFSCGP_sfc_wetblb_135.txt.gz
Wetbulb
40.57 33.65 31.22 34.63 37.27 38.68 36.70 34.53 32.40 34.34 38.66 37.50 35.80 33.63 36.57 39.58 38.84 36.75 36.88 36.53 36.01 36.43 38.69 39.75 40.16 40.17 39.20 39.06 39.10 40.67 41.28 42.84 43.84 44.70 45.54 48.24 49.08 55.47 58.62 63.51 67.88 68.35 68.56 68.97
36.52 33.38 39.50 41.58 40.37 38.28 36.52 33.90 32.41 36.54 40.19 37.43 34.13 33.03 36.55 38.43 37.13 36.59 35.75 34.71 34.44 34.86 35.97 37.14 37.70 37.82 37.44 37.12 37.56 38.66 39.04 41.05 42.00 43.74 45.23 47.24 49.75 53.90 56.41 59.13 62.93 68.28 68.66 68.33
35.22 39.08 43.32 41.32 38.51 37.31 35.39 33.92 33.95 34.37 37.06 35.94 34.11 32.05 34.57 37.62 37.94 37.41 36.46 35.57 34.73 33.47 33.22 34.34 35.21 35.21 35.28 35.56 36.07 36.65 37.45 39.71 41.52 43.59 45.58 47.36 50.07 52.08 54.12 56.73 62.09 66.33 68.13 68.09
37.52 41.95 41.32 39.31 38.32 38.25 32.65 39.61 38.63 36.84 33.10 26.44 34.90 22.19 33.03 34.71 34.06 34.50 33.99 32.66 32.00 32.27 33.18 33.59 33.42 33.30 33.35 34.21 35.37 35.27 36.71 38.92 41.52 44.84 44.06 45.06 46.14 47.50 51.03 54.46 57.87 61.17 67.13 67.91
36.59 39.04 38.58 37.77 38.72 40.41 36.62 40.86 37.98 36.70 32.22 30.29 31.99 26.46 30.35 34.96 30.87 31.72 32.02 33.29 32.31 32.01 32.08 32.03 32.29 32.65 33.91 34.06 33.82 34.77 36.19 37.99 39.29 43.93 44.55 45.19 46.47 50.63 51.54 55.01 58.20 61.93 64.56 67.45
37.93 43.35 40.84 39.99 42.16 41.40 41.71 38.40 37.21 35.74 32.38 23.21 32.61 30.64 26.34 27.44 30.18 31.58 32.73 33.42 32.52 31.83 32.74 32.38 33.72 33.42 32.81 34.02 33.96 34.18 35.82 36.27 38.41 40.41 44.42 44.64 47.22 49.24 51.55 54.83 58.86 60.57 62.20 65.49
38.11 38.98 41.43 42.64 37.45 40.00 38.25 32.72 24.00 22.67 22.38 23.57 35.89 30.14 27.14 31.60 31.97 32.00 30.63 31.37 31.63 32.17 31.37 31.48 31.29 30.60 31.87 32.46 33.80 33.85 34.92 34.91 36.30 38.12 43.38 45.07 46.33 47.65 52.95 55.67 57.74 57.42 56.70 56.12
30.60 27.10 38.07 41.54 38.33 36.51 35.44 34.72 25.58 20.88 21.53 24.92 34.99 26.79 28.44 32.21 33.16 33.42 32.61 31.37 31.38 31.28 31.40 30.98 31.11 30.79 31.08 32.15 33.55 33.97 33.71 34.00 34.97 36.54 41.15 44.33 44.59 46.09 50.08 49.58 49.36 51.28 54.93 52.29
32.92 33.99 42.06 41.49 42.01 40.72 36.74 33.29 38.58 31.37 31.14 24.59 27.12 29.50 32.80 33.38 31.84 31.84 30.62 30.11 30.34 30.69 30.39 29.92 30.18 30.78 31.47 32.02 32.87 33.34 33.23 33.16 33.83 35.78 40.57 42.66 43.57 44.36 45.32 45.40 45.39 45.07 45.75 48.76
38.34 29.75 41.01 40.91 42.14 41.39 38.78 40.78 30.01 30.71 22.81 20.82 23.91 25.79 23.35 28.26 28.67 30.04 29.02 28.52 29.82 30.79 27.42 28.58 29.64 30.29 31.81 32.30 33.11 33.36 33.21 32.28 33.13 34.28 39.00 39.88 42.40 43.42 43.46 42.41 40.98 42.24 42.14 42.76
39.79 34.09 34.37 40.79 36.63 35.33 35.67 33.77 34.43 34.24 29.88 21.27 14.26 22.40 31.66 25.62 29.89 28.23 28.93 29.62 29.48 29.76 28.01 27.81 28.80 30.27 31.75 31.83 32.53 32.17 32.19 32.08 32.30 33.37 35.71 37.52 40.14 41.03 41.23 40.38 39.15 39.17 39.20 39.62
40.26 34.58 29.71 34.56 41.92 43.14 40.98 37.68 36.92 26.66 27.67 30.39 25.22 21.93 32.41 30.30 31.14 30.20 29.19 29.69 30.72 31.08 29.33 27.51 28.91 29.40 30.31 30.63 31.42 31.72 31.79 31.92 32.19 32.65 34.09 35.33 39.10 37.84 37.96 37.47 38.41 38.25 37.21 37.22
39.86 33.22 27.53 30.51 35.96 40.84 37.60 38.72 37.46 36.56 33.28 26.94 21.81 19.12 32.78 32.41 30.19 30.16 28.28 29.53 30.15 29.39 28.29 27.82 27.84 28.57 30.22 30.38 30.91 31.59 31.49 31.70 32.03 32.99 32.95 34.15 35.63 36.19 35.51 35.47 35.96 36.59 36.73 34.95
42.41 36.39 31.76 27.03 29.85 34.33 31.59 33.55 33.60 31.93 21.93 21.50 23.19 24.12 27.71 29.49 28.53 28.64 28.28 29.69 28.86 24.86 26.82 27.14 27.75 29.01 30.40 29.88 30.28 30.93 31.07 31.86 32.00 32.33 33.01 32.44 33.88 34.54 35.07 34.84 34.45 34.32 34.99 34.22
38.76 31.82 31.42 35.39 35.35 33.56 30.98 30.52 30.71 29.70 30.78 27.05 21.02 23.27 28.23 29.15 28.26 28.50 29.24 29.05 27.65 27.22 25.97 25.73 26.97 28.18 29.84 29.99 30.47 30.78 31.18 31.58 31.77 31.25 31.61 32.29 33.46 34.37 33.94 33.95 33.87 33.39 32.94 33.04
39.04 30.66 28.95 24.94 33.18 33.02 22.32 25.34 26.67 30.16 32.39 30.68 27.86 24.96 30.87 30.01 30.31 28.47 27.90 27.12 25.99 26.72 26.50 26.02 26.82 28.23 28.79 29.79 30.02 30.79 31.20 30.99 31.59 30.07 30.46 31.82 32.45 33.18 33.46 33.31 33.13 32.74 31.73 31.34
36.07 33.58 29.51 25.44 30.46 31.72 27.58 23.82 27.96 31.28 32.30 32.50 24.69 26.69 29.22 28.61 28.04 27.45 26.51 26.66 26.26 26.44 26.74 26.01 25.98 27.43 28.26 29.08 30.02 29.77 30.90 30.98 31.16 30.58 29.70 30.05 30.96 30.59 31.82 31.92 31.81 31.56 31.15 29.89
36.57 34.53 33.32 26.55 29.43 21.92 26.46 34.74 33.71 31.87 31.46 29.92 27.97 27.65 29.09 28.53 27.01 27.13 27.43 25.98 26.23 27.08 27.33 26.93 24.52 25.78 28.14 29.71 30.43 30.79 30.67 30.68 29.59 30.10 29.51 29.16 29.42 29.09 29.68 29.94 29.39 29.27 30.18 29.53
40.45 36.21 28.75 25.58 26.10 26.93 29.42 32.61 31.65 28.42 27.73 30.88 28.94 29.17 27.90 28.31 26.83 25.35 27.56 27.09 25.35 26.46 27.43 27.51 26.80 25.07 28.27 28.42 29.79 30.51 29.42 29.68 29.13 28.79 29.61 28.82 27.95 26.99 26.76 26.59 27.78 27.73 27.00 27.11
39.00 37.80 32.33 27.44 25.45 21.41 28.38 34.70 37.57 36.19 24.35 32.59 31.83 28.65 27.61 27.80 24.19 24.69 26.98 27.91 27.16 28.68 28.31 26.82 27.06 27.43 26.38 27.01 28.25 28.37 28.22 27.71 27.93 28.18 28.63 30.01 28.74 26.87 25.16 24.90 25.28 26.43 25.10 24.88
31.00 30.87 26.61 25.02 24.78 28.96 35.33 36.42 39.07 24.80 23.29 33.79 33.03 30.79 29.75 27.28 27.52 26.37 27.58 26.12 26.37 28.21 28.27 28.12 26.39 24.57 24.92 27.17 27.14 25.36 26.40 25.61 27.80 29.59 28.68 29.36 29.22 26.72 25.66 24.58 24.36 23.87 23.14 21.87
29.64 26.76 25.31 26.65 24.90 23.85 36.47 34.99 28.97 30.63 33.64 35.22 34.33 33.24 31.54 27.37 26.71 26.69 26.42 24.77 25.90 26.76 27.56 27.26 25.13 24.06 25.13 25.93 26.03 24.26 24.12 28.17 28.72 27.41 27.84 26.85 27.58 28.25 26.91 23.71 23.29 22.27 21.12 19.32
29.84 32.43 28.28 27.86 27.26 32.43 34.80 33.74 36.02 35.01 32.67 32.67 31.66 31.46 29.84 28.01 26.82 26.64 26.01 27.47 27.84 26.05 24.84 26.09 24.60 24.11 24.02 24.56 24.57 23.17 24.65 27.78 27.56 26.55 25.49 26.01 26.62 26.62 26.56 24.22 21.97 20.97 20.52 19.06
35.29 37.81 27.62 27.90 30.23 31.75 33.52 37.07 37.77 36.24 33.01 33.51 32.88 31.66 30.61 27.64 27.64 27.77 28.59 27.72 26.58 25.31 24.05 24.68 24.29 22.81 21.49 23.22 23.65 23.81 24.66 26.37 25.73 24.86 24.66 25.62 24.61 24.46 24.14 24.28 22.19 19.79 18.00 18.06
34.04 34.25 29.44 27.41 30.67 33.65 35.05 36.97 35.94 34.38 34.40 33.91 33.66 32.56 30.49 29.74 29.36 28.99 27.93 26.97 26.54 25.45 25.48 24.66 22.63 21.46 21.24 22.00 21.51 22.70 23.45 24.16 23.94 22.79 23.66 23.97 24.26 23.30 22.93 22.86 21.60 21.66 15.99 20.36
36.47 31.83 26.17 22.53 30.39 30.03 31.15 36.22 35.09 32.29 32.48 33.64 33.27 31.80 32.27 31.36 29.83 29.05 26.98 27.07 26.30 24.89 24.60 23.25 22.51 21.60 21.05 20.41 19.80 20.66 22.40 23.00 22.37 21.05 20.65 22.39 22.40 21.70 22.21 21.68 21.86 26.33 24.38 25.76

GFSCGP_sfc_wetblb_138.txt.gz
Wetbulb
38.55 32.40 30.28 33.00 35.16 36.15 34.24 31.97 30.83 30.75 36.81 34.65 33.63 31.19 32.92 35.25 34.95 33.16 32.92 32.60 32.80 33.46 35.46 36.65 36.73 36.20 35.64 35.42 35.40 35.77 36.14 36.75 37.68 38.50 39.65 41.33 43.04 45.87 48.66 51.80 54.89 56.48 59.80 63.72
34.54 30.80 37.94 39.65 38.40 36.84 35.22 32.31 30.57 33.87 37.62 35.44 32.22 29.59 32.94 34.42 33.43 32.90 32.01 31.39 31.53 32.15 33.04 34.41 34.85 34.54 33.87 33.72 34.30 34.61 34.95 36.10 37.20 38.26 40.29 42.53 44.27 45.95 48.62 50.18 53.32 56.63 58.37 62.51
32.66 36.45 40.88 39.26 37.11 35.71 34.16 32.13 31.95 32.59 35.23 33.78 33.07 28.18 31.61 34.26 34.49 34.39 33.25 32.60 32.01 31.18 31.13 32.09 32.95 32.74 32.65 32.20 32.93 34.43 35.27 36.23 37.29 39.33 40.68 43.09 44.66 45.16 46.02 48.06 50.28 53.21 56.57 58.20
34.92 39.82 38.80 37.71 36.69 36.95 31.98 37.24 37.22 35.64 31.81 26.78 33.93 21.78 29.69 32.01 31.76 31.96 32.13 30.43 30.51 31.97 31.76 31.80 31.49 31.36 31.17 31.78 33.77 34.56 35.06 35.28 37.18 38.11 39.18 41.15 42.24 42.40 44.59 47.82 49.57 50.95 54.73 58.83
33.98 36.68 36.38 35.79 37.27 38.99 34.92 39.52 37.00 35.87 31.29 28.47 30.29 25.74 26.76 33.14 29.96 29.88 30.48 31.59 30.31 32.31 30.77 30.26 30.51 31.10 31.46 31.91 33.31 34.38 35.30 35.63 36.06 37.68 38.34 39.52 42.66 44.77 47.30 49.23 49.27 50.49 52.96 57.16
35.35 40.14 37.47 37.75 40.82 39.84 40.38 37.31 36.82 33.87 30.35 22.94 31.23 29.03 25.02 26.02 28.40 29.90 31.19 31.70 31.25 31.77 31.38 31.26 31.05 31.18 31.22 32.22 33.39 33.90 34.62 35.13 36.05 36.27 37.24 40.62 42.38 44.17 45.65 46.51 47.96 50.78 54.01 58.79
35.20 36.26 39.88 40.84 36.53 38.90 37.55 32.85 22.69 21.83 21.55 22.81 34.85 29.24 25.80 29.59 30.30 30.17 30.05 30.51 30.97 31.56 30.81 29.33 28.46 29.05 30.47 31.09 32.46 33.46 33.32 34.10 34.77 35.89 36.43 40.25 42.68 43.54 44.45 46.92 49.30 53.08 55.80 53.81
26.83 25.84 36.16 39.81 37.70 35.47 34.18 33.35 25.28 21.64 21.91 24.51 33.36 26.38 25.14 31.21 32.02 32.75 32.08 31.21 31.67 29.83 28.45 27.95 28.36 29.16 30.45 31.23 31.77 32.29 33.17 33.87 34.44 35.49 35.51 39.08 40.58 43.07 43.94 45.06 46.08 47.51 51.41 49.35
28.65 31.40 41.11 41.32 40.03 40.08 34.35 29.90 37.55 29.55 30.24 23.65 25.73 27.71 31.23 31.55 31.01 31.86 30.08 29.98 30.45 25.53 26.88 27.03 28.13 28.80 30.57 31.27 31.42 32.78 32.65 33.26 33.95 35.07 35.21 36.68 37.94 38.58 41.77 42.14 43.17 44.06 45.54 46.01
34.66 27.69 39.00 41.20 41.17 40.68 38.26 40.82 29.52 30.34 23.74 20.30 24.31 24.45 21.22 28.52 28.21 29.65 28.55 28.33 29.63 29.24 24.48 26.52 27.36 28.63 30.58 30.95 32.59 32.90 32.64 32.22 33.58 34.17 34.49 35.75 35.68 36.54 38.97 39.63 38.82 40.66 41.11 41.90
36.49 32.37 33.81 39.26 36.53 34.41 35.43 32.61 33.23 33.48 29.76 23.27 16.73 21.42 30.76 28.36 26.92 24.87 28.40 29.48 29.51 29.38 22.22 24.39 25.94 28.07 30.71 30.41 31.33 31.91 32.00 31.72 31.70 33.02 33.56 34.09 33.88 34.88 35.97 37.46 36.82 37.71 39.02 38.31
37.88 31.49 26.06 33.57 40.69 42.18 39.69 35.00 34.77 27.85 27.69 28.87 22.56 22.32 30.29 28.19 29.19 29.46 28.95 29.60 30.43 29.74 24.28 25.24 24.10 26.80 28.03 29.26 29.76 31.10 31.52 31.55 31.82 32.05 32.36 32.70 32.76 32.61 33.31 34.03 35.25 35.84 35.19 35.58
38.39 31.52 24.96 29.21 34.40 38.92 36.64 36.89 38.06 36.12 34.70 28.46 19.57 21.34 31.32 30.60 29.36 28.84 28.60 29.43 27.30 26.62 24.00 22.15 22.76 23.48 27.25 27.37 28.81 30.00 30.88 31.01 31.81 32.22 32.16 32.22 32.67 32.40 32.07 32.33 33.55 32.79 32.51 32.53
41.75 35.94 30.75 23.16 29.02 34.06 31.53 34.12 33.63 32.73 25.54 20.78 22.77 24.15 28.40 29.08 28.00 28.34 28.62 29.48 23.71 22.64 25.06 23.99 22.78 24.42 24.58 27.16 28.58 29.10 30.15 30.80 30.99 31.57 31.60 31.68 31.87 32.60 33.05 32.01 31.58 31.56 31.18 30.69
38.93 31.46 32.88 33.95 35.62 34.79 32.48 31.51 31.34 29.82 28.92 24.19 20.46 24.10 26.29 27.85 28.14 28.73 29.50 26.26 26.90 25.63 25.08 25.19 25.31 25.82 26.59 27.30 28.79 29.90 29.84 30.80 30.10 29.94 30.24 30.81 32.18 31.95 32.19 31.68 30.25 29.65 29.28 29.29
39.13 31.30 30.63 30.54 33.11 32.90 27.43 26.64 28.53 30.18 30.89 29.64 27.27 24.80 29.03 29.60 30.13 28.69 27.59 26.72 25.80 25.79 24.95 25.53 26.14 26.55 26.66 27.72 28.88 29.68 28.90 29.97 30.32 28.81 28.69 30.13 30.40 30.49 30.10 30.46 30.20 28.35 26.93 26.30
35.22 32.62 28.85 26.65 29.78 30.53 26.30 25.32 25.22 28.65 31.65 31.01 24.94 27.66 28.29 28.01 28.04 26.42 26.40 26.74 25.82 26.16 25.41 25.08 25.26 26.00 26.66 26.89 28.74 28.55 29.37 29.83 29.44 27.87 27.58 27.81 28.31 28.25 28.26 28.58 28.36 27.44 25.18 25.00
35.15 33.55 31.98 27.25 29.56 21.76 24.95 33.21 31.70 31.13 30.94 29.75 28.07 27.43 28.14 28.43 26.78 27.67 28.01 26.76 26.68 26.73 26.41 25.66 21.49 23.79 25.75 27.26 28.80 29.13 29.33 28.58 29.36 28.13 27.00 26.39 25.56 25.77 26.35 25.70 25.36 25.97 25.81 22.78
38.99 34.90 28.93 26.27 26.43 27.05 28.40 31.97 30.40 28.98 27.66 30.48 28.01 27.94 26.78 26.61 26.33 25.09 28.58 28.49 26.75 26.77 27.44 26.05 25.98 22.75 24.94 25.91 27.88 28.36 27.59 28.29 27.51 27.96 26.78 26.10 25.27 23.84 24.07 23.55 22.63 23.14 22.76 22.84
39.15 38.26 32.07 27.80 24.62 19.61 28.13 33.63 36.45 35.07 24.56 30.82 29.96 26.99 25.29 25.71 21.38 24.57 27.80 28.62 28.09 28.30 27.67 25.62 24.91 24.72 24.97 24.63 26.07 26.64 25.52 25.54 25.78 26.32 27.95 26.68 25.45 23.69 22.36 22.83 22.11 22.03 21.49 20.42
32.48 31.14 27.30 25.80 26.35 28.10 33.68 35.39 37.25 24.03 24.98 31.87 29.87 28.07 26.43 25.09 26.23 27.62 28.72 28.17 27.82 27.84 26.31 26.09 24.38 22.24 22.38 24.41 24.47 23.22 25.13 23.38 26.13 27.39 27.46 27.36 25.57 23.43 23.16 22.63 22.41 21.08 19.88 19.35
29.46 27.96 25.49 25.84 24.43 21.78 35.20 34.23 28.98 30.88 32.36 32.63 30.90 29.69 28.01 26.52 26.86 27.16 27.28 27.06 26.90 27.48 25.95 25.35 23.58 22.46 22.90 23.02 23.57 21.87 22.05 26.37 26.30 26.21 25.88 25.75 25.76 25.89 23.49 19.03 20.85 20.43 19.27 17.68
28.58 30.73 27.71 27.97 26.33 31.63 33.29 32.39 34.07 33.63 31.65 31.52 31.47 32.16 28.97 26.75 26.60 26.69 26.35 26.97 27.33 26.26 25.15 24.70 22.81 22.10 21.95 22.26 21.58 20.34 22.32 25.31 25.91 25.18 24.47 24.45 24.79 24.76 24.49 21.80 19.83 19.12 19.01 17.61
34.55 35.84 27.39 27.84 27.85 30.13 32.45 34.21 33.77 32.81 31.36 31.37 32.21 30.39 29.50 27.12 26.94 26.78 27.49 27.80 25.65 25.28 24.10 24.23 22.75 20.87 19.92 20.70 22.15 21.83 23.21 24.34 23.81 23.70 24.12 23.43 23.01 22.76 23.05 22.78 21.27 18.79 16.93 16.58
32.50 32.96 28.61 26.47 28.90 31.64 33.13 33.46 32.21 31.66 31.70 30.98 31.08 30.79 29.71 28.49 27.89 28.64 27.83 25.94 25.63 25.05 24.97 23.90 21.98 20.76 19.55 20.11 20.08 20.18 22.50 23.29 22.18 22.65 23.37 22.73 22.56 21.81 21.56 22.01 19.51 21.92 20.44 19.32
34.30 30.29 25.49 23.95 30.10 29.52 29.38 32.61 33.16 30.92 30.20 30.62 30.00 29.16 30.06 29.89 29.23 28.72 26.33 26.09 25.32 24.01 23.96 22.60 21.69 20.55 19.24 19.20 19.11 19.81 21.63 22.81 21.02 20.65 20.82 20.99 21.37 20.53 20.77 19.91 19.71 24.43 23.19 25.36